[[{"header":{"parameterUnit":"m.s-1","parameterCategory":1,"la1":30.6,"la2":29.2853,"lo1":-89.7004,"lo2":-87.6739,"dy":0.0162,"dx":0.0183,"nx":112,"ny":82,"refTime":"2026-05-13T00:00:00:Z","depth":0,"parameterNumber":2,"parameterNumberName":"U-component_of_WINDS"},"data":[0.0,0.0,0.0,0.0,0.0,0.0,0.0,0.0,0.0,0.0,0.0,0.0,0.0,0.0,0.0,0.0,0.0,0.0,0.0,0.0,0.0,0.0,0.0,0.0,0.0,0.0,0.0,0.0,0.0,0.0,0.0,0.0,0.0,0.0,0.0,0.0,0.0,0.0,0.0,0.0,0.0,0.0,0.0,0.0,0.0,0.0,0.0,0.0,0.0,0.0,0.0,0.0,0.0,0.0,0.0,0.0,0.0,0.0,0.0,0.0,0.0,0.0,0.0,0.0,0.0,0.0,0.0,0.0,0.0,0.0,0.0,0.0,0.0,0.0,0.0,0.0,0.0,0.0,0.0,0.0,0.0,0.0,0.0,0.0,0.0,0.0,0.0,0.0,0.0,0.0,0.3913,0.4038,0.4621,0.5333,0.6144,0.6107,0.6113,0.6271,0.0,0.0,0.0,0.0,0.0,0.0,0.0,0.0,0.0,0.0,0.0,0.0,0.0,0.0,0.0,0.0,0.0,0.0,0.0,0.0,0.0,0.0,0.0,0.0,0.0,0.0,0.0,0.0,0.0,0.0,0.0,0.0,0.0,0.0,0.0,0.0,0.0,0.0,0.0,0.0,0.0,0.0,0.0,0.0,0.0,0.0,0.0,0.0,0.0,0.0,0.0,0.0,0.0,0.0,0.0,0.0,0.0,0.0,0.0,0.0,0.0,0.0,0.0,0.0,0.0,0.0,0.0,0.0,0.0,0.0,0.0,0.0,0.0,0.0,0.0,0.0,0.0,0.0,0.0,0.0,0.0,0.0,0.0,0.0,0.0,0.0,0.0,0.0,0.0,0.0,0.0,0.0,0.0,0.0,0.0,0.0,0.0,0.0,0.0,0.0,0.0,0.0,0.0,0.0,0.4396,0.5083,0.536,0.5713,0.6239,0.5966,0.5887,0.6197,0.0,0.0,0.0,0.0,0.0,0.0,0.0,0.0,0.0,0.0,0.0,0.0,0.0,0.0,0.0,0.0,0.0,0.0,0.0,0.0,0.0,0.0,0.0,0.0,0.0,0.0,0.0,0.0,0.0,0.0,0.0,0.0,0.0,0.0,0.0,0.0,0.0,0.0,0.0,0.0,0.0,0.0,0.0,0.0,0.0,0.0,0.0,0.0,0.0,0.0,0.0,0.0,0.0,0.0,0.0,0.0,0.0,0.0,0.0,0.0,0.0,0.0,0.0,0.0,0.0,0.0,0.0,0.0,0.0,0.0,0.0,0.0,0.0,0.0,0.0,0.0,0.0,0.0,0.0,0.0,0.0,0.0,0.0,0.0,0.0,0.0,0.0,0.0,0.0,0.0,0.0,0.0,0.0,0.0,0.0,0.0,0.0,0.0,0.0,0.0,0.0,0.0,0.0,0.3967,0.4403,0.5201,0.5315,0.5581,0.6192,0.5812,0.5743,0.6223,0.5196,0.0,0.0,0.0,0.0,0.0,0.0,0.0,0.0,0.0,0.0,0.0,0.0,0.0,0.0,0.0,0.0,0.0,0.0,0.0,0.0,0.0,0.0,0.0,0.0,0.0,0.0,0.0,0.0,0.0,0.0,0.0,0.0,0.0,0.0,0.0,0.0,0.0,0.0,0.0,0.0,0.0,0.0,0.0,0.0,0.0,0.0,0.0,0.0,0.0,0.0,0.0,0.0,0.0,0.0,0.0,0.0,0.0,0.0,0.0,0.0,0.0,0.0,0.0,0.0,0.0,0.0,0.0,0.0,0.0,0.0,0.0,0.0,0.0,0.0,0.0,0.0,0.0,0.0,0.0,0.0,0.0,0.0,0.0,0.0,0.0,0.0,0.0,0.0,0.0,0.0,0.0,0.0,0.0,0.0,0.0,0.0,0.0,0.0,0.0,0.0,0.0,0.0,0.398,0.438,0.5121,0.5171,0.5383,0.5961,0.567,0.5632,0.608,0.4907,0.0,0.0,0.0,0.0,0.0,0.0,0.0,0.0,0.0,0.0,0.0,0.0,0.0,0.0,0.0,0.0,0.0,0.0,0.0,0.0,0.0,0.0,0.0,0.0,0.0,0.0,0.0,0.0,0.0,0.0,0.0,0.0,0.0,0.0,0.0,0.0,0.0,0.0,0.0,0.0,0.0,0.0,0.0,0.0,0.0,0.0,0.0,0.0,0.0,0.0,0.0,0.0,0.0,0.0,0.0,0.0,0.0,0.0,0.0,0.0,0.0,0.0,0.0,0.0,0.0,0.0,0.0,0.0,0.0,0.0,0.0,0.0,0.0,0.0,0.0,0.0,0.0,0.0,0.0,0.0,0.0,0.0,0.0,0.0,0.0,0.0,0.0,0.0,0.0,0.0,0.0,0.0,0.0,0.0,0.0,0.0,0.0,0.0,0.0,0.0,0.0,0.0,0.4168,0.4587,0.5146,0.5248,0.5331,0.5444,0.5531,0.5578,0.5559,0.4702,0.0,0.0,0.0,0.0,0.0,0.0,0.0,0.0,0.0,0.0,0.0,0.0,0.0,0.0,0.0,0.0,0.0,0.0,0.0,0.0,0.0,0.0,0.0,0.0,0.0,0.0,0.0,0.0,0.0,0.0,0.0,0.0,0.0,0.0,0.0,0.0,0.0,0.0,0.0,0.0,0.0,0.0,0.0,0.0,0.0,0.0,0.0,0.0,0.0,0.0,0.0,0.0,0.0,0.0,0.0,0.0,0.0,0.0,0.0,0.0,0.0,0.0,0.0,0.0,0.0,0.0,0.0,0.0,0.0,0.0,0.0,0.0,0.0,0.0,0.0,0.0,0.0,0.0,0.0,0.0,0.0,0.0,0.0,0.0,0.0,0.0,0.0,0.0,0.0,0.0,0.0,0.0,0.0,0.0,0.0,0.0,0.0,0.0,0.0,0.0,0.0,0.0,0.4198,0.4686,0.0,0.5348,0.5439,0.5634,0.5694,0.568,0.5567,0.0,0.0,0.0,0.0,0.0,0.0,0.0,0.0,0.0,0.0,0.0,0.0,0.0,0.0,0.0,0.0,0.0,0.0,0.0,0.0,0.0,0.0,0.0,0.0,0.0,0.0,0.0,0.0,0.0,0.0,0.0,0.0,0.0,0.0,0.0,0.0,0.0,0.0,0.0,0.0,0.0,0.0,0.0,0.0,0.0,0.0,0.0,0.0,0.0,0.0,0.0,0.0,0.0,0.0,0.0,0.0,0.0,0.0,0.0,0.0,0.0,0.0,0.0,0.0,0.0,0.0,0.0,0.0,0.0,0.0,0.0,0.0,0.0,0.0,0.0,0.0,0.0,0.0,0.0,0.0,0.0,0.0,0.0,0.0,0.0,0.0,0.0,0.0,0.0,0.0,0.0,0.0,0.0,0.0,0.0,0.0,0.0,0.0,0.0,0.0,0.0,0.0,0.386,0.4233,0.4725,0.0,0.5391,0.5481,0.5685,0.5746,0.5657,0.539,0.0,0.0,0.0,0.0,0.0,0.0,0.0,0.0,0.0,0.0,0.0,0.0,0.0,0.0,0.0,0.0,0.0,0.0,0.0,0.0,0.0,0.0,0.0,0.0,0.0,0.0,0.0,0.0,0.0,0.0,0.0,0.0,0.0,0.0,0.0,0.0,0.0,0.0,0.0,0.0,0.0,0.0,0.0,0.0,0.0,0.0,0.0,0.0,0.0,0.0,0.0,0.0,0.0,0.0,0.0,0.0,0.0,0.0,0.0,0.0,0.0,0.0,0.0,0.0,0.0,0.0,0.0,0.0,0.0,0.0,0.0,0.0,0.0,0.0,0.0,0.0,0.0,0.0,0.0,0.0,0.0,0.0,0.0,0.0,0.0,0.0,0.0,0.0,0.0,0.0,0.0,0.0,0.0,0.0,0.0,0.0,0.0,0.0,0.0,0.0,0.0,0.0,0.3981,0.4294,0.4712,0.5246,0.5358,0.5424,0.5492,0.5621,0.5473,0.0,0.0,0.0,0.0,0.0,0.0,0.0,0.0,0.0,0.0,0.0,0.0,0.0,0.0,0.0,0.0,0.0,0.0,0.0,0.0,0.0,0.0,0.0,0.0,0.0,0.0,0.0,0.0,0.0,0.0,0.0,0.0,0.0,0.0,0.0,0.0,0.0,0.0,0.0,0.0,0.0,0.0,0.0,0.0,0.0,0.0,0.0,0.0,0.0,0.0,0.0,0.0,0.0,0.0,0.0,0.0,0.0,0.0,0.0,0.0,0.0,0.0,0.0,0.0,0.0,0.0,0.0,0.0,0.0,0.0,0.0,0.0,0.0,0.0,0.0,0.0,0.0,0.0,0.0,0.0,0.0,0.0,0.0,0.0,0.0,0.0,0.0,0.0,0.0,0.0,0.0,0.0,0.0,0.0,0.0,0.0,0.0,0.0,0.0,0.0,0.0,0.0,0.0,0.4009,0.4624,0.5127,0.5286,0.5315,0.5377,0.5492,0.553,0.5391,0.4997,0.0,0.0,0.0,0.0,0.0,0.0,0.0,0.0,0.0,0.0,0.0,0.0,0.0,0.0,0.0,0.0,0.0,0.0,0.0,0.0,0.0,0.0,0.0,0.0,0.0,0.0,0.0,0.0,0.0,0.0,0.0,0.0,0.0,0.0,0.0,0.0,0.0,0.0,0.0,0.0,0.0,0.0,0.0,0.0,0.0,0.0,0.0,0.0,0.0,0.0,0.0,0.0,0.0,0.0,0.0,0.0,0.0,0.0,0.0,0.0,0.0,0.0,0.0,0.0,0.0,0.0,0.0,0.0,0.0,0.0,0.0,0.0,0.0,0.0,0.0,0.0,0.0,0.0,0.0,0.0,0.0,0.0,0.0,0.0,0.0,0.0,0.0,0.0,0.0,0.0,0.0,0.0,0.0,0.0,0.0,0.0,0.0,0.0,0.0,0.0,0.0,0.0,0.3932,0.4683,0.5219,0.5219,0.532,0.5411,0.5492,0.5578,0.544,0.5032,0.0,0.0,0.0,0.0,0.0,0.0,0.0,0.0,0.0,0.0,0.0,0.0,0.0,0.0,0.0,0.0,0.0,0.0,0.0,0.0,0.0,0.0,0.0,0.0,0.0,0.0,0.0,0.0,0.0,0.0,0.0,0.0,0.0,0.0,0.0,0.0,0.0,0.0,0.0,0.0,0.0,0.0,0.0,0.0,0.0,0.0,0.0,0.0,0.0,0.0,0.0,0.0,0.0,0.0,0.0,0.0,0.0,0.0,0.0,0.0,0.0,0.0,0.0,0.0,0.0,0.0,0.0,0.0,0.0,0.0,0.0,0.0,0.0,0.0,0.0,0.0,0.0,0.0,0.0,0.0,0.0,0.0,0.0,0.0,0.0,0.0,0.0,0.0,0.0,0.0,0.0,0.0,0.0,0.0,0.0,0.0,0.0,0.0,0.0,0.0,0.0,0.0,0.3821,0.4591,0.5132,0.5122,0.5349,0.5518,0.5559,0.5693,0.557,0.51,0.0,0.0,0.0,0.0,0.0,0.0,0.0,0.0,0.0,0.0,0.0,0.0,0.0,0.0,0.0,0.0,0.0,0.0,0.0,0.0,0.0,0.0,0.0,0.0,0.0,0.0,0.0,0.0,0.0,0.0,0.0,0.0,0.0,0.0,0.0,0.0,0.0,0.0,0.0,0.0,0.0,0.0,0.0,0.0,0.0,0.0,0.0,0.0,0.0,0.0,0.0,0.0,0.0,0.0,0.0,0.0,0.0,0.0,0.0,0.0,0.0831,0.0,0.0,0.0,0.0,0.0,0.0,0.0,0.0,0.0,0.0,0.0,0.0,0.0,0.0,0.0,0.0,0.0,0.0,0.0,0.0,0.0,0.0,0.0,0.0,0.0,0.0,0.0,0.0,0.0,0.0,0.0,0.0,0.0,0.0,0.0,0.0,0.0,0.0,0.0,0.0,0.0,0.3982,0.4808,0.5373,0.5272,0.5402,0.5653,0.6018,0.5749,0.5582,0.5626,0.5141,0.0,0.0,0.0,0.0,0.0,0.0,0.0,0.0,0.0,0.0,0.0,0.0,0.0,0.0,0.0,0.0,0.0,0.0,0.0,0.0,0.0,0.0,0.0,0.0,0.0,0.0,0.0,0.0,0.0,0.0,0.0,0.0,0.0,0.0,0.0,0.0,0.0,0.0,0.0,0.0,0.0,0.0,0.0,0.0,0.0,0.0,0.0,0.0,0.0,0.0,0.0,0.0,0.0,0.0,0.0,0.0,0.0,0.0,0.0,0.0,0.1071,0.0,0.0,0.0,0.0,0.0,0.0,0.0,0.0,0.0,0.0,0.0,0.0,0.0,0.0,0.0,0.0,0.0,0.0,0.0,0.0,0.0,0.0,0.0,0.0,0.0,0.0,0.0,0.0,0.0,0.0,0.0,0.0,0.0,0.0,0.0,0.0,0.0,0.0,0.0,0.0,0.3928,0.4726,0.5282,0.5209,0.5383,0.5606,0.584,0.5729,0.569,0.5793,0.5299,0.0,0.0,0.0,0.0,0.0,0.0,0.0,0.0,0.0,0.0,0.0,0.0,0.0,0.0,0.0,0.0,0.0,0.0,0.0,0.0,0.0,0.0,0.0,0.0,0.0,0.0,0.0,0.0,0.0,0.0,0.0,0.0,0.0,0.0,0.0,0.0,0.0,0.0,0.0,0.0,0.0,0.0,0.0,0.0,0.0,0.0,0.0,0.0,0.0,0.0,0.0,0.0,0.0,0.0539,0.0531,0.0385,0.0913,0.0933,0.0597,0.1125,0.143,0.1541,0.1428,0.0,0.0,0.0,0.0,0.0,0.0,0.0,0.0,0.0,0.0,0.0,0.0,0.0,0.0,0.0,0.0,0.0,0.0,0.0,0.0,0.0,0.0,0.0,0.0,0.4481,0.4538,0.3869,0.0,0.0,0.0,0.0,0.0,0.0,0.0,0.0,0.0,0.0,0.0,0.3903,0.4591,0.5098,0.5098,0.5339,0.5565,0.5746,0.5863,0.5967,0.606,0.5572,0.5407,0.0,0.0,0.0,0.0,0.0,0.0,0.0,0.0,0.0,0.0,0.0,0.0,0.0,0.0,0.0,0.0,0.0,0.0,0.0,0.0,0.0,0.0,0.0,0.0,0.0,0.0,0.0,0.0,0.0,0.0,0.0,0.0,0.0261,0.0359,0.0,0.0,0.0,0.0,0.0,0.0,0.0,0.0,0.0,0.0,0.0,0.0,0.0,0.0319,0.0597,0.0463,0.0469,0.0654,0.0681,0.0675,0.0654,0.085,0.0909,0.0861,0.1048,0.0,0.1354,0.1621,0.0,0.0,0.0,0.0,0.0,0.0,0.0,0.0,0.0,0.0,0.0,0.0,0.0,0.0,0.0,0.0,0.0,0.0,0.0,0.0,0.0,0.0,0.4712,0.4102,0.4382,0.4755,0.0,0.4587,0.4431,0.4029,0.3434,0.0,0.0,0.0,0.0,0.0,0.0,0.0,0.4251,0.4738,0.5098,0.5098,0.5339,0.5856,0.6732,0.656,0.6606,0.7075,0.6653,0.6079,0.5395,0.5254,0.0,0.0,0.0,0.0,0.0,0.0,0.0,0.0,0.0,0.0,0.0,0.0,0.0,0.0,0.0,0.0,0.0,0.0,0.0,0.0,0.0,0.0,0.0,0.0,0.0,0.0,0.0,0.0,0.0,0.0177,0.022,0.0279,0.0164,0.0076,0.0,0.0,0.0,0.0,0.0,0.0,0.0,0.0,0.0,0.0291,0.0126,0.0176,0.0478,0.0284,0.022,0.0309,0.0309,0.0313,0.032,0.0569,0.0576,0.0422,0.089,0.1009,0.0879,0.117,0.1228,0.1134,0.0,0.0,0.0,0.0,0.1662,0.1665,0.1946,0.1987,0.1934,0.2084,0.0,0.0,0.0,0.0,0.0,0.0,0.0,0.0,0.0,0.0,0.465,0.4411,0.4954,0.553,0.553,0.5636,0.5406,0.0,0.4497,0.4488,0.3528,0.0,0.0,0.0,0.0,0.4325,0.43,0.4767,0.5185,0.5416,0.5612,0.593,0.6447,0.6709,0.687,0.6957,0.6807,0.6534,0.6157,0.5928,0.5634,0.0,0.0,0.0,0.0,0.0,0.0,0.0,0.0,0.0,0.0,0.0,0.0,0.0,0.0,0.0,0.0,0.0,0.0,0.0,0.0,0.0,0.0,0.0,0.0,0.0,0.0,0.0,0.0,0.0133,0.0176,0.0109,0.0009,-0.0056,0.0,0.0,0.0,0.0,0.0,0.0,-0.0048,-0.0039,0.0056,0.025,0.0046,0.0048,0.0315,0.014,0.0055,0.0059,0.0079,0.0079,0.006,0.0316,0.0277,0.004,0.0587,0.0667,0.0443,0.0805,0.0926,0.0926,0.114,0.1265,0.1376,0.1779,0.1939,0.1996,0.2329,0.2324,0.2216,0.2416,0.2355,0.2249,0.2465,0.0,0.0,0.0,0.0,0.3186,0.3839,0.4306,0.4626,0.4682,0.534,0.5941,0.5941,0.6295,0.6251,0.0,0.5584,0.5747,0.4243,0.0,0.0,0.0,0.0,0.4743,0.4734,0.5078,0.5442,0.5748,0.5909,0.6067,0.6211,0.6875,0.7122,0.6754,0.6916,0.6925,0.6684,0.6383,0.6015,0.5559,0.0,0.0,0.0,0.0,0.0,0.0,0.0,0.0,0.0,0.0,0.0,0.0,0.0,0.0,0.0,0.0,0.0,0.0,0.0,0.0,0.0,0.0,0.0,0.0,0.0,0.0,0.0,0.0,0.0,-0.0154,-0.0024,0.0,0.0,0.0,0.0,-0.0285,-0.0275,-0.0246,-0.0194,-0.0125,-0.0033,0.01,0.0037,0.0039,0.0117,0.0156,0.0195,0.0196,0.0314,0.0322,0.0189,0.02,0.0141,0.0,0.004,0.0117,0.0253,0.0848,0.1015,0.0904,0.0985,0.1165,0.1428,0.1634,0.1997,0.2391,0.2535,0.2615,0.2674,0.2674,0.272,0.2811,0.3073,0.3292,0.0,0.0,0.4304,0.4468,0.4312,0.4723,0.5074,0.477,0.5121,0.5528,0.5528,0.6097,0.657,0.0,0.6534,0.631,0.5452,0.0,0.5994,0.5403,0.5815,0.6129,0.5943,0.5937,0.5955,0.5978,0.6165,0.6363,0.6562,0.7301,0.7483,0.6835,0.7337,0.7252,0.6361,0.6304,0.628,0.6251,0.5728,0.0,0.0,0.0,0.0,0.0,0.0,0.0,0.0,0.0,0.0,0.0,0.0,0.0,0.0,0.0,0.0,0.0,0.0,0.0,0.0,0.0,0.0,0.0,0.0,0.0,0.0,0.0,0.0,-0.0256,-0.0505,0.0,-0.0743,-0.0677,-0.0618,-0.062,-0.0424,-0.0247,-0.0142,-0.0158,-0.0205,-0.0279,-0.0386,-0.0558,-0.0799,-0.082,-0.0832,-0.0835,-0.0792,-0.0755,-0.0766,-0.0776,-0.0583,-0.0262,-0.0293,-0.0123,0.0205,0.0343,0.0409,0.0466,0.0615,0.0782,0.1023,0.1655,0.2023,0.2265,0.271,0.2824,0.2741,0.2614,0.2679,0.2849,0.3073,0.3308,0.3591,0.4067,0.4273,0.4351,0.4362,0.4654,0.4904,0.4794,0.5236,0.5754,0.596,0.6597,0.7098,0.6997,0.6986,0.6735,0.5923,0.6178,0.6332,0.5858,0.5975,0.6084,0.601,0.5998,0.6093,0.6361,0.6612,0.6854,0.7095,0.7893,0.8112,0.7485,0.7684,0.7523,0.6844,0.6481,0.6301,0.6301,0.5772,0.522,0.0,0.0,0.0,0.0,0.0,0.0,0.0,0.0,0.0,0.0,0.0,0.0,0.0,0.0,0.0,0.0,0.0,0.0,0.0,0.0,0.0,0.0,0.0,0.0,0.0,0.0,-0.0777,-0.08,-0.0902,-0.0993,-0.1059,-0.0933,-0.0825,-0.0808,-0.0567,-0.0458,-0.0501,-0.0381,-0.0463,-0.0784,-0.0877,-0.105,-0.1338,-0.1338,-0.1335,-0.1327,-0.1281,-0.1271,-0.1298,-0.1298,-0.1074,-0.0715,-0.074,-0.0451,0.0064,-0.0086,0.0021,0.0288,0.0385,0.0548,0.078,0.1473,0.1923,0.2254,0.2832,0.2938,0.2821,0.2671,0.2696,0.2831,0.3142,0.3399,0.3663,0.4107,0.4344,0.4483,0.4521,0.4752,0.4968,0.4968,0.5394,0.5862,0.6079,0.6691,0.7165,0.7081,0.725,0.7155,0.6347,0.6534,0.6657,0.6265,0.632,0.6406,0.6406,0.6406,0.6507,0.678,0.6962,0.7153,0.7378,0.7962,0.8177,0.7826,0.7867,0.766,0.7121,0.676,0.6481,0.6301,0.5951,0.5635,0.5372,0.0,0.0,0.0,0.0,0.0,0.0,0.0,0.0,0.0,0.0,0.0,0.0,0.0,0.0,0.0,0.0,0.0,0.0,0.0,0.0,0.0,0.0,0.0,-0.1707,-0.1547,-0.1621,-0.1809,-0.1193,-0.0891,-0.1216,-0.1065,-0.0913,-0.0849,-0.0783,-0.0905,-0.1298,-0.0822,-0.0822,-0.1387,-0.1359,-0.1348,-0.1428,-0.1309,-0.1262,-0.124,-0.1119,-0.1165,-0.1346,-0.1344,-0.1321,-0.1321,-0.1321,-0.0917,-0.0246,-0.038,-0.0112,0.0358,0.0322,0.0454,0.0735,0.1067,0.168,0.2397,0.2907,0.3022,0.2905,0.2905,0.282,0.2809,0.3352,0.3595,0.3785,0.4194,0.463,0.4954,0.4838,0.5048,0.5296,0.5296,0.5545,0.5784,0.5796,0.6333,0.6805,0.6792,0.7331,0.7555,0.6753,0.6945,0.7068,0.6684,0.6949,0.0,0.7196,0.7211,0.7211,0.7196,0.7225,0.7277,0.7424,0.7564,0.7698,0.7815,0.7873,0.7666,0.7139,0.7103,0.6856,0.6337,0.6307,0.6301,0.631,0.0,0.0,0.0,0.0,0.0,0.0,0.0,0.0,0.0,0.0,0.0,0.0,0.0,0.0,0.0,0.0,0.0,0.0,0.0,0.0,0.0,-0.5207,-0.5094,-0.322,-0.2734,-0.2577,-0.2536,-0.231,-0.2174,-0.2212,-0.1943,-0.1759,-0.1735,-0.1813,-0.1781,-0.1598,-0.1578,-0.1627,-0.1696,-0.1757,-0.1939,-0.2187,-0.2356,-0.2413,-0.2357,-0.2364,-0.2294,-0.2174,-0.2177,-0.1924,-0.1523,-0.1721,-0.1498,-0.1007,-0.103,-0.0739,-0.0224,0.0111,0.0333,0.0538,0.0973,0.1801,0.2756,0.2896,0.3057,0.3187,0.3187,0.3104,0.3074,0.3575,0.3682,0.3729,0.4227,0.4568,0.4784,0.4795,0.5051,0.5296,0.5296,0.5372,0.5502,0.5749,0.6371,0.6778,0.6489,0.7178,0.7637,0.7123,0.7127,0.7159,0.705,0.7127,0.0,0.7196,0.7288,0.7308,0.7211,0.7588,0.7919,0.8105,0.8467,0.8613,0.846,0.8111,0.7828,0.7684,0.7311,0.7031,0.688,0.6493,0.6348,0.0,0.0,0.0,0.0,0.0,0.0,0.0,0.0,0.0,0.0,0.0,0.0,0.0,0.0,0.0,0.0,0.0,0.0,0.0,0.0,0.0,0.0,-0.6599,-0.6696,-0.5543,-0.4596,-0.3956,-0.3819,-0.3598,-0.3446,-0.3408,-0.3223,-0.3035,-0.2864,-0.2632,-0.2475,-0.2407,-0.2182,-0.2121,-0.2304,-0.2303,-0.2372,-0.2543,-0.2757,-0.2813,-0.2721,-0.2761,-0.2683,-0.2541,-0.2507,-0.2281,-0.1902,-0.2057,-0.1833,-0.1344,-0.1411,-0.1164,0.0,0.0,0.0,0.0,0.0,0.1654,0.2323,0.2743,0.2952,0.3036,0.3246,0.3246,0.324,0.355,0.3702,0.3847,0.424,0.4556,0.4799,0.4873,0.5096,0.5296,0.5296,0.5296,0.536,0.5545,0.6038,0.6418,0.6319,0.6893,0.0,0.7222,0.7196,0.7196,0.7196,0.7196,0.7196,0.7196,0.7308,0.7366,0.7288,0.7622,0.8009,0.8405,0.8486,0.0,0.0,0.0,0.8236,0.8236,0.772,0.0,0.0,0.0,0.0,0.0,0.0,0.0,0.0,0.8179,0.8573,0.0,0.0,0.0,0.0,0.0,0.0,0.0,0.0,0.0,0.0,0.0,0.0,0.0,0.0,0.0,0.0,-0.7749,-0.7951,-0.8194,-0.694,-0.5856,-0.5476,-0.5069,-0.4814,-0.4814,-0.48,-0.4659,-0.4308,-0.3601,-0.3342,-0.3674,0.0,0.0,0.0,0.0,-0.2738,-0.2756,-0.288,-0.2866,-0.276,-0.2787,-0.2734,-0.2653,-0.2604,-0.2481,-0.2302,-0.2324,-0.2012,-0.1523,-0.1635,-0.1433,-0.1007,-0.0447,0.0045,0.0472,0.1031,0.1299,0.1544,0.2477,0.0,0.0,0.3185,0.3344,0.3353,0.3455,0.3723,0.4024,0.4206,0.4576,0.4933,0.4981,0.5174,0.5347,0.5347,0.532,0.5296,0.5296,0.5561,0.5889,0.6187,0.6513,0.6837,0.7107,0.7181,0.7196,0.7196,0.7196,0.7196,0.7196,0.7323,0.7415,0.7401,0.0,0.0,0.8442,0.8082,0.8311,0.9434,0.9055,0.876,0.8706,0.8303,0.805,0.7995,0.853,0.8803,0.8827,0.9359,0.9719,0.9871,0.867,0.8874,0.0,0.0,0.0,0.0,0.0,0.0,0.0,0.0,0.0,0.0,0.0,0.0,0.0,0.0,0.0,-0.9273,-0.9786,-1.0035,-0.9656,-0.9649,-0.8962,-0.7038,-0.6775,-0.676,-0.676,-0.6719,-0.6638,-0.6565,-0.5978,-0.5596,-0.5492,-0.4509,-0.4057,-0.4291,-0.3404,-0.3185,-0.3733,-0.3701,-0.3734,-0.3821,0.0,0.0,-0.3002,-0.3051,-0.2792,-0.2302,-0.2415,-0.2393,-0.2281,-0.2191,-0.161,-0.0761,-0.047,-0.0022,0.0517,0.0742,0.1054,0.1478,0.2056,0.2507,0.2931,0.3457,0.3612,0.3655,0.3899,0.394,0.0,0.4024,0.4496,0.4994,0.4998,0.532,0.5631,0.5631,0.5451,0.5296,0.5296,0.5561,0.5827,0.5893,0.6168,0.6501,0.6818,0.7057,0.7196,0.7196,0.7196,0.7196,0.7196,0.7358,0.7465,0.7401,0.7652,0.8008,0.8456,0.8549,0.8849,0.9458,0.9408,0.9157,0.8724,0.9018,0.9013,0.8627,0.8736,0.8851,0.8959,0.9076,0.961,1.0517,1.0204,1.0363,0.0,0.0,0.0,0.0,0.0,0.0,0.0,0.0,0.0,0.0,0.0,-0.9224,-0.912,0.0,-1.0551,-1.0848,-1.1156,-1.1395,-1.1531,-1.1671,-1.098,-0.8898,-0.9008,-0.9245,-0.9209,-0.938,-0.9392,-0.9128,-0.854,-0.8091,-0.7856,-0.6538,-0.5834,-0.5894,-0.4463,-0.3838,-0.4142,-0.3983,-0.3844,-0.3711,-0.4005,-0.3826,-0.3197,-0.3309,-0.3031,-0.2505,-0.2572,-0.2508,-0.2353,-0.2303,-0.172,-0.0829,-0.0699,-0.0134,0.0607,0.0675,0.0853,0.1121,0.1588,0.2122,0.2678,0.3188,0.359,0.3926,0.4064,0.4106,0.4105,0.4147,0.443,0.4813,0.5042,0.5215,0.5413,0.5643,0.5491,0.5296,0.5296,0.5439,0.5655,0.5986,0.6187,0.644,0.6912,0.7117,0.7196,0.7196,0.7196,0.7196,0.7196,0.7373,0.749,0.7455,0.7661,0.7956,0.8322,0.8723,0.905,0.929,0.943,0.9378,0.9115,0.9354,0.9404,0.9197,0.9229,0.9292,0.9398,0.9436,0.9879,1.0706,1.0986,1.1328,0.0,0.0,0.0,0.0,0.0,0.0,0.0,0.0,-0.8666,-0.9219,-1.023,-1.0999,-1.093,-1.1411,-1.1965,-1.2359,-1.2405,-1.2605,-1.316,-1.3285,-1.2719,-1.1118,-1.1376,-1.1656,-1.1611,-1.1958,-1.1995,-1.1562,-1.0934,-1.0495,-1.0315,-0.8727,-0.7652,-0.731,-0.5547,-0.4422,-0.4009,-0.3748,-0.3552,-0.3392,-0.3803,-0.3777,-0.3441,-0.3555,-0.3275,-0.2709,-0.2664,-0.2483,-0.2201,-0.2211,-0.1699,-0.0938,-0.0771,-0.0134,0.0697,0.0697,0.0697,0.0764,0.1277,0.1812,0.239,0.2901,0.3548,0.411,0.4152,0.4234,0.4296,0.4342,0.4465,0.4683,0.5025,0.5112,0.52,0.5536,0.5471,0.5312,0.5296,0.5296,0.5482,0.6106,0.6214,0.6395,0.6962,0.7111,0.7151,0.7191,0.7264,0.7334,0.7349,0.7574,0.7709,0.7638,0.7762,0.7935,0.8183,0.8695,0.9026,0.91,0.9303,0.9451,0.9491,0.9504,0.9557,0.9611,0.9684,0.9743,0.9815,0.9973,1.0275,1.0712,1.1431,1.1983,-1.0445,-0.9789,-0.9269,-0.958,-0.9578,-0.9857,0.0,0.0,-1.1043,-1.2392,-1.2788,-1.3159,-1.4017,-1.3915,-1.3753,-1.3935,-1.41,-1.4101,-1.3766,-1.4525,-1.4804,-1.4011,-1.3577,-1.3346,-1.341,-1.3464,-1.3458,-1.3408,-1.2677,-1.2298,-1.2442,-1.0923,-0.9306,-0.7687,-0.6168,-0.4597,-0.2992,-0.2769,-0.3011,-0.3751,-0.3863,-0.3921,-0.3932,-0.3991,-0.3537,-0.2691,-0.2582,-0.241,-0.2182,-0.1953,-0.1413,-0.0698,-0.0269,0.0224,0.0697,0.0697,0.0697,0.0787,0.1367,0.1902,0.2414,0.3127,0.3685,0.4154,0.4394,0.439,0.4318,0.4434,0.4696,0.4928,0.4858,0.5184,0.5508,0.5366,0.5359,0.5366,0.5312,0.5296,0.5435,0.5859,0.5948,0.6075,0.6501,0.6779,0.7,0.7166,0.75,0.778,0.7896,0.8298,0.8456,0.8159,0.8239,0.8288,0.8209,0.8479,0.8781,0.9087,0.9127,0.9249,0.9497,0.9551,0.9624,0.9684,0.9762,0.9815,0.9886,1.0362,1.0637,1.0739,1.1805,1.2337,-1.2982,-1.2335,0.0,0.0,-1.2034,-1.244,-1.2908,-1.3116,-1.3464,-1.4364,-1.4818,-1.504,-1.4951,-1.5092,-1.5216,0.0,-1.5238,-1.5376,-1.5683,-1.6064,-1.6095,-1.5465,-1.5573,-1.5429,-1.4754,-1.4872,-1.5036,-1.5147,-1.5052,-1.5008,-1.5015,-1.3714,-1.2606,-1.1799,-1.0183,-0.9035,-0.8393,-0.807,-0.717,-0.5723,-0.5985,-0.4973,-0.2914,-0.3566,-0.3633,-0.3184,-0.262,-0.2363,-0.2306,-0.224,-0.1646,-0.0787,-0.061,0.0022,0.0809,0.0809,0.0809,0.0854,0.1188,0.1855,0.2588,0.29,0.359,0.435,0.4458,0.4495,0.4469,0.4499,0.4624,0.4793,0.4942,0.515,0.5355,0.5553,0.5497,0.5401,0.5419,0.5391,0.547,0.5828,0.6094,0.6425,0.699,0.7374,0.7623,0.7709,0.7766,0.7821,0.787,0.815,0.8239,0.7936,0.7963,0.797,0.7919,0.8196,0.8493,0.8787,0.8999,0.9236,0.9538,0.9585,0.9651,0.9756,0.9789,0.9984,1.0369,1.0275,1.0739,1.1692,1.1864,1.2262,-1.4401,0.0,0.0,-1.3897,-1.437,-1.4788,-1.4515,-1.4832,-1.5356,-1.591,-1.6172,-1.6153,-1.5743,-1.5829,-1.5978,-1.6049,-1.6094,-1.6354,-1.708,-1.7251,-1.7113,-1.6632,-1.6927,-1.6877,-1.6134,-1.6182,-1.6325,-1.6467,-1.6764,-1.6929,-1.6905,-1.6184,-1.546,-1.4794,-1.3657,-1.2787,-1.2279,-1.1746,-1.0564,-0.8733,-0.8584,-0.7416,-0.5387,-0.4961,-0.4741,-0.4606,-0.295,-0.2168,-0.2056,-0.2263,-0.1692,-0.07,-0.0634,0.0,0.0854,0.0966,0.0988,0.0966,0.1075,0.1719,0.254,0.2696,0.3451,0.43,0.4475,0.4559,0.4596,0.4585,0.4581,0.465,0.4881,0.5005,0.5145,0.5471,0.5485,0.5449,0.5484,0.547,0.5505,0.5788,0.6211,0.6705,0.7246,0.7773,0.8101,0.8029,0.8038,0.8022,0.7923,0.8069,0.8102,0.7909,0.7783,0.77,0.77,0.7919,0.8276,0.8785,0.9043,0.9449,1.0021,1.0063,1.0131,1.0268,1.0289,1.0435,1.0694,1.0634,1.1046,1.193,1.2015,1.2385,0.0,0.0,-1.5819,-1.582,-1.6167,-1.6537,-1.6594,-1.6366,-1.6383,-1.7187,-1.6633,-1.6236,-1.6993,-1.6301,-1.5811,-1.6385,-1.6702,-1.699,-1.7342,-1.7788,-1.7995,-1.7772,-1.7369,-1.727,0.0,-1.7384,-1.7158,-1.7171,-1.7238,-1.7396,-1.7647,-1.7995,-1.7213,-1.5069,-1.5256,-1.428,-1.1941,-1.113,-1.1441,-1.2794,-1.1242,-1.1638,-1.3591,-0.9387,-0.7489,-0.7269,-0.3677,-0.1733,-0.1171,-0.1708,-0.1249,-0.0202,0.0067,0.0381,0.0764,0.1144,0.1209,0.1097,0.1097,0.1497,0.212,0.2698,0.3274,0.3829,0.4419,0.4594,0.4618,0.4755,0.4709,0.4576,0.4527,0.475,0.4982,0.494,0.5223,0.5493,0.5497,0.5491,0.5545,0.5673,0.6186,0.6664,0.6888,0.7629,0.8102,0.7848,0.8308,0.8553,0.8225,0.8312,0.8385,0.8375,0.7968,0.77,0.77,0.771,0.8192,0.9298,0.9391,0.992,1.1107,1.1216,1.1314,1.1453,1.1514,1.1268,1.0694,1.1792,1.178,1.0787,1.2397,1.2895,-1.5468,0.0,-1.7006,-1.6914,-1.738,-1.7873,-1.7896,-1.7774,-1.7747,-1.8013,-1.7348,-1.6757,-1.685,-1.6505,-1.6411,-1.7062,-1.7156,-1.7416,-1.8163,-1.8396,-1.829,-1.7725,-1.8002,0.0,0.0,0.0,0.0,-1.7774,-1.8605,-1.9155,-1.9294,-1.9844,-1.9819,-1.9064,-1.9024,-1.8708,-1.8081,-1.7799,-1.699,-1.5622,-1.2856,-1.2247,-1.3508,-1.1684,-0.9495,-0.7055,-0.5544,-0.2962,0.0102,-0.0655,-0.0268,0.0765,0.0361,0.0649,0.1323,0.1547,0.1614,0.1546,0.1366,0.188,0.2639,0.2879,0.3475,0.4184,0.4602,0.4801,0.4849,0.4801,0.4825,0.4833,0.4724,0.4918,0.5096,0.4947,0.5198,0.5472,0.5389,0.5505,0.5654,0.5692,0.6219,0.6765,0.7112,0.8027,0.8702,0.8609,0.8427,0.8285,0.8215,0.8242,0.8184,0.7963,0.7803,0.77,0.77,0.77,0.8182,0.9335,0.9398,0.9934,1.1155,1.1265,1.1342,1.1433,1.1146,1.1272,1.183,1.146,1.166,1.2365,1.2576,1.2764,-1.7114,-1.7736,-1.8148,-1.8353,-1.8716,-1.9039,-1.9076,-1.8761,-1.8482,-1.8497,-1.7554,-1.6649,-1.6479,-1.6114,-1.6164,-1.7132,-1.727,-1.7638,-1.8723,-1.8936,-1.8814,-1.8337,-1.9008,-1.9349,0.0,0.0,0.0,-1.843,-1.9718,-2.0435,-2.0173,-2.1176,-2.1755,-2.1774,-2.1957,-2.2113,-2.2239,-2.1949,-2.0677,-1.8448,-1.6894,-1.6239,-1.6354,-1.4863,-1.2909,-1.0634,-0.8975,-0.5616,-0.1371,-0.2114,-0.0988,0.1183,0.083,0.0997,0.1479,0.1903,0.2015,0.1949,0.1702,0.2061,0.2688,0.3102,0.3609,0.416,0.4733,0.5,0.5072,0.4915,0.4983,0.5091,0.5,0.5052,0.5122,0.5124,0.5292,0.5457,0.5412,0.5578,0.5728,0.5728,0.6256,0.6829,0.7269,0.8259,0.9047,0.9183,0.8636,0.8164,0.804,0.8016,0.7941,0.7729,0.77,0.77,0.77,0.77,0.8143,0.9195,0.9527,1.0185,1.1292,1.1682,1.1822,1.1725,1.164,1.1773,1.2115,1.1767,1.2046,1.2904,1.2764,1.286,-1.8771,-1.9143,-1.9255,-2.0022,-2.0119,-2.0024,-2.0044,-1.9283,-1.8564,-1.8531,-1.7122,-1.588,0.0,0.0,-1.5135,-1.6627,-1.7055,-1.7675,-1.9037,-1.94,-1.9524,0.0,0.0,0.0,0.0,0.0,0.0,-1.9249,0.0,-2.1261,-2.0481,-2.2045,-2.2996,-2.3067,-2.3858,-2.4229,-2.4116,-2.3346,-2.239,-2.1258,-2.2844,-2.3066,-2.1996,-1.8901,-1.7521,-1.7343,-1.3635,-0.9325,-0.4984,-0.553,-0.2983,0.1288,0.1567,0.1482,0.1298,0.2191,0.2436,0.2302,0.2128,0.2108,0.2331,0.3367,0.3675,0.3825,0.4836,0.5215,0.5287,0.5094,0.5178,0.5328,0.5328,0.5181,0.5103,0.5403,0.5447,0.5447,0.5555,0.5696,0.5796,0.5796,0.6283,0.6859,0.7382,0.832,0.9129,0.9543,0.8936,0.8268,0.7803,0.771,0.77,0.77,0.77,0.77,0.77,0.7715,0.8109,0.8978,0.9782,1.0652,1.1585,1.246,1.2702,1.2315,1.2864,1.2657,1.1647,1.2663,1.2904,1.245,1.2954,1.3198,-1.9078,-1.9653,-2.0168,-2.0369,-2.0396,-2.0208,-1.9573,-1.8731,-1.7714,-1.6433,-1.5284,-1.4301,0.0,0.0,0.0,-1.6176,-1.6924,0.0,-1.9412,-1.969,0.0,-2.0545,0.0,-2.1221,-2.1894,-2.2757,0.0,0.0,-2.246,-2.2793,-2.2335,-2.33,-2.3888,-2.3888,-2.4063,-2.4155,-2.4173,-2.4017,-2.3684,-2.3195,-2.3469,-2.3507,-2.3298,-2.2182,-1.9931,-1.6856,-1.5666,-1.0449,-0.2835,-0.3541,-0.092,0.3424,0.2853,0.2571,0.2484,0.2769,0.2857,0.2835,0.2883,0.2837,0.2903,0.3737,0.4087,0.4369,0.5277,0.5569,0.5593,0.5528,0.555,0.5593,0.5593,0.555,0.5447,0.5191,0.5415,0.5605,0.523,0.5538,0.5869,0.5815,0.6283,0.7096,0.8379,0.8826,0.9138,0.9531,0.9162,0.8691,0.8282,0.7915,0.77,0.77,0.77,0.77,0.77,0.8022,0.8578,0.9396,1.0193,1.1068,1.2013,1.2595,1.2702,1.2315,1.2499,1.2469,1.2203,1.2469,1.2739,1.2991,1.3135,1.3198,-1.9713,-2.0167,-2.054,-2.0511,-2.0214,-1.9703,-1.8828,-1.7663,-1.6382,-1.5048,-1.4083,0.0,0.0,0.0,0.0,0.0,0.0,0.0,-1.9228,-1.9729,-2.0274,0.0,-2.1509,0.0,-2.3036,-2.3901,-2.4195,0.0,-2.3948,-2.3884,-2.3339,-2.4106,-2.4556,-2.455,-2.449,-2.4424,-2.4374,-2.4275,-2.4078,-2.381,-2.3582,-2.3454,-2.3399,-2.3142,-2.1769,-1.9572,0.0,-1.3671,-0.4911,-0.5089,-0.1323,0.4508,0.403,0.3557,0.3162,0.3237,0.3281,0.3322,0.3391,0.3367,0.3388,0.3935,0.4238,0.4541,0.5294,0.5672,0.5806,0.5723,0.5766,0.5831,0.5831,0.5681,0.5487,0.5314,0.5475,0.5589,0.5275,0.5595,0.5985,0.6092,0.6502,0.7252,0.8598,0.8802,0.8961,0.9521,0.9099,0.8664,0.8424,0.7983,0.77,0.77,0.77,0.7788,0.7983,0.8253,0.8668,0.929,1.0252,1.1065,1.1651,1.2465,1.2591,1.1917,1.2452,1.2519,1.2052,1.2519,1.2914,1.3198,1.3198,1.3198,-2.0391,-2.0596,-2.0586,-2.0531,-1.9864,-1.8951,-1.7973,-1.6482,-1.5016,-1.3979,0.0,-1.2589,-1.2487,-1.3131,-1.3987,-1.4977,0.0,-1.7812,-1.8792,-1.9577,-2.0437,-2.1485,-2.2274,-2.3158,-2.4266,-2.5003,-2.5359,-2.524,-2.5057,-2.4639,-2.3904,-2.4582,-2.4984,-2.4986,-2.4941,-2.4813,-2.4623,-2.4311,-2.4031,-2.3775,-2.347,-2.3211,-2.2981,-2.2898,-2.3011,-2.3289,-2.2846,-1.7654,-0.9466,-0.8934,-0.3661,0.4088,0.4123,0.3968,0.3691,0.3732,0.377,0.3831,0.3765,0.3744,0.381,0.4134,0.4349,0.4609,0.5262,0.5728,0.6022,0.5849,0.5936,0.6056,0.6021,0.5719,0.5427,0.5522,0.5517,0.5506,0.5481,0.5764,0.6093,0.6431,0.6734,0.7252,0.8296,0.8458,0.8686,0.9383,0.8877,0.8421,0.8421,0.7998,0.77,0.77,0.77,0.789,0.836,0.846,0.8675,0.908,1.0261,1.0991,1.1118,1.2276,1.2454,1.1445,1.2595,1.2676,1.1603,1.2682,1.3198,1.3198,1.3198,1.3198,-2.0557,-2.0596,-2.0596,-2.0586,-1.9931,-1.8867,-1.7274,-1.6121,0.0,0.0,-1.1871,-1.1516,-1.0863,-1.139,-1.2452,-1.4047,0.0,0.0,0.0,0.0,-2.0125,0.0,0.0,0.0,0.0,0.0,0.0,0.0,-2.5332,-2.5129,-2.4707,-2.4846,-2.4922,-2.4925,-2.4964,-2.4891,-2.4675,-2.452,-2.4356,-2.4192,-2.3694,-2.3475,-2.3464,-2.3182,-2.3172,-2.3369,-2.3123,0.0,-1.4176,-1.3692,-0.8264,-0.0196,0.0147,0.2092,0.4703,0.4497,0.4511,0.4559,0.417,0.404,0.4126,0.4731,0.4947,0.514,0.6026,0.6316,0.6325,0.6355,0.6395,0.6368,0.6148,0.6013,0.5848,0.539,0.5394,0.5482,0.5426,0.5731,0.6093,0.6431,0.6544,0.6844,0.7631,0.7989,0.8339,0.8864,0.8682,0.8501,0.8554,0.8064,0.77,0.77,0.77,0.789,0.836,0.88,0.9236,0.9627,1.0906,1.1658,1.1748,1.2584,1.2585,1.1585,1.2634,1.2676,1.1603,1.2682,1.3198,1.3198,1.3198,1.3198,-2.0417,-2.055,-2.0554,-2.0554,-1.9548,-1.8112,-1.6375,0.0,0.0,0.0,-1.0848,-1.0722,-1.0361,0.0,0.0,0.0,0.0,0.0,0.0,0.0,0.0,0.0,0.0,0.0,0.0,0.0,0.0,-2.5507,-2.5473,-2.5371,-2.5174,-2.513,-2.5091,-2.5062,-2.5054,-2.4986,-2.4863,-2.4583,-2.4426,-2.4356,-2.3811,-2.3509,-2.3443,-2.3283,-2.3241,-2.3289,-2.3123,-2.0055,-1.5142,-1.4469,-0.8754,-0.0451,-0.0222,0.2335,0.5805,0.5198,0.5116,0.5231,0.4672,0.4517,0.4668,0.5272,0.5356,0.5332,0.602,0.6398,0.6563,0.6599,0.6507,0.636,0.6231,0.5964,0.5661,0.5364,0.5511,0.573,0.5853,0.6071,0.6308,0.6462,0.6579,0.6822,0.7352,0.7662,0.7977,0.8378,0.8291,0.8204,0.8229,0.7975,0.7783,0.7759,0.7749,0.7925,0.8371,0.8897,0.938,0.9772,1.087,1.1603,1.1891,1.2467,1.2534,1.2033,1.2801,1.2814,1.2015,1.2803,1.3198,1.3198,1.3198,1.3198,-2.0041,-2.036,-2.0461,-2.0266,-1.9054,-1.7403,-1.5482,-1.3883,0.0,0.0,-1.0197,-1.0218,-1.0271,0.0,0.0,0.0,0.0,0.0,0.0,0.0,0.0,0.0,0.0,0.0,0.0,0.0,0.0,-2.5601,-2.5537,-2.5466,-2.5396,-2.5356,-2.5288,-2.5222,-2.5164,-2.5088,-2.5022,-2.4653,-2.4458,-2.4442,-2.3953,-2.3615,-2.3409,-2.336,-2.3301,-2.3217,-2.3132,-2.0642,-1.6586,-1.5666,-0.9805,-0.1362,-0.0983,0.2287,0.6709,0.594,0.5763,0.5857,0.5215,0.5036,0.5202,0.5768,0.5701,0.5483,0.6036,0.6438,0.6699,0.6681,0.6533,0.6343,0.6198,0.5822,0.5438,0.5343,0.5613,0.5952,0.6164,0.6403,0.6555,0.6555,0.6697,0.6889,0.7152,0.7412,0.7666,0.7932,0.795,0.7946,0.7961,0.7946,0.7922,0.7875,0.7841,0.799,0.8414,0.8941,0.9414,0.9836,1.0838,1.1566,1.1933,1.2395,1.2559,1.2406,1.2939,1.2946,1.2394,1.2946,1.3198,1.3198,1.3198,1.3198,-1.9296,-1.9897,-2.0315,-1.9516,-1.8604,-1.7254,-1.4765,0.0,0.0,-1.0561,-1.02,-1.0198,-1.0213,-1.0271,-1.061,0.0,0.0,-1.3828,0.0,0.0,0.0,0.0,0.0,0.0,0.0,0.0,0.0,-2.5603,-2.5537,-2.547,-2.5397,-2.5385,-2.536,-2.5287,-2.5227,-2.5157,-2.5091,-2.4809,-2.4639,-2.4581,-2.4275,-2.4009,-2.3742,-2.3569,-2.3415,-2.3289,-2.3336,-2.284,0.0,-2.0845,-1.5068,-0.6746,-0.5392,0.0054,0.7123,0.686,0.6611,0.6352,0.5804,0.5542,0.5556,0.6221,0.6077,0.5822,0.6662,0.6802,0.6679,0.663,0.659,0.6447,0.5896,0.5717,0.556,0.5138,0.5474,0.5901,0.5932,0.6379,0.6766,0.6766,0.6791,0.6817,0.6848,0.7218,0.7512,0.7557,0.7856,0.8097,0.8158,0.812,0.8073,0.8073,0.7956,0.8078,0.8545,0.908,0.9576,1.0036,1.13,1.2035,1.2071,1.2762,1.2907,1.2406,1.2939,1.2946,1.2394,1.2946,1.3198,1.3198,1.3198,1.3198,-1.8908,-1.9423,-1.9566,-1.9231,-1.8445,-1.7122,-1.4614,0.0,-1.1532,-1.0431,-0.9784,-0.9582,-1.0104,-1.0203,-1.0487,-1.1356,-1.1353,-1.233,-1.5485,0.0,0.0,0.0,0.0,0.0,0.0,0.0,-2.5686,-2.5665,-2.56,-2.5554,-2.5521,-2.5478,-2.543,-2.5355,-2.5258,-2.5189,-2.5157,-2.4854,-2.4696,-2.4656,-2.4392,-2.4135,-2.3911,-2.3593,-2.3394,-2.3289,-2.3074,-2.2624,0.0,-2.1106,-1.5218,-0.6644,-0.5449,0.0175,0.7625,0.7676,0.7405,0.6968,0.6477,0.6184,0.6126,0.6626,0.6629,0.6498,0.6936,0.6949,0.6774,0.6544,0.6366,0.6192,0.5951,0.5881,0.5786,0.5396,0.5921,0.6443,0.6241,0.6585,0.6925,0.6925,0.6863,0.6884,0.7124,0.7611,0.7973,0.7933,0.8329,0.8542,0.8289,0.8206,0.8154,0.8154,0.8077,0.8061,0.8173,0.8938,0.9482,0.9659,1.0755,1.1588,1.2077,1.2377,1.2647,1.2879,1.3085,1.3091,1.2889,1.3091,1.3198,1.3198,1.3198,1.3198,-1.7675,-1.836,-1.8658,-1.8424,-1.7636,-1.6343,0.0,-1.2157,-1.0645,-0.9908,-0.9267,-0.9026,-0.9642,-0.9988,-1.0367,-1.0986,-1.1017,-1.1913,-1.4612,-1.49,0.0,0.0,0.0,0.0,0.0,-2.5547,-2.5702,-2.5699,-2.5661,-2.5624,-2.5596,-2.5563,-2.5502,-2.5434,-2.5303,-2.5222,-2.5202,-2.4948,-2.4792,-2.4725,-2.4477,-2.4266,-2.4098,-2.3676,-2.3325,-2.3049,-2.2714,-2.2069,0.0,-2.0506,-1.5445,-0.7851,-0.5486,-0.0171,0.6312,0.7802,0.8021,0.7513,0.707,0.6738,0.6623,0.7052,0.7058,0.6912,0.7077,0.7064,0.6902,0.6458,0.6124,0.5912,0.5912,0.5952,0.5944,0.5695,0.631,0.6861,0.6626,0.6882,0.7145,0.7116,0.7044,0.705,0.7305,0.7905,0.8295,0.8107,0.8735,0.9019,0.8401,0.8397,0.839,0.8269,0.8178,0.8092,0.7994,0.8873,0.9422,0.9422,1.0469,1.1389,1.2071,1.2198,1.2544,1.3181,1.3198,1.3198,1.3198,1.3198,1.3198,1.3198,1.3198,1.3309,-1.5236,-1.6505,-1.7618,-1.6817,-1.5872,-1.4689,0.0,-1.1261,-0.977,-0.889,-0.8708,-0.8708,-0.8717,-0.9474,-1.0096,-1.0106,-1.161,-1.3061,-1.3897,-1.5486,0.0,0.0,0.0,0.0,0.0,-2.5195,-2.5702,-2.5699,-2.5697,0.0,-2.5597,-2.5596,-2.5569,-2.5499,-2.5368,-2.5269,-2.5202,-2.5128,-2.4997,-2.4798,-2.459,-2.4468,-2.4376,-2.3909,-2.3265,-2.2502,-2.2357,-2.1586,0.0,-1.9826,-1.6807,-1.1973,-0.639,-0.1675,0.2518,0.7026,0.839,0.7938,0.7534,0.7164,0.6977,0.7527,0.7286,0.6845,0.7117,0.7198,0.7055,0.6386,0.5958,0.5696,0.5696,0.5854,0.5994,0.599,0.6504,0.6998,0.6998,0.7254,0.7475,0.7415,0.7401,0.7351,0.722,0.7929,0.8337,0.7866,0.8932,0.9457,0.8519,0.8749,0.8839,0.8436,0.8276,0.8201,0.8201,0.9004,0.9493,0.9493,1.0753,1.1682,1.2071,1.2431,1.2791,1.3181,1.3198,1.3198,1.3198,1.3198,1.3198,1.3198,1.3198,1.3521,-1.4094,-1.4653,-1.5004,-1.4752,-1.4408,-1.3699,-1.2029,-1.0289,-0.8973,-0.8748,-0.8223,-0.7994,-0.8587,-0.9429,-1.0211,-1.0759,-1.1407,0.0,0.0,0.0,0.0,0.0,0.0,0.0,0.0,0.0,-2.5703,-2.5702,-2.5704,-2.5695,-2.5669,-2.5668,-2.5621,-2.5496,-2.541,-2.5335,-2.5269,-2.5162,-2.5072,-2.4994,-2.4659,-2.451,-2.452,-2.3952,-2.3206,-2.2343,-2.2125,-2.1037,-1.9426,-1.9316,-1.6301,-1.1252,-0.5882,-0.1424,0.2557,0.7454,0.8857,0.8333,0.8193,0.7925,0.7694,0.7952,0.7881,0.7631,0.736,0.7017,0.6618,0.6127,0.5919,0.5826,0.5772,0.5986,0.6199,0.6199,0.6654,0.7075,0.7075,0.7299,0.749,0.748,0.7465,0.755,0.7772,0.857,0.9111,0.8921,0.9766,1.0186,0.9573,0.9243,0.8996,0.8833,0.8808,0.8793,0.8758,0.9217,0.9632,0.9963,1.0941,1.1682,1.2071,1.2425,1.2785,1.3181,1.3198,1.3198,1.3198,1.3198,1.3198,1.3198,1.3198,1.3521,0.0,-1.3061,-1.3309,-1.3306,-1.3009,-1.2369,-1.1023,-0.9361,-0.8038,-0.7775,-0.7533,-0.7526,-0.8074,-0.9151,-1.0131,-1.0631,-1.1348,-1.2223,0.0,0.0,0.0,0.0,0.0,0.0,0.0,-2.5443,-2.5673,-2.5703,-2.5697,-2.5698,-2.57,-2.5702,-2.566,-2.5578,-2.5489,-2.5393,-2.5297,-2.5191,-2.5126,-2.5105,-2.477,-2.4611,-2.4567,-2.3776,-2.2858,-2.1898,-2.1402,-2.0219,0.0,-1.8761,-1.6838,-1.3165,-0.6257,-0.222,0.051,0.7224,0.9359,0.8894,0.8744,0.8553,0.8407,0.8529,0.835,0.795,0.7309,0.6807,0.6409,0.6152,0.6017,0.5924,0.5889,0.6199,0.6525,0.6525,0.693,0.7323,0.7323,0.7456,0.7573,0.7539,0.7539,0.761,0.7837,0.8846,0.9514,0.9213,1.0123,1.0644,1.0108,0.968,0.9429,0.9419,0.9382,0.9435,0.9584,0.9742,0.9965,1.0256,1.1045,1.1682,1.2071,1.2425,1.2785,1.3181,1.3198,1.3198,1.3198,1.3198,1.3198,1.3198,1.3198,1.364,0.0,-1.1512,-1.2119,-1.2131,-1.1519,-1.0696,-0.9903,-0.8509,0.0,-0.6355,-0.6828,-0.7413,-0.7469,-0.88,-0.996,-1.0129,-1.1521,0.0,0.0,0.0,0.0,0.0,0.0,0.0,-2.422,-2.5094,-2.5634,-2.5693,-2.5698,-2.57,-2.5702,-2.57,-2.5705,-2.5698,-2.5566,-2.5453,-2.5315,-2.5244,-2.5168,-2.5103,-2.4887,-2.4728,-2.4561,-2.3426,-2.2318,0.0,-2.0384,-1.9278,-1.8093,-1.8237,-1.8144,-1.6928,-0.7267,-0.3746,-0.2939,0.6513,0.9843,0.9564,0.9188,0.9063,0.9077,0.9147,0.8649,0.7843,0.7073,0.6643,0.6428,0.6402,0.6218,0.6025,0.601,0.644,0.6885,0.69,0.7308,0.7695,0.771,0.771,0.7691,0.7632,0.7603,0.7593,0.7529,0.8766,0.9541,0.8916,1.0108,1.0844,1.0234,1.0081,1.0043,1.0135,0.9988,1.0065,1.0573,1.048,1.0423,1.0454,1.114,1.1719,1.2071,1.2443,1.282,1.3198,1.3198,1.3198,1.3198,1.3198,1.3198,1.3198,1.3235,1.386,-0.7968,0.0,-0.8454,-0.8506,-0.8817,-0.8898,0.0,-0.8109,-0.805,0.0,0.0,-0.8486,-0.9095,-0.9591,-1.0497,-1.235,-1.2537,-1.3147,0.0,0.0,0.0,0.0,0.0,-2.3339,-2.4219,-2.5095,-2.5609,-2.5624,-2.5673,-2.57,-2.5699,-2.5701,-2.5697,-2.5703,-2.5617,-2.5536,-2.5454,-2.5283,-2.5191,-2.5164,-2.4865,-2.4681,-2.4561,-2.3529,-2.2374,-2.1184,-2.0516,-1.9331,-1.7889,-1.8185,-1.8112,-1.6876,-0.7253,-0.369,-0.2814,0.6546,0.9956,0.9873,0.9675,0.9675,0.9667,0.9082,0.8481,0.7883,0.7284,0.6915,0.6662,0.6452,0.6352,0.6264,0.6052,0.6287,0.6654,0.6917,0.7269,0.7598,0.7807,0.7812,0.7768,0.7749,0.7715,0.7666,0.7652,0.8552,0.9207,0.905,0.9952,1.0685,1.0776,1.046,1.0305,1.0548,1.0558,1.0601,1.0668,1.0556,1.0608,1.0922,1.1632,1.2042,1.2089,1.2726,1.3099,1.3198,1.3198,1.3198,1.3198,1.3198,1.3198,1.321,1.3677,1.4255,-0.6007,-0.7105,-0.8262,-0.8298,-0.8917,-0.9291,-0.8456,0.0,0.0,0.0,0.0,0.0,-0.964,-1.0127,-1.108,-1.3165,-1.353,0.0,0.0,0.0,0.0,0.0,0.0,-2.3471,0.0,-2.5321,-2.5599,-2.56,-2.5659,-2.5703,-2.5699,-2.5704,-2.57,-2.5697,-2.5629,-2.5571,-2.5501,-2.5302,-2.5202,-2.5197,-2.4951,-2.4583,-2.4103,-2.3046,-2.1895,-2.0695,-1.9939,-1.8974,-1.7954,-1.8198,-1.8156,-1.6981,-0.7281,-0.365,-0.2721,0.6709,1.0278,1.038,1.0113,0.9988,0.9789,0.9114,0.8524,0.8004,0.7494,0.7219,0.7023,0.6751,0.6569,0.641,0.6272,0.6506,0.682,0.6996,0.7368,0.772,0.7864,0.7869,0.7845,0.7845,0.7821,0.7788,0.7749,0.8603,0.9236,0.9126,0.9802,1.0524,1.107,1.0736,1.0631,1.1149,1.1238,1.1208,1.1081,1.1003,1.1043,1.1223,1.1906,1.2252,1.2156,1.2913,1.3329,1.3295,1.3232,1.3198,1.3198,1.3198,1.3198,1.321,1.3815,1.4381,-0.4914,-0.7184,-0.9403,-0.9052,-0.9752,-1.0259,-0.9289,0.0,0.0,0.0,0.0,0.0,0.0,0.0,0.0,0.0,0.0,0.0,0.0,0.0,0.0,0.0,-2.2756,0.0,-2.5054,-2.544,-2.5603,-2.56,-2.5653,-2.5693,-2.5703,-2.5697,-2.5702,-2.5699,-2.5634,-2.5569,-2.5522,-2.532,-2.5208,-2.5202,-2.4955,-2.4405,-2.3554,-2.2307,-2.1181,-2.0146,0.0,0.0,-1.8067,-1.823,-1.8201,-1.7144,-0.8087,-0.4252,-0.2719,0.6174,1.0087,1.0897,1.0563,1.0247,0.9871,0.9247,0.8712,0.8218,0.7672,0.7465,0.7351,0.712,0.6831,0.6567,0.6555,0.6855,0.718,0.718,0.7583,0.797,0.797,0.7956,0.7946,0.7932,0.7912,0.7884,0.7821,0.8692,0.9316,0.9074,0.9607,1.0303,1.1112,1.0887,1.0942,1.1764,1.1816,1.173,1.1554,1.1522,1.1504,1.1515,1.207,1.2419,1.2401,1.3109,1.3469,1.3425,1.3295,1.3232,1.3232,1.3215,1.3242,1.3353,1.3941,1.4507,-0.6329,-0.8039,-0.8947,-0.7021,-0.8125,-0.9306,-0.7867,0.0,0.0,0.0,0.0,0.0,0.0,0.0,0.0,0.0,0.0,0.0,0.0,0.0,-2.0367,-2.0825,0.0,-2.309,-2.3367,-2.4726,-2.5595,-2.5598,-2.5609,-2.5639,-2.5703,-2.5697,-2.57,-2.5704,-2.563,-2.56,-2.5578,-2.5395,-2.5255,-2.5192,-2.4428,-2.3903,-2.3542,-2.1831,-2.0745,-2.0155,0.0,-1.8585,-1.7861,-1.8177,-1.8114,-1.728,-1.1573,-0.7073,-0.3076,0.2942,0.7705,1.1161,1.1151,1.0958,1.0565,0.9583,0.9085,0.8717,0.7844,0.75,0.7386,0.7351,0.714,0.6902,0.6777,0.714,0.753,0.753,0.7927,0.8312,0.8251,0.8196,0.8144,0.8082,0.7971,0.7893,0.7879,0.8444,0.8878,0.8777,0.9288,0.9963,1.0773,1.0815,1.1101,1.1962,1.1902,1.1798,1.1761,1.1599,1.1641,1.1974,1.2294,1.2732,1.3269,1.3429,1.3503,1.3486,1.3408,1.3374,1.3374,1.326,1.3453,1.3978,1.4525,1.506,-0.5536,-0.7191,-0.8475,-0.7533,-0.9393,-1.1257,-1.0549,0.0,0.0,0.0,0.0,0.0,0.0,0.0,0.0,0.0,0.0,-1.944,-1.9525,-1.9977,-2.0492,0.0,0.0,-2.2481,-2.295,-2.3717,-2.4197,-2.4202,-2.4227,-2.4262,-2.4293,-2.4736,-2.4997,-2.4998,-2.542,-2.564,-2.5597,-2.5467,-2.5336,-2.5192,-2.4279,-2.3553,-2.2959,-2.1542,-2.0497,-1.9738,0.0,-1.8743,-1.8328,-1.8225,-1.8161,-1.761,-1.2415,-0.9181,-0.6463,0.1456,0.7324,1.1367,1.1399,1.1034,1.0448,0.962,0.9071,0.86,0.7915,0.7608,0.75,0.7465,0.7239,0.6987,0.6925,0.7249,0.7598,0.7598,0.8013,0.8388,0.8365,0.8299,0.8244,0.8215,0.8134,0.8048,0.8019,0.8481,0.8825,0.8767,0.9482,1.0272,1.0938,1.1244,1.1626,1.22,1.2186,1.2035,1.1816,1.1712,1.1859,1.2336,1.2656,1.3088,1.3634,1.356,1.352,1.3547,1.3486,1.3435,1.3408,1.3346,1.341,1.3634,1.4532,1.508,-0.508,-0.6638,-0.828,-0.8827,0.0,-1.2595,-1.2824,0.0,0.0,0.0,0.0,0.0,0.0,0.0,0.0,0.0,-1.9582,-2.0026,-2.0134,-2.0184,-2.0504,-2.1252,-2.1552,-2.1956,-2.2627,-2.2884,-2.3001,-2.3001,-2.3061,-2.3097,-2.3097,-2.3725,-2.4101,-2.4101,-2.4742,-2.5074,-2.5021,-2.4946,-2.4917,-2.4905,-2.3979,-2.3077,-2.2184,-2.1107,-2.0173,-1.9376,-1.9045,-1.8807,-1.8612,-1.8243,-1.8117,-1.7725,-1.3615,-1.0568,-0.743,0.1343,0.7607,1.17,1.1621,1.1041,1.0249,0.9655,0.906,0.8458,0.797,0.7734,0.7622,0.7622,0.7422,0.7206,0.7147,0.7403,0.7686,0.7744,0.8118,0.8444,0.8421,0.8384,0.8347,0.8328,0.8262,0.823,0.8235,0.8626,0.8934,0.894,0.9793,1.0631,1.1143,1.1614,1.2062,1.2431,1.2431,1.2282,1.1999,1.1944,1.2174,1.2737,1.2989,1.3335,1.3788,1.3651,1.3588,1.3644,1.3571,1.3503,1.3452,1.3425,1.3427,1.3463,1.455,1.512,-0.6499,-0.7588,-0.8663,-1.0238,0.0,0.0,-1.1966,-1.2179,0.0,0.0,0.0,0.0,0.0,0.0,0.0,-1.9437,-1.9884,-2.0074,-2.0261,0.0,-2.0357,-2.0558,-2.1243,-2.1721,-2.1791,-2.2532,-2.3001,-2.3001,-2.3061,-2.3097,-2.3097,-2.3159,-2.3193,-2.3193,-2.3245,-2.3283,-2.3281,-2.3213,-2.3481,-2.4081,-2.3199,-2.2287,-2.1356,-2.0277,-1.9652,-1.9387,-1.9055,-1.8606,-1.8151,-1.8108,-1.7828,-1.7343,-1.6946,-1.0952,-0.1934,0.2975,0.7986,1.2294,1.1987,1.1263,1.0406,0.9855,0.9227,0.8593,0.8058,0.7797,0.7734,0.7917,0.7902,0.7792,0.7613,0.771,0.7941,0.8186,0.8426,0.8567,0.8508,0.8493,0.8465,0.8402,0.8336,0.837,0.8612,0.8841,0.9079,0.9322,1.0063,1.0735,1.1159,1.1662,1.2163,1.2637,1.2502,1.2401,1.2455,1.2383,1.2603,1.321,1.3216,1.3378,1.3781,1.3788,1.3781,1.3788,1.3661,1.3598,1.3598,1.352,1.3704,1.4143,1.4859,1.5427,-0.5372,-0.6894,-0.8559,-0.9662,0.0,0.0,0.0,0.0,0.0,0.0,0.0,0.0,0.0,0.0,-1.8606,-1.974,-2.0001,-2.0102,-2.0217,-2.0266,-2.0331,-2.0424,-2.0738,-2.0944,-2.0944,-2.1248,-2.1452,-2.1452,-2.1473,-2.1476,-2.1476,-2.1997,-2.2289,-2.2289,-2.2822,-2.31,-2.3099,-2.307,-2.2879,-2.2498,-2.213,-2.1751,-2.1331,-2.0342,-1.9704,-1.938,-1.9095,-1.8708,-1.8246,-1.7835,-1.7584,-1.7467,-1.7203,-1.0878,-0.1673,0.0197,0.5909,1.2668,1.2419,1.1916,1.1211,1.0254,0.9751,0.9377,0.8725,0.8428,0.8331,0.8361,0.8319,0.8245,0.8127,0.8179,0.8301,0.8391,0.8519,0.86,0.8572,0.8536,0.8499,0.846,0.8505,0.8584,0.8676,0.9046,0.9343,0.9449,1.0112,1.0778,1.1262,1.172,1.2196,1.2713,1.2538,1.2478,1.2674,1.2514,1.2662,1.3261,1.3233,1.3372,1.3781,1.3804,1.3804,1.3804,1.3758,1.3678,1.3598,1.3564,1.3623,1.3791,1.4842,1.5415,-0.5008,-0.6606,-0.846,0.0,0.0,0.0,0.0,0.0,0.0,0.0,0.0,0.0,0.0,0.0,0.0,0.0,-2.0055,-2.0121,-2.0189,-2.0261,-2.0314,-2.0394,-2.0465,-2.0498,-2.0498,-2.0498,-2.0498,-2.0498,-2.0498,-2.0498,-2.0498,-2.1076,-2.139,-2.139,-2.1967,-2.2284,-2.2283,-2.2279,-2.193,-2.1253,-2.1183,-2.1118,-2.1031,-2.0321,-1.983,-1.9509,-1.9149,-1.8816,-1.8446,-1.7796,-1.7476,-1.7205,-1.5193,-0.925,-0.1585,0.0251,0.6056,1.2977,1.2864,1.2316,1.1497,1.0607,1.0062,0.9647,0.9069,0.8838,0.8761,0.8789,0.8753,0.8726,0.8737,0.8662,0.8587,0.8662,0.8681,0.8659,0.8659,0.86,0.8536,0.8536,0.8654,0.8795,0.8875,0.9255,0.9547,0.962,1.0362,1.1034,1.1356,1.1947,1.247,1.2766,1.2627,1.2644,1.2989,1.2726,1.282,1.3545,1.3353,1.3406,1.3781,1.3804,1.3804,1.3804,1.3804,1.3758,1.3661,1.3661,1.3718,1.3839,1.4926,1.5516,-0.5897,-0.7028,-0.8438,0.0,0.0,0.0,0.0,0.0,0.0,0.0,0.0,-1.8681,-1.9877,0.0,0.0,-1.9845,-2.0064,-2.0121,-2.0193,-2.0261,-2.0324,-2.0394,-2.0456,-2.0498,-2.0498,-2.0498,-2.0498,-2.0498,-2.0498,-2.0498,-2.0498,-2.0496,-2.0498,-2.0498,-2.0499,-2.0504,-2.0504,-2.0498,-2.0505,-2.0496,-2.0431,-2.0373,-2.0289,-2.0088,-1.9934,-1.9766,-1.923,-1.8894,-1.8654,-1.8033,-1.7476,-1.6444,-1.0949,-0.5845,-0.0967,0.4278,0.9178,1.3216,1.3285,1.234,1.1087,1.0862,1.0079,0.917,0.8967,0.8909,0.8948,0.9145,0.9197,0.9257,0.9451,0.9104,0.8778,0.904,0.8949,0.8803,0.8803,0.8695,0.8595,0.8595,0.8767,0.8983,0.9261,0.9466,0.9677,0.9873,1.088,1.1545,1.1412,1.2395,1.3025,1.282,1.2739,1.2914,1.3452,1.3076,1.319,1.4131,1.3635,1.3467,1.3788,1.3804,1.3804,1.3804,1.3804,1.3804,1.3804,1.3811,1.4054,1.4521,1.5195,1.5749,-0.5827,-0.7507,0.0,0.0,0.0,0.0,0.0,0.0,0.0,0.0,0.0,-1.956,-2.0017,0.0,0.0,-1.9976,-2.0064,-2.0139,-2.0248,-2.0287,-2.0337,-2.0463,-2.049,-2.0498,-2.0498,-2.0498,-2.0498,-2.0498,-2.0498,-2.0498,-2.0498,-2.0504,-2.0479,-2.0426,-2.048,-2.0501,-2.0501,-2.0554,-2.0566,-2.0565,-2.0504,-2.0439,-2.0367,-2.0256,-2.0027,-1.9709,-1.9266,-1.8881,-1.8488,-1.7554,-1.6989,-1.619,-1.087,-0.5713,-0.0603,0.4682,0.975,1.3964,1.3894,1.3078,1.1983,1.1416,1.0697,0.9984,0.9697,0.9575,0.9541,0.9546,0.9513,0.9485,0.9491,0.9378,0.9265,0.9245,0.9006,0.8803,0.8803,0.8695,0.8595,0.8595,0.8951,0.9276,0.9354,0.9653,1.0031,1.0474,1.0773,1.1224,1.1933,1.2659,1.3042,1.289,1.2803,1.2995,1.3514,1.3357,1.351,1.4154,1.3934,1.3845,1.3947,1.3851,1.3821,1.3864,1.3821,1.3804,1.3804,1.419,1.4424,1.4602,1.5631,1.6219,-0.6746,0.0,0.0,0.0,0.0,0.0,0.0,0.0,0.0,0.0,0.0,-1.9896,-2.0103,-2.0126,0.0,-2.0045,-2.0074,-2.0135,-2.0211,-2.0265,-2.0327,-2.0406,-2.047,-2.0498,-2.0498,-2.0498,-2.0498,-2.0498,-2.0498,-2.0498,-2.0498,-2.0498,-2.0473,-2.0398,-2.047,-2.0496,-2.0496,-2.0539,-2.0566,-2.0596,-2.0533,-2.0485,-2.0476,-2.0382,-2.0164,-1.983,-1.9239,-1.869,-1.8151,-1.7242,-1.6744,-1.5843,-0.8541,-0.3707,0.0044,0.721,1.178,1.4335,1.4074,1.3382,1.2493,1.1737,1.1023,1.0427,1.018,0.9983,0.9828,0.9756,0.9684,0.9631,0.9551,0.9517,0.9478,0.9399,0.918,0.8978,0.8929,0.8792,0.8695,0.8781,0.9153,0.9462,0.9547,0.9828,1.0212,1.0716,1.1133,1.1695,1.2541,1.2919,1.3066,1.2984,1.2873,1.3024,1.3547,1.3503,1.3678,1.4219,1.4134,1.4095,1.4127,1.3954,1.3891,1.3898,1.3864,1.3926,1.4125,1.4435,1.4858,1.5323,1.6049,1.6506,-0.8123,0.0,0.0,0.0,0.0,0.0,0.0,0.0,0.0,0.0,0.0,-1.9815,-2.0144,-2.0102,-2.0041,-2.0098,-2.0103,-2.0103,-2.0112,-2.0223,-2.0297,-2.0314,-2.0421,-2.0498,-2.0498,-2.0498,-2.0498,-2.0498,-2.0498,-2.0498,-2.0498,-2.0488,-2.0464,-2.0395,-2.0474,-2.0503,-2.0495,-2.0514,-2.0545,-2.0596,-2.0532,-2.0535,-2.0603,-2.0447,-2.0265,-1.9993,-1.919,-1.8443,-1.7738,-1.7093,-1.6674,-1.543,-0.5012,-0.0708,0.085,1.0861,1.4555,1.4497,1.401,1.3388,1.2698,1.1896,1.1193,1.0608,1.0446,1.0185,0.9925,0.9828,0.9743,0.969,0.9611,0.9551,0.9504,0.9504,0.9399,0.9272,0.9162,0.8962,0.888,0.9152,0.9399,0.9653,0.9919,1.0097,1.0347,1.0806,1.1788,1.2651,1.3135,1.3152,1.3118,1.3152,1.2955,1.3058,1.3615,1.3564,1.3738,1.4261,1.4235,1.4235,1.4293,1.4111,1.3973,1.3931,1.3914,1.4141,1.4616,1.4668,1.5265,1.6395,1.6447,1.6728,0.0,-0.9099,0.0,0.0,0.0,0.0,0.0,0.0,0.0,0.0,-1.9441,-1.9935,-2.016,-2.0179,-2.0158,-2.0178,-2.0126,-2.0116,-2.0168,-2.0254,-2.0321,-2.0369,-2.045,-2.0498,-2.0498,-2.0498,-2.0498,-2.0498,-2.0498,-2.0498,-2.0498,-2.0454,-2.0415,-2.0399,-2.0472,-2.0501,-2.05,-2.055,-2.0586,-2.0596,-2.0532,-2.0537,-2.0589,-2.0415,-2.004,-1.9535,-1.9297,-1.8628,-1.7696,-1.7229,-1.6692,-1.5157,-0.469,-0.0359,0.1201,1.1204,1.4989,1.5031,1.4414,1.3656,1.2854,1.22,1.1545,1.092,1.0513,1.0353,1.0223,0.9893,0.9743,0.969,0.9611,0.9551,0.9504,0.9504,0.9399,0.932,0.9402,0.9089,0.9039,0.9876,1.0095,1.0369,1.1096,1.103,1.1023,1.1443,1.2373,1.3066,1.3185,1.3181,1.3278,1.3531,1.3243,1.3346,1.4098,1.3805,1.3782,1.4261,1.4293,1.4277,1.4293,1.4111,1.4039,1.4131,1.398,1.4174,1.4765,1.5136,1.567,1.6402,1.6826,1.7088,0.0,0.0,0.0,0.0,0.0,0.0,0.0,0.0,0.0,-1.7388,-1.8498,-1.9535,-2.0097,-2.0201,-2.0189,-2.0159,-2.0122,-2.0107,-2.0152,-2.0242,-2.0308,-2.0354,-2.0442,-2.0498,-2.0498,-2.0498,-2.0498,-2.0498,-2.0498,-2.0498,-2.0498,-2.0473,-2.0434,-2.0403,-2.047,-2.0502,-2.0498,-2.0525,-2.0554,-2.0554,-2.0546,-2.055,-2.0546,-2.0376,-2.0018,-1.9535,-1.9267,-1.8645,-1.7748,-1.7193,-1.6541,-1.4875,-0.4536,-0.0179,0.1492,1.1402,1.4947,1.4739,1.4155,1.3433,1.2672,1.2084,1.163,1.1226,1.0914,1.0719,1.0558,1.0342,1.0211,1.0116,1.0008,0.986,0.9723,0.9664,0.9519,0.942,0.9533,0.9558,0.9771,1.0448,1.0763,1.1111,1.1693,1.1862,1.1944,1.2072,1.2775,1.326,1.3215,1.3198,1.3329,1.3659,1.3346,1.3442,1.4321,1.3908,1.3832,1.4369,1.4342,1.4293,1.4293,1.4199,1.4166,1.4203,1.4105,1.4449,1.5271,1.5454,1.6002,1.6881,1.7095,1.7199,0.0,0.0,0.0,0.0,0.0,0.0,0.0,0.0,0.0,-1.615,-1.7482,-1.8883,-1.9823,-1.999,-2.0021,-2.0097,-2.0122,-2.0107,-2.0103,-2.0219,-2.0297,-2.0297,-2.0421,-2.0498,-2.0498,-2.0498,-2.0498,-2.0498,-2.0498,-2.0498,-2.0498,-2.0485,-2.0456,-2.0403,-2.0453,-2.0484,-2.0481,-2.0491,-2.0501,-2.0502,-2.0565,-2.0552,-2.0467,-2.0206,-1.994,-1.9647,-1.9267,-1.8626,-1.7813,-1.7152,-1.6401,-1.4631,-0.4388,-0.0089,0.156,1.146,1.471,1.4112,1.3692,1.3107,1.2478,1.1952,1.1703,1.1553,1.1359,1.1111,1.0861,1.082,1.0699,1.0565,1.0424,1.0236,1.0021,0.988,0.9723,0.9649,0.9793,1.0147,1.0605,1.1154,1.1646,1.2021,1.2141,1.2591,1.2852,1.2583,1.3041,1.3357,1.325,1.326,1.3425,1.3765,1.3435,1.3581,1.4517,1.4026,1.3917,1.4508,1.4417,1.4335,1.4335,1.431,1.4261,1.4219,1.4219,1.4725,1.5815,1.5692,1.6243,1.7418,1.7309,1.724,0.0,0.0,0.0,0.0,0.0,0.0,0.0,0.0,0.0,0.0,-1.703,-1.8046,-1.8989,-1.9162,-1.9388,-2.0073,-2.0191,-2.0169,-2.0107,-2.0219,-2.0297,-2.0297,-2.0421,-2.0498,-2.0498,-2.0498,-2.0498,-2.0498,-2.0498,-2.0498,-2.0498,-2.0442,-2.0412,-2.0403,-2.0412,-2.0411,-2.0409,-2.0469,-2.0496,-2.0496,-2.0513,-2.0477,-2.0393,-1.9611,-1.9357,-1.9531,-1.9523,-1.8836,-1.77,-1.7371,-1.6517,-1.4414,-0.4029,-0.0072,0.1053,1.1319,1.4502,1.3664,1.3417,1.3084,1.2687,1.2269,1.2033,1.1848,1.1427,1.1267,1.1174,1.0873,1.0699,1.0565,1.0424,1.033,1.0235,1.0091,1.0046,1.0154,1.0624,1.0693,1.1067,1.2446,1.3141,1.335,1.286,1.3178,1.3333,1.2829,1.313,1.3391,1.3374,1.3537,1.3782,1.4173,1.3865,1.3977,1.486,1.4326,1.4185,1.4739,1.4585,1.4476,1.4476,1.436,1.4293,1.4293,1.4235,1.4765,1.5888,1.5815,1.6358,1.7488,1.7461,1.7433,-0.5555,-0.784,-1.0087,0.0,0.0,0.0,0.0,0.0,-1.5004,-1.5391,-1.5886,-1.6668,-1.8024,-1.8664,-1.9104,-1.9416,-1.9884,-2.0187,-2.0159,-2.0236,-2.0297,-2.0297,-2.0421,-2.0498,-2.0498,-2.0498,-2.0498,-2.0498,-2.0498,-2.0498,-2.0498,-2.0442,-2.04,-2.0403,-2.0402,-2.0398,-2.04,-2.0429,-2.046,-2.049,-1.9968,-1.9719,-1.9696,-1.8827,-1.8718,-1.9183,-1.8502,-1.7879,-1.7307,-1.6625,-1.5975,-1.4392,-0.4163,-0.0141,0.112,1.097,1.4085,1.3377,1.3405,1.2968,1.2382,1.2248,1.2107,1.1952,1.1714,1.1582,1.149,1.1294,1.1213,1.1127,1.0951,1.0992,1.1047,1.0925,1.1084,1.143,1.2005,1.1729,1.1771,1.3176,1.3638,1.3726,1.3451,1.3588,1.3607,1.3304,1.3399,1.3486,1.3408,1.3648,1.4076,1.4721,1.4654,1.5001,1.6137,1.5382,1.5023,1.545,1.4968,1.4617,1.4501,1.4445,1.4385,1.4293,1.4261,1.484,1.6018,1.5913,1.646,1.7618,1.7523,1.7482,-0.5874,-0.7623,-0.9067,-1.0352,0.0,0.0,0.0,0.0,-1.4648,0.0,-1.5061,-1.558,-1.6826,-1.7781,-1.842,-1.8567,-1.9145,-1.964,-1.9838,-1.994,-2.0069,-2.0278,-2.0421,-2.0498,-2.0498,-2.0498,-2.0498,-2.0498,-2.0498,-2.0498,-2.0498,-2.0442,-2.04,-2.0403,-2.0396,-2.0395,-2.0398,-2.0398,-2.031,-2.0142,-1.9429,-1.9015,-1.8842,-1.7968,-1.7857,-1.8323,-1.7542,-1.7061,-1.6747,-1.5833,-1.5219,-1.3884,-0.4002,0.0,0.1328,1.0628,1.3581,1.2977,1.3226,1.2822,1.2187,1.2251,1.2195,1.2057,1.2005,1.1851,1.1692,1.1619,1.1597,1.1589,1.1536,1.1649,1.1791,1.1817,1.206,1.2442,1.3022,1.2771,1.2714,1.3644,1.3804,1.3804,1.3804,1.3804,1.3764,1.3661,1.3698,1.3659,1.3469,1.3993,1.4613,1.5196,1.5449,1.6023,1.7113,1.6332,1.5953,1.6276,1.5704,1.5227,1.4887,1.4807,1.4708,1.4583,1.4557,1.5046,1.6093,1.6,1.6569,1.774,1.7659,1.7584,-0.4688,-0.5449,0.0,0.0,0.0,0.0,0.0,0.0,0.0,-1.4742,-1.5061,-1.5231,-1.5305,-1.6038,-1.6881,-1.7639,-1.7795,-1.8097,-1.8857,-1.9076,-1.9452,-2.0211,-2.0421,-2.0498,-2.0498,-2.0498,-2.0498,-2.0498,-2.0498,-2.0498,-2.0498,-2.0442,-2.04,-2.0403,-2.0396,-2.0401,-2.0395,-2.0395,-1.9992,-1.9166,-1.9121,-1.8701,-1.7942,-1.707,-1.6646,-1.6656,-1.7228,-1.6944,-1.6002,-1.5305,-1.4388,-1.2479,-0.3113,0.0523,0.1553,1.0384,1.305,1.2313,1.2699,1.2642,1.2393,1.2457,1.2386,1.2274,1.2197,1.1961,1.1692,1.1619,1.1597,1.1687,1.2062,1.2072,1.2109,1.2609,1.2615,1.2628,1.3177,1.3608,1.3884,1.3894,1.3838,1.3804,1.3804,1.3804,1.3804,1.3781,1.3947,1.396,1.3632,1.4834,1.5628,1.5407,1.6131,1.6781,1.7173,1.6857,1.6784,1.7122,1.6985,1.6596,1.5946,1.5616,1.5416,1.5332,1.522,1.5478,1.6093,1.6093,1.6703,1.7882,1.7875,1.7821,-0.4335,-0.5256,0.0,0.0,0.0,0.0,0.0,-1.2459,-1.3784,-1.4071,-1.4699,-1.5202,-1.5202,-1.5907,-1.6577,-1.683,-1.7344,-1.7796,-1.8029,-1.8142,-1.8522,-1.9359,-1.9555,-1.9837,-2.0437,-2.0498,-2.0498,-2.0498,-2.0498,-2.0257,-1.9696,-1.9636,-1.9372,-1.8814,-1.8747,-1.8734,-1.8732,-1.8729,-1.8567,-1.8258,-1.7743,-1.7342,-1.7037,-1.6159,-1.5752,-1.5735,-1.5855,-1.5791,-1.5516,-1.4292,-1.2219,-0.9159,-0.2367,0.1945,0.506,1.0927,1.2959,1.2793,1.2895,1.2868,1.2757,1.261,1.2469,1.2348,1.2279,1.206,1.1805,1.1641,1.1593,1.171,1.2195,1.2456,1.2774,1.3576,1.3709,1.3708,1.3902,1.3963,1.399,1.3908,1.3854,1.3804,1.3804,1.3804,1.3804,1.3804,1.4033,1.4226,1.4174,1.5248,1.6139,1.6518,1.726,1.7916,1.8383,1.7956,1.7715,1.7828,1.7388,1.6783,1.6029,1.6128,1.5951,1.5403,1.5646,1.6078,1.6681,1.6681,1.7095,1.7902,1.7902,1.7862,-0.418,0.0,0.0,0.0,0.0,0.0,0.0,0.0,-1.2696,-1.3562,-1.4281,-1.4853,-1.5154,-1.5673,-1.6048,-1.5994,-1.6483,-1.6942,-1.7172,-1.7249,-1.7623,-1.849,-1.8662,-1.9061,-1.9973,-2.0063,-2.0179,-2.0478,-2.0228,0.0,-1.9232,-1.8923,-1.8489,-1.789,-1.782,-1.7794,-1.7768,-1.7786,-1.7632,-1.7295,-1.6823,-1.6435,-1.6105,-1.5546,-1.5297,-1.5293,-1.5092,-1.5022,-1.4952,-1.35,-1.063,-0.6661,-0.1605,0.3041,0.7374,1.1289,1.2889,1.3095,1.3049,1.3059,1.3069,1.2864,1.271,1.258,1.2443,1.2238,1.2026,1.1768,1.1681,1.1804,1.2358,1.2849,1.3408,1.4184,1.4335,1.4293,1.4293,1.4189,1.4046,1.3944,1.3881,1.3864,1.3947,1.3864,1.3881,1.4105,1.4326,1.4585,1.4908,1.5919,1.6838,1.7443,1.8169,1.8779,1.9147,1.8757,1.8506,1.8506,1.8085,1.7511,1.6764,1.6933,1.6747,1.6114,1.6375,1.6777,1.7292,1.7095,1.7305,1.7902,1.7902,1.7902,0.0,0.0,0.0,0.0,0.0,0.0,-1.0115,0.0,-1.0675,-1.3173,-1.3757,-1.4091,-1.4971,-1.5154,-1.5158,-1.5158,-1.5184,-1.5469,-1.625,-1.6416,-1.6786,-1.7657,-1.7815,-1.8198,-1.9077,-1.9164,-1.9512,-2.0362,-1.9636,-1.9152,-1.9123,-1.8293,-1.7791,-1.7723,-1.7716,-1.7694,-1.7629,-1.7691,-1.7227,-1.6271,-1.6456,-1.6085,-1.5208,-1.5274,-1.53,-1.5289,-1.5092,-1.4777,-1.4311,-1.3036,-0.9757,-0.5117,-0.0783,0.3758,0.826,1.1439,1.2829,1.3115,1.3112,1.32,1.3303,1.3227,1.3107,1.2958,1.2689,1.2508,1.2333,1.2005,1.1859,1.194,1.2531,1.3234,1.3892,1.4367,1.4374,1.4289,1.431,1.4261,1.4189,1.4049,1.3954,1.3997,1.4261,1.404,1.404,1.4692,1.4822,1.5086,1.5738,1.6874,1.7766,1.8096,1.883,1.9321,1.9302,1.9161,1.9079,1.9101,1.9087,1.8811,1.823,1.8018,1.779,1.7511,1.7392,1.7538,1.7922,1.7325,1.7319,1.7902,1.7902,1.7902,-0.4696,0.0,0.0,0.0,0.0,0.0,0.0,0.0,-0.9377,-1.0774,-1.1615,-1.2358,-1.3233,-1.3865,-1.4261,-1.4259,-1.4787,-1.5258,-1.5439,-1.5523,-1.5882,-1.6765,-1.6919,-1.7296,-1.8179,-1.8259,-1.8363,0.0,-1.8353,-1.7907,-1.728,-1.6423,-1.5916,-1.5847,-1.5942,-1.5963,-1.5891,-1.5906,-1.5798,-1.5577,-1.5532,-1.5464,-1.5341,-1.5261,-1.5278,-1.5362,-1.5105,-1.4855,-1.4513,-1.3088,-0.8324,-0.1733,0.0322,0.5568,1.2047,1.2724,1.3176,1.3436,1.3303,1.3404,1.3551,1.3278,1.3167,1.3098,1.2881,1.266,1.2419,1.2185,1.1958,1.1892,1.2305,1.2784,1.3291,1.3854,1.3993,1.4059,1.4262,1.4678,1.4875,1.4438,1.4111,1.4056,1.4565,1.4374,1.431,1.4739,1.5426,1.5997,1.6338,1.7563,1.8466,1.8657,1.9178,1.9457,1.9321,1.8815,1.8688,1.9072,1.8695,1.8375,1.8216,1.8424,1.8294,1.7728,1.8019,1.8225,1.8341,1.7872,1.7746,1.7902,1.7902,1.7902,0.0,0.0,0.0,0.0,0.0,0.0,-0.6367,-0.7088,0.0,0.0,-1.0483,-1.1237,-1.2466,-1.3082,-1.3401,-1.3396,-1.4108,-1.4756,-1.5062,-1.5165,-1.5387,-1.5904,-1.6021,-1.6398,-1.7268,-1.7356,-1.7511,-1.7868,-1.7529,-1.6905,-1.6008,-1.545,-1.514,-1.5097,-1.518,-1.5174,-1.5081,-1.513,-1.5137,-1.5092,-1.5071,-1.5108,-1.5193,-1.5196,-1.5235,-1.5312,-1.5149,-1.5027,-1.4834,-1.3234,-0.7759,-0.0271,0.079,0.6282,1.3554,1.3227,1.3328,1.3613,1.3486,1.3551,1.3661,1.3446,1.3354,1.3269,1.2998,1.2831,1.2686,1.2413,1.2112,1.1987,1.2428,1.2532,1.2764,1.3699,1.3911,1.4014,1.4427,1.4935,1.5149,1.4643,1.4436,1.4513,1.4973,1.4747,1.4669,1.5155,1.5843,1.6474,1.6985,1.8022,1.8845,1.9203,1.9453,1.9434,1.9037,1.8573,1.8425,1.8742,1.8408,1.8317,1.8571,1.8801,1.8695,1.823,1.8479,1.8581,1.8498,1.8262,1.8103,1.8023,1.7942,1.7902,-0.6553,-0.6181,0.0,0.0,-0.5856,0.0,-0.6708,-0.6575,-0.683,0.0,-0.9671,-1.0175,-1.1817,-1.2269,-1.2404,-1.2409,-1.3167,-1.404,-1.4852,-1.5102,-1.5197,-1.5209,-1.5262,-1.5599,-1.6378,-1.6464,-1.6769,-1.7539,-1.687,-1.6056,-1.5219,-1.5111,-1.507,-1.5068,-1.5085,-1.5038,-1.49,-1.5021,-1.5002,-1.4836,-1.4931,-1.4956,-1.4935,-1.5113,-1.5186,-1.5199,-1.5201,-1.5233,-1.5132,-1.3416,-0.778,-0.0148,0.0852,0.6327,1.361,1.327,1.3387,1.3725,1.3629,1.3644,1.3691,1.3618,1.3545,1.3429,1.306,1.3022,1.3012,1.2597,1.2259,1.2141,1.2667,1.2383,1.2312,1.3725,1.3963,1.4062,1.4724,1.5141,1.5247,1.4799,1.4867,1.5089,1.5389,1.5126,1.5072,1.5704,1.6171,1.6762,1.7583,1.8341,1.9039,1.964,1.9583,1.9251,1.8654,1.8354,1.8234,1.8307,1.8247,1.8477,1.9079,1.9101,1.9019,1.8841,1.8822,1.876,1.8569,1.851,1.842,1.8242,1.8043,1.7997,-0.7072,-0.7283,-0.7453,-0.6301,0.0,0.0,-0.5472,-0.5632,-0.6154,0.0,-0.6958,-0.7281,-0.8328,-0.9615,-1.0539,-1.0602,-1.1869,-1.3148,-1.4012,-1.4752,-1.5224,-1.5267,-1.5286,-1.5366,-1.5541,-1.5548,-1.5602,-1.5724,-1.5469,-1.5229,-1.5052,-1.4983,-1.491,-1.4863,-1.5017,-1.5038,-1.49,-1.4925,-1.4968,-1.5036,-1.4901,-1.4924,-1.506,-1.5096,-1.5153,-1.5199,-1.5201,-1.5149,-1.4942,-1.3347,-0.7885,-0.0385,0.0983,0.6632,1.3957,1.3567,1.3646,1.3905,1.3672,1.3647,1.3682,1.356,1.3512,1.3471,1.3286,1.3165,1.2994,1.255,1.2284,1.2174,1.2244,1.201,1.2097,1.3454,1.3803,1.4076,1.5001,1.5587,1.584,1.5485,1.5195,1.5149,1.5639,1.5426,1.5336,1.5733,1.6733,1.7483,1.7675,1.8762,1.9558,1.9693,1.9201,1.879,1.8617,1.8017,1.7834,1.827,1.8247,1.8477,1.9079,1.9101,1.9082,1.9045,1.9045,1.9019,1.8976,1.8666,1.8478,1.8439,1.84,1.8644,-0.7923,-0.7889,-0.8001,-0.7153,0.0,0.0,0.0,-0.597,-0.6234,-0.7237,-0.6783,-0.6591,-0.7861,-0.8783,-0.9361,-0.9396,-1.0839,-1.1961,-1.1998,-1.313,-1.3971,-1.4003,-1.4394,-1.4651,-1.4652,-1.5037,-1.526,-1.5163,-1.5089,-1.5022,-1.4946,-1.4891,-1.4826,-1.4799,-1.4898,-1.4918,-1.4852,-1.4852,-1.4879,-1.4955,-1.4846,-1.4836,-1.4905,-1.4967,-1.5021,-1.5054,-1.5122,-1.5114,-1.4928,-1.3348,-0.9104,-0.3245,0.0236,0.6722,1.4056,1.3725,1.3771,1.3979,1.3813,1.3734,1.3674,1.3583,1.3528,1.3471,1.3303,1.3104,1.2894,1.2668,1.2407,1.2215,1.2241,1.1976,1.2048,1.3411,1.3782,1.4104,1.5205,1.579,1.6025,1.5805,1.558,1.5529,1.5799,1.5675,1.561,1.577,1.6884,1.7706,1.7706,1.8874,1.97,1.97,1.9408,1.8917,1.8207,1.8097,1.7988,1.7854,1.8096,1.8517,1.9079,1.9101,1.9101,1.9101,1.9101,1.9101,1.9101,1.9231,1.9068,1.8651,1.8549,1.8826,0.0,0.0,0.0,0.0,0.0,-0.7522,0.0,0.0,0.0,-0.8158,-0.7355,0.0,0.0,0.0,0.0,0.0,0.0,0.0,0.0,-1.096,0.0,-1.2414,-1.3218,-1.3741,-1.3732,-1.4221,-1.4623,-1.4847,-1.4683,-1.4674,-1.4918,-1.4849,-1.4799,-1.4799,-1.4799,-1.4799,-1.4799,-1.4799,-1.4799,-1.4799,-1.4803,-1.476,-1.4698,-1.4843,-1.4896,-1.4911,-1.5031,-1.5094,-1.4972,-1.3353,-1.0281,-0.6051,-0.0544,0.6251,1.3015,1.3524,1.3838,1.4007,1.3917,1.3801,1.369,1.3621,1.3552,1.3446,1.3261,1.3016,1.2821,1.2802,1.2536,1.2284,1.2353,1.2102,1.216,1.3549,1.3885,1.4214,1.5433,1.5904,1.6039,1.5921,1.5892,1.5878,1.5878,1.5835,1.5799,1.5799,1.6772,1.7503,1.7503,1.868,1.9468,1.9341,1.9438,1.8957,1.7615,1.8067,1.8124,1.7434,1.7969,1.848,1.8905,1.8934,1.8978,1.9101,1.9101,1.9101,1.9101,1.9776,1.9669,1.8867,1.8938,1.9228,0.0,0.0,0.0,0.0,-0.9148,0.0,0.0,0.0,-0.7999,-0.7555,0.0,0.0,0.0,0.0,0.0,0.0,0.0,0.0,-0.7911,-0.8634,-0.9819,-1.136,-1.2322,-1.2824,-1.2764,-1.2149,-1.2391,-1.3919,-1.3162,-1.334,-1.4989,-1.4902,-1.4799,-1.4799,-1.4799,-1.4799,-1.4799,-1.4799,-1.4799,-1.4799,-1.4799,-1.4756,-1.4698,-1.4845,-1.4903,-1.4901,-1.4979,-1.505,-1.4965,-1.3295,-1.0239,-0.6057,-0.055,0.4576,0.9258,1.2508,1.3856,1.4063,1.3884,1.3761,1.3682,1.3617,1.3513,1.3379,1.3235,1.3044,1.2879,1.2821,1.2647,1.2439,1.2343,1.2274,1.2561,1.3843,1.4149,1.4505,1.5778,1.6032,1.5997,1.5913,1.5849,1.5813,1.5813,1.5813,1.5799,1.5799,1.6376,1.6808,1.6808,1.7983,1.8597,1.799,1.8453,1.8267,1.6936,1.7373,1.7626,1.7412,1.7969,1.8298,1.8303,1.8303,1.8557,1.9094,1.9101,1.9101,1.9101,1.9776,1.9735,1.9085,2.0195,2.076,0.0,0.0,0.0,0.0,0.0,0.0,-0.8807,0.0,-0.8416,0.0,0.0,0.0,0.0,0.0,0.0,0.0,-0.7681,0.0,0.0,0.0,-0.8486,0.0,0.0,0.0,-1.2453,-1.1793,-1.1802,-1.3001,-1.2674,-1.2958,-1.4217,-1.4608,-1.4799,-1.4799,-1.4799,-1.4799,-1.4799,-1.4799,-1.4804,-1.4803,-1.476,-1.4731,-1.4695,-1.4757,-1.478,-1.4793,-1.4854,-1.4924,-1.4863,-1.3257,-1.1649,-0.9401,-0.136,0.4365,0.8561,1.2488,1.3948,1.3996,1.4018,1.3893,1.3682,1.3585,1.3479,1.3371,1.3235,1.3096,1.2941,1.2831,1.2657,1.2477,1.2373,1.2333,1.2624,1.3953,1.423,1.4543,1.5778,1.6018,1.5961,1.5856,1.582,1.5799,1.5799,1.5799,1.5799,1.5799,1.6308,1.6696,1.6696,1.7525,1.8012,1.7736,1.7953,1.7727,1.6771,1.73,1.7617,1.7511,1.8373,1.8888,1.8903,1.8779,1.8884,1.9213,1.9139,1.9101,1.9101,2.0124,2.0299,1.9703,2.0589,2.1206,-1.0246,0.0,0.0,0.0,0.0,0.0,0.0,0.0,0.0,0.0,0.0,0.0,0.0,0.0,0.0,0.0,0.0,-0.7032,0.0,-0.6595,0.0,0.0,0.0,0.0,0.0,-1.0357,-1.0412,-1.1724,-1.1579,-1.2106,-1.362,-1.4191,-1.4565,-1.479,-1.4804,-1.4799,-1.4799,-1.4799,-1.4789,-1.4769,-1.4726,-1.4696,-1.4697,-1.4697,-1.4697,-1.4703,-1.4752,-1.4819,-1.4797,-1.3452,-1.2866,-1.1838,-0.215,0.3518,0.6887,1.2155,1.4018,1.3925,1.4089,1.395,1.3676,1.3544,1.3487,1.3429,1.3303,1.3166,1.3024,1.2895,1.2706,1.2511,1.2421,1.2353,1.2588,1.3744,1.4123,1.4484,1.5527,1.5881,1.5961,1.5842,1.5813,1.5799,1.5799,1.5799,1.5799,1.5799,1.6174,1.6443,1.6443,1.7018,1.7428,1.7428,1.7585,1.7496,1.7025,1.7249,1.7405,1.7333,1.8436,1.9086,1.9122,1.9005,1.9057,1.9313,1.9038,1.8895,1.8884,2.0157,2.0557,2.0124,2.1082,2.1692,0.0,0.0,0.0,-0.991,0.0,0.0,0.0,0.0,-1.0701,0.0,0.0,0.0,0.0,0.0,0.0,0.0,0.0,0.0,0.0,0.0,0.0,0.0,0.0,0.0,0.0,-0.6777,-0.733,0.0,-0.924,-1.0179,-1.3522,-1.3662,-1.4001,-1.478,-1.4799,-1.4799,-1.4799,-1.4803,-1.4769,-1.4698,-1.4698,-1.4696,-1.4697,-1.4697,-1.4697,-1.4697,-1.4698,-1.478,-1.4837,-1.4007,-1.3317,-1.1891,-0.2666,0.1293,0.2807,1.1054,1.4018,1.3911,1.3979,1.3875,1.3678,1.3544,1.3537,1.357,1.3437,1.3295,1.3166,1.3024,1.2797,1.257,1.2425,1.2353,1.2471,1.3166,1.3783,1.4366,1.4985,1.5596,1.5983,1.5906,1.5835,1.5799,1.5799,1.5799,1.5799,1.5799,1.5821,1.5836,1.5836,1.6353,1.6726,1.6726,1.7309,1.7699,1.7667,1.7092,1.6703,1.6641,1.7822,1.8495,1.8433,1.8495,1.8804,1.9387,1.8754,1.8395,1.8336,1.9597,2.0186,2.0146,2.199,2.2541,-1.2003,-1.2413,-1.2586,-1.0911,0.0,0.0,0.0,0.0,0.0,0.0,0.0,0.0,0.0,0.0,0.0,0.0,0.0,0.0,0.0,0.0,0.0,0.0,0.0,0.0,0.0,0.0,0.0,-0.9049,-0.8866,0.0,-1.1986,-1.31,-1.3766,-1.4002,-1.4523,-1.4803,-1.4798,-1.476,-1.4726,-1.4698,-1.47,-1.4698,-1.4697,-1.4697,-1.4697,-1.4697,-1.4697,-1.4777,-1.484,-1.4027,-1.3321,-1.2102,-0.5702,-0.118,0.275,1.1192,1.4064,1.3781,1.3838,1.3916,1.3926,1.3652,1.3639,1.3695,1.3519,1.3346,1.3175,1.3041,1.2814,1.258,1.2491,1.2419,1.2515,1.3145,1.3791,1.4415,1.4983,1.5573,1.5983,1.5913,1.5849,1.5799,1.5799,1.5799,1.5799,1.5799,1.5799,1.5799,1.5799,1.5979,1.6099,1.6099,1.6316,1.6608,1.7003,1.7637,1.7817,1.7368,1.853,1.9233,1.9257,1.9146,1.9236,1.9538,1.9435,1.9056,1.8366,1.9812,2.0185,1.9536,2.098,2.1975,-1.2831,-1.3139,-1.3196,-1.1785,-1.1826,0.0,-1.0482,0.0,-1.1192,0.0,0.0,0.0,0.0,0.0,0.0,0.0,0.0,0.0,0.0,-0.5674,0.0,0.0,0.0,0.0,0.0,0.0,-0.6561,-0.8639,-0.8647,0.0,0.0,-1.2219,-1.3026,-1.3576,-1.4083,-1.449,-1.4798,-1.4735,-1.4696,-1.4696,-1.4698,-1.4697,-1.4697,-1.4697,-1.4697,-1.4697,-1.4697,-1.478,-1.486,-1.4335,-1.3562,-1.2242,-0.7553,-0.2625,0.2672,0.9582,1.282,1.3779,1.3845,1.3906,1.3931,1.3732,1.3698,1.3716,1.36,1.3429,1.3235,1.3113,1.2888,1.2636,1.2528,1.2449,1.2491,1.2866,1.3457,1.4096,1.4661,1.5249,1.5722,1.5903,1.5885,1.5856,1.5926,1.5863,1.5799,1.5799,1.5799,1.5799,1.5799,1.5799,1.5888,1.6099,1.6114,1.6428,1.7189,1.8238,1.8578,1.7945,1.9002,1.9556,1.9356,1.9555,1.9726,1.9815,1.9719,1.9387,1.8851,1.9911,2.0064,1.9431,2.0626,2.1586]},{"header":{"parameterUnit":"m.s-1","parameterCategory":1,"la1":30.6,"la2":29.2853,"lo1":-89.7004,"lo2":-87.6739,"dy":0.0162,"dx":0.0183,"nx":112,"ny":82,"refTime":"2026-05-13T00:00:00:Z","depth":0,"parameterNumber":3,"parameterNumberName":"V-component_of_WINDS"},"data":[0.0,0.0,0.0,0.0,0.0,0.0,0.0,0.0,0.0,0.0,0.0,0.0,0.0,0.0,0.0,0.0,0.0,0.0,0.0,0.0,0.0,0.0,0.0,0.0,0.0,0.0,0.0,0.0,0.0,0.0,0.0,0.0,0.0,0.0,0.0,0.0,0.0,0.0,0.0,0.0,0.0,0.0,0.0,0.0,0.0,0.0,0.0,0.0,0.0,0.0,0.0,0.0,0.0,0.0,0.0,0.0,0.0,0.0,0.0,0.0,0.0,0.0,0.0,0.0,0.0,0.0,0.0,0.0,0.0,0.0,0.0,0.0,0.0,0.0,0.0,0.0,0.0,0.0,0.0,0.0,0.0,0.0,0.0,0.0,0.0,0.0,0.0,0.0,0.0,0.0,0.6863,0.6994,0.8168,0.9167,0.9737,0.968,0.9642,0.9703,0.0,0.0,0.0,0.0,0.0,0.0,0.0,0.0,0.0,0.0,0.0,0.0,0.0,0.0,0.0,0.0,0.0,0.0,0.0,0.0,0.0,0.0,0.0,0.0,0.0,0.0,0.0,0.0,0.0,0.0,0.0,0.0,0.0,0.0,0.0,0.0,0.0,0.0,0.0,0.0,0.0,0.0,0.0,0.0,0.0,0.0,0.0,0.0,0.0,0.0,0.0,0.0,0.0,0.0,0.0,0.0,0.0,0.0,0.0,0.0,0.0,0.0,0.0,0.0,0.0,0.0,0.0,0.0,0.0,0.0,0.0,0.0,0.0,0.0,0.0,0.0,0.0,0.0,0.0,0.0,0.0,0.0,0.0,0.0,0.0,0.0,0.0,0.0,0.0,0.0,0.0,0.0,0.0,0.0,0.0,0.0,0.0,0.0,0.0,0.0,0.0,0.0,0.0,0.0,0.7577,0.8315,0.8557,0.8947,0.9653,0.9144,0.9044,0.9657,0.0,0.0,0.0,0.0,0.0,0.0,0.0,0.0,0.0,0.0,0.0,0.0,0.0,0.0,0.0,0.0,0.0,0.0,0.0,0.0,0.0,0.0,0.0,0.0,0.0,0.0,0.0,0.0,0.0,0.0,0.0,0.0,0.0,0.0,0.0,0.0,0.0,0.0,0.0,0.0,0.0,0.0,0.0,0.0,0.0,0.0,0.0,0.0,0.0,0.0,0.0,0.0,0.0,0.0,0.0,0.0,0.0,0.0,0.0,0.0,0.0,0.0,0.0,0.0,0.0,0.0,0.0,0.0,0.0,0.0,0.0,0.0,0.0,0.0,0.0,0.0,0.0,0.0,0.0,0.0,0.0,0.0,0.0,0.0,0.0,0.0,0.0,0.0,0.0,0.0,0.0,0.0,0.0,0.0,0.0,0.0,0.0,0.0,0.0,0.0,0.0,0.0,0.0,0.6855,0.7437,0.8678,0.878,0.9018,0.9649,0.9057,0.8951,0.9652,0.7944,0.0,0.0,0.0,0.0,0.0,0.0,0.0,0.0,0.0,0.0,0.0,0.0,0.0,0.0,0.0,0.0,0.0,0.0,0.0,0.0,0.0,0.0,0.0,0.0,0.0,0.0,0.0,0.0,0.0,0.0,0.0,0.0,0.0,0.0,0.0,0.0,0.0,0.0,0.0,0.0,0.0,0.0,0.0,0.0,0.0,0.0,0.0,0.0,0.0,0.0,0.0,0.0,0.0,0.0,0.0,0.0,0.0,0.0,0.0,0.0,0.0,0.0,0.0,0.0,0.0,0.0,0.0,0.0,0.0,0.0,0.0,0.0,0.0,0.0,0.0,0.0,0.0,0.0,0.0,0.0,0.0,0.0,0.0,0.0,0.0,0.0,0.0,0.0,0.0,0.0,0.0,0.0,0.0,0.0,0.0,0.0,0.0,0.0,0.0,0.0,0.0,0.0,0.6825,0.7417,0.8759,0.8889,0.9047,0.9448,0.8986,0.8905,0.943,0.7538,0.0,0.0,0.0,0.0,0.0,0.0,0.0,0.0,0.0,0.0,0.0,0.0,0.0,0.0,0.0,0.0,0.0,0.0,0.0,0.0,0.0,0.0,0.0,0.0,0.0,0.0,0.0,0.0,0.0,0.0,0.0,0.0,0.0,0.0,0.0,0.0,0.0,0.0,0.0,0.0,0.0,0.0,0.0,0.0,0.0,0.0,0.0,0.0,0.0,0.0,0.0,0.0,0.0,0.0,0.0,0.0,0.0,0.0,0.0,0.0,0.0,0.0,0.0,0.0,0.0,0.0,0.0,0.0,0.0,0.0,0.0,0.0,0.0,0.0,0.0,0.0,0.0,0.0,0.0,0.0,0.0,0.0,0.0,0.0,0.0,0.0,0.0,0.0,0.0,0.0,0.0,0.0,0.0,0.0,0.0,0.0,0.0,0.0,0.0,0.0,0.0,0.0,0.7348,0.8087,0.8824,0.8843,0.8828,0.8862,0.8703,0.8651,0.8767,0.7275,0.0,0.0,0.0,0.0,0.0,0.0,0.0,0.0,0.0,0.0,0.0,0.0,0.0,0.0,0.0,0.0,0.0,0.0,0.0,0.0,0.0,0.0,0.0,0.0,0.0,0.0,0.0,0.0,0.0,0.0,0.0,0.0,0.0,0.0,0.0,0.0,0.0,0.0,0.0,0.0,0.0,0.0,0.0,0.0,0.0,0.0,0.0,0.0,0.0,0.0,0.0,0.0,0.0,0.0,0.0,0.0,0.0,0.0,0.0,0.0,0.0,0.0,0.0,0.0,0.0,0.0,0.0,0.0,0.0,0.0,0.0,0.0,0.0,0.0,0.0,0.0,0.0,0.0,0.0,0.0,0.0,0.0,0.0,0.0,0.0,0.0,0.0,0.0,0.0,0.0,0.0,0.0,0.0,0.0,0.0,0.0,0.0,0.0,0.0,0.0,0.0,0.0,0.7364,0.8075,0.0,0.8749,0.8704,0.8614,0.8563,0.8561,0.8634,0.0,0.0,0.0,0.0,0.0,0.0,0.0,0.0,0.0,0.0,0.0,0.0,0.0,0.0,0.0,0.0,0.0,0.0,0.0,0.0,0.0,0.0,0.0,0.0,0.0,0.0,0.0,0.0,0.0,0.0,0.0,0.0,0.0,0.0,0.0,0.0,0.0,0.0,0.0,0.0,0.0,0.0,0.0,0.0,0.0,0.0,0.0,0.0,0.0,0.0,0.0,0.0,0.0,0.0,0.0,0.0,0.0,0.0,0.0,0.0,0.0,0.0,0.0,0.0,0.0,0.0,0.0,0.0,0.0,0.0,0.0,0.0,0.0,0.0,0.0,0.0,0.0,0.0,0.0,0.0,0.0,0.0,0.0,0.0,0.0,0.0,0.0,0.0,0.0,0.0,0.0,0.0,0.0,0.0,0.0,0.0,0.0,0.0,0.0,0.0,0.0,0.0,0.6669,0.7332,0.8041,0.0,0.8711,0.8666,0.8569,0.854,0.8447,0.826,0.0,0.0,0.0,0.0,0.0,0.0,0.0,0.0,0.0,0.0,0.0,0.0,0.0,0.0,0.0,0.0,0.0,0.0,0.0,0.0,0.0,0.0,0.0,0.0,0.0,0.0,0.0,0.0,0.0,0.0,0.0,0.0,0.0,0.0,0.0,0.0,0.0,0.0,0.0,0.0,0.0,0.0,0.0,0.0,0.0,0.0,0.0,0.0,0.0,0.0,0.0,0.0,0.0,0.0,0.0,0.0,0.0,0.0,0.0,0.0,0.0,0.0,0.0,0.0,0.0,0.0,0.0,0.0,0.0,0.0,0.0,0.0,0.0,0.0,0.0,0.0,0.0,0.0,0.0,0.0,0.0,0.0,0.0,0.0,0.0,0.0,0.0,0.0,0.0,0.0,0.0,0.0,0.0,0.0,0.0,0.0,0.0,0.0,0.0,0.0,0.0,0.0,0.6609,0.7308,0.806,0.8731,0.8743,0.8702,0.8705,0.8634,0.8288,0.0,0.0,0.0,0.0,0.0,0.0,0.0,0.0,0.0,0.0,0.0,0.0,0.0,0.0,0.0,0.0,0.0,0.0,0.0,0.0,0.0,0.0,0.0,0.0,0.0,0.0,0.0,0.0,0.0,0.0,0.0,0.0,0.0,0.0,0.0,0.0,0.0,0.0,0.0,0.0,0.0,0.0,0.0,0.0,0.0,0.0,0.0,0.0,0.0,0.0,0.0,0.0,0.0,0.0,0.0,0.0,0.0,0.0,0.0,0.0,0.0,0.0,0.0,0.0,0.0,0.0,0.0,0.0,0.0,0.0,0.0,0.0,0.0,0.0,0.0,0.0,0.0,0.0,0.0,0.0,0.0,0.0,0.0,0.0,0.0,0.0,0.0,0.0,0.0,0.0,0.0,0.0,0.0,0.0,0.0,0.0,0.0,0.0,0.0,0.0,0.0,0.0,0.0,0.6591,0.7715,0.8574,0.8775,0.878,0.8754,0.8705,0.8681,0.8341,0.7549,0.0,0.0,0.0,0.0,0.0,0.0,0.0,0.0,0.0,0.0,0.0,0.0,0.0,0.0,0.0,0.0,0.0,0.0,0.0,0.0,0.0,0.0,0.0,0.0,0.0,0.0,0.0,0.0,0.0,0.0,0.0,0.0,0.0,0.0,0.0,0.0,0.0,0.0,0.0,0.0,0.0,0.0,0.0,0.0,0.0,0.0,0.0,0.0,0.0,0.0,0.0,0.0,0.0,0.0,0.0,0.0,0.0,0.0,0.0,0.0,0.0,0.0,0.0,0.0,0.0,0.0,0.0,0.0,0.0,0.0,0.0,0.0,0.0,0.0,0.0,0.0,0.0,0.0,0.0,0.0,0.0,0.0,0.0,0.0,0.0,0.0,0.0,0.0,0.0,0.0,0.0,0.0,0.0,0.0,0.0,0.0,0.0,0.0,0.0,0.0,0.0,0.0,0.6626,0.793,0.8838,0.8838,0.8789,0.8744,0.8705,0.8651,0.8298,0.7549,0.0,0.0,0.0,0.0,0.0,0.0,0.0,0.0,0.0,0.0,0.0,0.0,0.0,0.0,0.0,0.0,0.0,0.0,0.0,0.0,0.0,0.0,0.0,0.0,0.0,0.0,0.0,0.0,0.0,0.0,0.0,0.0,0.0,0.0,0.0,0.0,0.0,0.0,0.0,0.0,0.0,0.0,0.0,0.0,0.0,0.0,0.0,0.0,0.0,0.0,0.0,0.0,0.0,0.0,0.0,0.0,0.0,0.0,0.0,0.0,0.0,0.0,0.0,0.0,0.0,0.0,0.0,0.0,0.0,0.0,0.0,0.0,0.0,0.0,0.0,0.0,0.0,0.0,0.0,0.0,0.0,0.0,0.0,0.0,0.0,0.0,0.0,0.0,0.0,0.0,0.0,0.0,0.0,0.0,0.0,0.0,0.0,0.0,0.0,0.0,0.0,0.0,0.6702,0.7972,0.8889,0.8894,0.8771,0.8724,0.879,0.8622,0.8258,0.7633,0.0,0.0,0.0,0.0,0.0,0.0,0.0,0.0,0.0,0.0,0.0,0.0,0.0,0.0,0.0,0.0,0.0,0.0,0.0,0.0,0.0,0.0,0.0,0.0,0.0,0.0,0.0,0.0,0.0,0.0,0.0,0.0,0.0,0.0,0.0,0.0,0.0,0.0,0.0,0.0,0.0,0.0,0.0,0.0,0.0,0.0,0.0,0.0,0.0,0.0,0.0,0.0,0.0,0.0,0.0,0.0,0.0,0.0,0.0,0.0,0.7827,0.0,0.0,0.0,0.0,0.0,0.0,0.0,0.0,0.0,0.0,0.0,0.0,0.0,0.0,0.0,0.0,0.0,0.0,0.0,0.0,0.0,0.0,0.0,0.0,0.0,0.0,0.0,0.0,0.0,0.0,0.0,0.0,0.0,0.0,0.0,0.0,0.0,0.0,0.0,0.0,0.0,0.6676,0.7866,0.8768,0.8818,0.875,0.8916,0.9447,0.8981,0.8555,0.8302,0.764,0.0,0.0,0.0,0.0,0.0,0.0,0.0,0.0,0.0,0.0,0.0,0.0,0.0,0.0,0.0,0.0,0.0,0.0,0.0,0.0,0.0,0.0,0.0,0.0,0.0,0.0,0.0,0.0,0.0,0.0,0.0,0.0,0.0,0.0,0.0,0.0,0.0,0.0,0.0,0.0,0.0,0.0,0.0,0.0,0.0,0.0,0.0,0.0,0.0,0.0,0.0,0.0,0.0,0.0,0.0,0.0,0.0,0.0,0.0,0.0,0.9137,0.0,0.0,0.0,0.0,0.0,0.0,0.0,0.0,0.0,0.0,0.0,0.0,0.0,0.0,0.0,0.0,0.0,0.0,0.0,0.0,0.0,0.0,0.0,0.0,0.0,0.0,0.0,0.0,0.0,0.0,0.0,0.0,0.0,0.0,0.0,0.0,0.0,0.0,0.0,0.0,0.6719,0.7904,0.8812,0.8843,0.8762,0.8841,0.919,0.8843,0.8577,0.8508,0.7875,0.0,0.0,0.0,0.0,0.0,0.0,0.0,0.0,0.0,0.0,0.0,0.0,0.0,0.0,0.0,0.0,0.0,0.0,0.0,0.0,0.0,0.0,0.0,0.0,0.0,0.0,0.0,0.0,0.0,0.0,0.0,0.0,0.0,0.0,0.0,0.0,0.0,0.0,0.0,0.0,0.0,0.0,0.0,0.0,0.0,0.0,0.0,0.0,0.0,0.0,0.0,0.0,0.0,1.0738,1.0817,1.1019,1.2848,1.3141,1.2144,1.1419,1.1336,1.1607,1.0164,0.0,0.0,0.0,0.0,0.0,0.0,0.0,0.0,0.0,0.0,0.0,0.0,0.0,0.0,0.0,0.0,0.0,0.0,0.0,0.0,0.0,0.0,0.0,0.0,0.9136,0.8834,0.7553,0.0,0.0,0.0,0.0,0.0,0.0,0.0,0.0,0.0,0.0,0.0,0.697,0.8073,0.8897,0.8897,0.8777,0.8798,0.9041,0.8837,0.8744,0.8858,0.8222,0.7979,0.0,0.0,0.0,0.0,0.0,0.0,0.0,0.0,0.0,0.0,0.0,0.0,0.0,0.0,0.0,0.0,0.0,0.0,0.0,0.0,0.0,0.0,0.0,0.0,0.0,0.0,0.0,0.0,0.0,0.0,0.0,0.0,0.7026,0.8019,0.0,0.0,0.0,0.0,0.0,0.0,0.0,0.0,0.0,0.0,0.0,0.0,0.0,1.0435,1.1156,1.1172,1.1612,1.2473,1.2472,1.2873,1.3607,1.39,1.4346,1.4877,1.4758,0.0,1.2613,1.2316,0.0,0.0,0.0,0.0,0.0,0.0,0.0,0.0,0.0,0.0,0.0,0.0,0.0,0.0,0.0,0.0,0.0,0.0,0.0,0.0,0.0,0.0,1.0676,0.8722,0.8694,0.9062,0.0,0.893,0.8768,0.7866,0.6722,0.0,0.0,0.0,0.0,0.0,0.0,0.0,0.7748,0.8416,0.8897,0.8897,0.8777,0.9192,1.0416,0.9864,0.9703,1.0294,0.9635,0.8702,0.7511,0.7264,0.0,0.0,0.0,0.0,0.0,0.0,0.0,0.0,0.0,0.0,0.0,0.0,0.0,0.0,0.0,0.0,0.0,0.0,0.0,0.0,0.0,0.0,0.0,0.0,0.0,0.0,0.0,0.0,0.0,0.6755,0.7194,0.8003,0.7527,0.6982,0.0,0.0,0.0,0.0,0.0,0.0,0.0,0.0,0.0,1.1119,1.1542,1.2382,1.3683,1.3688,1.4383,1.572,1.572,1.5925,1.6286,1.6289,1.6504,1.6831,1.6304,1.5661,1.4906,1.3896,1.3048,1.2341,0.0,0.0,0.0,0.0,1.1462,1.1225,1.2555,1.2371,1.1558,1.1522,0.0,0.0,0.0,0.0,0.0,0.0,0.0,0.0,0.0,0.0,1.1022,1.0392,1.0685,1.1123,1.1123,1.1092,1.0441,0.0,0.8525,0.8486,0.6795,0.0,0.0,0.0,0.0,0.7864,0.79,0.849,0.9072,0.9525,0.9456,0.9606,1.0193,1.0233,1.0137,0.9935,0.9587,0.9098,0.8455,0.8029,0.7579,0.0,0.0,0.0,0.0,0.0,0.0,0.0,0.0,0.0,0.0,0.0,0.0,0.0,0.0,0.0,0.0,0.0,0.0,0.0,0.0,0.0,0.0,0.0,0.0,0.0,0.0,0.0,0.0,0.7645,0.7664,0.829,0.8564,0.8613,0.0,0.0,0.0,0.0,0.0,0.0,1.0918,1.1992,1.2851,1.3455,1.3945,1.4805,1.6052,1.6074,1.6719,1.7998,1.7998,1.8125,1.833,1.8103,1.8123,1.8281,1.7363,1.6989,1.6908,1.5369,1.4619,1.4374,1.3722,1.3446,1.3514,1.4107,1.3908,1.3555,1.5026,1.4572,1.3333,1.3278,1.2256,1.0873,0.9933,0.0,0.0,0.0,0.0,0.9221,1.0803,1.1255,1.1413,1.1811,1.2171,1.2422,1.2422,1.2455,1.1818,0.0,1.0447,1.0781,0.8195,0.0,0.0,0.0,0.0,0.8759,0.8787,0.9233,0.9768,1.0369,1.0312,1.0197,1.011,1.0638,1.0533,0.9469,0.9497,0.9381,0.9013,0.847,0.7964,0.7513,0.0,0.0,0.0,0.0,0.0,0.0,0.0,0.0,0.0,0.0,0.0,0.0,0.0,0.0,0.0,0.0,0.0,0.0,0.0,0.0,0.0,0.0,0.0,0.0,0.0,0.0,0.0,0.0,0.0,1.0067,1.0898,0.0,0.0,0.0,0.0,1.1344,1.1442,1.1853,1.2723,1.4316,1.5234,1.5273,1.6885,1.7783,1.7871,1.787,1.7909,1.7997,1.7995,1.8435,1.9208,1.8378,1.8447,1.9189,1.831,1.7929,1.7859,1.6883,1.6023,1.5335,1.5291,1.5229,1.5177,1.5225,1.5172,1.5204,1.612,1.584,1.5067,1.5067,1.4413,1.344,1.2499,1.218,0.0,0.0,1.2544,1.2931,1.222,1.2507,1.28,1.207,1.1777,1.1656,1.1656,1.2095,1.2455,0.0,1.2353,1.193,1.0307,0.0,1.0813,1.0134,1.0599,1.1085,1.1207,1.1255,1.1289,1.1332,1.1209,1.1076,1.0948,1.1432,1.1067,0.9495,0.9938,0.9624,0.8216,0.8124,0.8093,0.8054,0.7397,0.0,0.0,0.0,0.0,0.0,0.0,0.0,0.0,0.0,0.0,0.0,0.0,0.0,0.0,0.0,0.0,0.0,0.0,0.0,0.0,0.0,0.0,0.0,0.0,0.0,0.0,0.0,0.0,1.1735,1.2177,0.0,1.194,1.1914,1.2045,1.2348,1.3411,1.4177,1.4491,1.6142,1.7069,1.7068,1.7681,1.8253,1.8772,1.8771,1.9054,1.9611,1.9613,1.9771,2.0063,1.975,1.9777,2.0028,1.9197,1.8837,1.8807,1.8483,1.7837,1.7074,1.7069,1.7062,1.703,1.699,1.693,1.6919,1.723,1.6766,1.5849,1.4731,1.4113,1.3621,1.268,1.2398,1.237,1.2243,1.241,1.2548,1.2192,1.2658,1.3159,1.2866,1.3083,1.3312,1.3231,1.3678,1.3931,1.3334,1.3208,1.2733,1.1229,1.1558,1.1785,1.1075,1.1179,1.1353,1.1393,1.1399,1.1581,1.2058,1.1989,1.1841,1.1664,1.2096,1.1666,1.0023,1.0082,0.9737,0.878,0.8333,0.8102,0.8102,0.7437,0.6666,0.0,0.0,0.0,0.0,0.0,0.0,0.0,0.0,0.0,0.0,0.0,0.0,0.0,0.0,0.0,0.0,0.0,0.0,0.0,0.0,0.0,0.0,0.0,0.0,0.0,0.0,1.1468,1.2631,1.3309,1.3557,1.3268,1.3767,1.3989,1.3697,1.5292,1.6136,1.5822,1.7476,1.8432,1.8411,1.869,1.9239,2.0073,2.0082,2.0366,2.0944,2.0937,2.0781,2.0496,2.0496,2.0499,2.0466,1.9937,1.9702,1.9697,1.9697,1.9385,1.8845,1.8551,1.8595,1.8802,1.8457,1.8298,1.8191,1.7883,1.7212,1.6311,1.5147,1.4547,1.4153,1.3476,1.3263,1.3152,1.2733,1.2798,1.2926,1.2592,1.31,1.3697,1.3697,1.4007,1.4283,1.4192,1.439,1.4411,1.3786,1.3852,1.3527,1.2032,1.2386,1.2619,1.1877,1.198,1.2144,1.2144,1.2144,1.2334,1.2819,1.2788,1.2547,1.204,1.2261,1.1787,1.0292,1.0138,0.9804,0.9135,0.8672,0.8333,0.8102,0.7669,0.7197,0.6708,0.0,0.0,0.0,0.0,0.0,0.0,0.0,0.0,0.0,0.0,0.0,0.0,0.0,0.0,0.0,0.0,0.0,0.0,0.0,0.0,0.0,0.0,0.0,1.0131,1.1656,1.2739,1.2773,1.4355,1.5101,1.4255,1.5726,1.6391,1.5543,1.7072,1.7643,1.6727,1.837,1.9309,1.9237,2.0061,2.0923,2.1789,2.1797,2.1809,2.184,2.1807,2.1345,2.0542,2.0513,2.0504,2.0495,2.0504,2.0497,2.0497,2.0504,2.0537,2.0514,1.9665,1.9819,2.0397,1.9551,1.9204,1.901,1.8098,1.7247,1.6583,1.6583,1.5993,1.5251,1.5121,1.5045,1.4767,1.377,1.4041,1.4437,1.3568,1.3917,1.4503,1.4503,1.4399,1.4315,1.43,1.4059,1.3837,1.3811,1.4349,1.4321,1.2801,1.313,1.3363,1.2638,1.3139,0.0,1.3605,1.3597,1.3597,1.3605,1.3589,1.3161,1.2115,1.1959,1.144,1.0301,1.0145,0.9812,0.9158,0.9111,0.8796,0.8148,0.8109,0.8102,0.8095,0.0,0.0,0.0,0.0,0.0,0.0,0.0,0.0,0.0,0.0,0.0,0.0,0.0,0.0,0.0,0.0,0.0,0.0,0.0,0.0,0.0,1.0083,1.1543,1.1612,1.2657,1.3655,1.4288,1.5453,1.6104,1.5862,1.6891,1.747,1.7227,1.8201,1.8714,1.8496,1.9507,2.011,2.0144,2.0334,2.0848,2.1716,2.1728,2.2036,2.2661,2.2032,2.1597,2.1354,2.0716,2.0447,2.05,2.0445,2.0463,2.0503,2.0501,2.0514,2.0507,2.0322,2.0378,2.054,2.025,2.0076,1.9927,1.9671,1.9033,1.8309,1.8309,1.7718,1.7,1.6911,1.6868,1.6648,1.564,1.5483,1.5407,1.4542,1.4414,1.4503,1.4503,1.4464,1.4426,1.4319,1.4566,1.4661,1.4117,1.4437,1.4476,1.3467,1.3475,1.3536,1.3329,1.3475,0.0,1.3605,1.36,1.36,1.3597,1.3379,1.3083,1.2691,1.2465,1.1909,1.0926,1.0381,1.0019,0.9835,0.9358,0.9019,0.8826,0.8348,0.8053,0.0,0.0,0.0,0.0,0.0,0.0,0.0,0.0,0.0,0.0,0.0,0.0,0.0,0.0,0.0,0.0,0.0,0.0,0.0,0.0,0.0,0.0,1.0902,1.2143,1.2487,1.3301,1.4084,1.4637,1.5586,1.621,1.6208,1.7389,1.8018,1.7709,1.888,1.9453,1.9087,1.992,2.0398,2.0417,2.0408,2.0822,2.1687,2.2055,2.2501,2.2994,2.2487,2.2054,2.1668,2.0797,2.042,2.0459,2.0424,2.0436,2.0503,2.0498,2.0504,0.0,0.0,0.0,0.0,0.0,2.0451,2.0386,2.0323,1.9751,1.9037,1.9012,1.8407,1.7694,1.7644,1.7603,1.7442,1.6848,1.636,1.5883,1.5338,1.4853,1.4503,1.4503,1.4503,1.4479,1.4399,1.4623,1.4673,1.4194,1.4251,0.0,1.369,1.3605,1.3605,1.3605,1.3605,1.3605,1.3605,1.36,1.3602,1.36,1.3404,1.3166,1.2881,1.2463,0.0,0.0,0.0,1.0518,1.0518,0.9881,0.0,0.0,0.0,0.0,0.0,0.0,0.0,0.0,0.9245,0.9377,0.0,0.0,0.0,0.0,0.0,0.0,0.0,0.0,0.0,0.0,0.0,0.0,0.0,0.0,0.0,0.0,1.1275,1.2128,1.2739,1.3584,1.4138,1.4174,1.5151,1.5807,1.5807,1.7457,1.8263,1.7606,1.9196,1.9838,1.9013,0.0,0.0,0.0,0.0,2.0797,2.1661,2.2443,2.2927,2.3107,2.2907,2.2471,2.1802,2.0834,2.0387,2.0398,2.0395,2.0428,2.049,2.0491,2.0487,2.0503,2.0503,2.0537,2.059,2.0531,2.0506,2.0479,2.0358,0.0,0.0,1.9161,1.8608,1.7981,1.7982,1.7898,1.7783,1.769,1.7002,1.626,1.6103,1.5353,1.464,1.464,1.4567,1.4503,1.4503,1.4393,1.4262,1.4145,1.3966,1.3789,1.3652,1.3613,1.3605,1.3605,1.3605,1.3605,1.3605,1.3592,1.3587,1.3595,0.0,0.0,1.2845,1.224,1.198,1.2185,1.1589,1.1187,1.1093,1.0603,1.0304,1.0211,1.0796,1.1091,1.1072,1.1609,1.1921,1.1948,0.9996,1.0052,0.0,0.0,0.0,0.0,0.0,0.0,0.0,0.0,0.0,0.0,0.0,0.0,0.0,0.0,0.0,1.0231,1.1586,1.2419,1.1871,1.322,1.4067,1.3555,1.491,1.5877,1.5877,1.762,1.868,1.854,1.9178,1.9516,1.9393,1.9826,2.0053,1.9974,2.0204,2.0694,2.1445,2.1679,2.2465,2.3787,0.0,0.0,2.2614,2.104,2.0346,2.0398,2.0404,2.0407,2.042,2.042,2.0454,2.0503,2.0502,2.0537,2.0599,2.0592,2.0549,2.0494,2.0414,2.0236,2.006,1.9986,1.985,1.9723,1.9716,1.9698,0.0,1.8833,1.8374,1.7931,1.7219,1.6251,1.5472,1.5472,1.4976,1.4503,1.4503,1.4393,1.4287,1.4271,1.4143,1.3982,1.3787,1.3666,1.3605,1.3605,1.3605,1.3605,1.3605,1.3551,1.3537,1.3595,1.3388,1.3132,1.2836,1.2586,1.2377,1.2216,1.2069,1.172,1.1116,1.1543,1.151,1.0919,1.1032,1.1053,1.0941,1.1059,1.1632,1.2617,1.2242,1.2134,0.0,0.0,0.0,0.0,0.0,0.0,0.0,0.0,0.0,0.0,0.0,0.8907,0.8943,0.0,1.0551,1.0848,1.1654,1.2167,1.1889,1.2737,1.335,1.3222,1.4592,1.5578,1.5634,1.6707,1.748,1.7675,1.7955,1.8173,1.8339,1.8922,1.9232,1.9204,1.9826,2.0334,2.0703,2.1231,2.1941,2.2786,2.2289,2.2123,2.2222,2.1347,2.0746,2.0403,2.0395,2.0423,2.0451,2.0408,2.07,2.1107,2.0672,2.0537,2.0596,2.0604,2.0578,2.0536,2.0466,2.0407,2.0342,2.0268,2.0231,2.0198,2.0201,2.0182,2.0063,1.9615,1.9092,1.8526,1.8029,1.6858,1.5777,1.5717,1.5086,1.4503,1.4503,1.445,1.4356,1.4232,1.4145,1.401,1.3751,1.3635,1.3605,1.3605,1.3605,1.3605,1.3605,1.3543,1.3512,1.3554,1.3404,1.3209,1.297,1.2692,1.2485,1.2356,1.2262,1.203,1.1666,1.2,1.201,1.1614,1.1576,1.15,1.1401,1.137,1.1852,1.2816,1.318,1.3441,0.0,0.0,0.0,0.0,0.0,0.0,0.0,0.0,0.7128,0.812,0.9011,0.9689,0.9928,1.0342,1.0821,1.1375,1.1669,1.1884,1.2033,1.2416,1.2775,1.3017,1.4111,1.4886,1.4995,1.5479,1.5918,1.6247,1.6442,1.6634,1.6792,1.7648,1.8192,1.8322,1.9266,1.9845,2.0042,2.0857,2.1367,2.1571,2.1988,2.1982,2.1573,2.1386,2.0976,2.0407,2.058,2.0593,2.0507,2.0604,2.1006,2.1483,2.0767,2.0537,2.0603,2.0603,2.0603,2.0591,2.0517,2.0457,2.0388,2.0321,2.0248,2.0201,2.0183,2.0136,2.0103,2.0103,1.9535,1.8871,1.8591,1.7328,1.6064,1.5796,1.5083,1.4497,1.4503,1.4503,1.4423,1.417,1.4123,1.4031,1.3737,1.366,1.3628,1.3596,1.3734,1.383,1.3822,1.3878,1.3871,1.3709,1.365,1.3471,1.3127,1.277,1.2538,1.2497,1.2346,1.2234,1.2203,1.2192,1.2151,1.2083,1.2012,1.1952,1.188,1.1965,1.2272,1.2823,1.3623,1.4281,0.3737,0.403,0.4521,0.5338,0.5769,0.6463,0.0,0.0,0.8706,0.966,0.9947,1.0074,1.0231,1.0725,1.1088,1.0985,1.1727,1.215,1.1654,1.2571,1.3184,1.2867,1.3284,1.3611,1.3617,1.447,1.5045,1.5089,1.5482,1.5635,1.5433,1.6309,1.7094,1.7678,1.8501,1.9334,2.017,2.0349,2.0769,2.1412,2.0717,2.0776,2.1479,2.0653,2.0319,2.0439,2.122,2.1152,2.0548,2.1258,2.1203,2.0642,2.0535,2.0536,2.0603,2.0603,2.0603,2.059,2.0521,2.0459,2.0395,2.0317,2.0253,2.0192,2.0131,2.0112,2.0098,2.0103,1.9943,1.9585,1.8786,1.7785,1.6765,1.5979,1.5134,1.4498,1.4497,1.4503,1.4441,1.4232,1.4184,1.4141,1.3982,1.3861,1.3739,1.362,1.4217,1.4632,1.4581,1.5085,1.5176,1.4458,1.4379,1.4034,1.3169,1.2903,1.2687,1.2507,1.2477,1.2387,1.221,1.2143,1.2073,1.2012,1.1949,1.188,1.1808,1.2404,1.2733,1.2826,1.4099,1.4736,0.4031,0.4398,0.0,0.0,0.5869,0.6493,0.7622,0.794,0.8251,0.9151,0.96,0.9814,0.9826,1.03,1.0704,0.0,1.1224,1.1481,1.1394,1.1914,1.2101,1.1574,1.1869,1.2494,1.3431,1.29,1.2785,1.346,1.3405,1.3278,1.3168,1.4016,1.4662,1.5034,1.5907,1.6385,1.6471,1.6545,1.7473,1.9245,1.9349,2.0419,2.232,2.2354,2.2155,2.179,2.1727,2.1796,2.194,2.177,2.1519,2.1206,2.0704,2.0537,2.0599,2.0599,2.0599,2.0588,2.0522,2.0433,2.0344,2.0312,2.0231,2.0141,2.0107,2.0069,2.0055,2.0088,2.003,1.9869,1.946,1.8262,1.705,1.6596,1.5468,1.4495,1.4447,1.4468,1.4438,1.4245,1.4578,1.482,1.4572,1.483,1.488,1.4272,1.4529,1.4787,1.4762,1.4932,1.4749,1.3956,1.3862,1.37,1.3311,1.3084,1.2893,1.2695,1.2558,1.2397,1.2153,1.2104,1.2051,1.1941,1.1902,1.2057,1.2385,1.2272,1.2826,1.3965,1.4139,1.4646,0.3758,0.0,0.0,0.5161,0.5806,0.6449,0.6768,0.7194,0.7719,0.8415,0.8895,0.9209,0.9273,0.9605,1.0033,1.0448,1.0451,1.057,1.1066,1.1017,1.0797,1.0443,1.0449,1.1038,1.2436,1.1569,1.1246,1.2074,1.1711,1.1419,1.1349,1.2113,1.2688,1.2974,1.3867,1.4295,1.4157,1.4123,1.5052,1.6956,1.7359,1.8648,2.0737,2.2036,2.2304,2.1784,2.2217,2.2513,2.2641,2.2229,2.1809,2.1375,2.0752,2.0537,2.0597,2.0583,2.0572,2.0573,2.0519,2.0416,2.032,2.031,2.0215,2.0122,2.0084,2.0045,2.0006,2.0059,2.004,1.9944,1.9667,1.8596,1.744,1.6838,1.5762,1.4769,1.4474,1.4438,1.4435,1.4282,1.4857,1.5283,1.5023,1.5548,1.5688,1.4787,1.4882,1.4968,1.4745,1.4632,1.4356,1.3769,1.3515,1.3405,1.3405,1.3277,1.3149,1.3086,1.2945,1.2798,1.2655,1.2622,1.2567,1.2456,1.2426,1.2546,1.2801,1.2673,1.3193,1.4249,1.4318,1.476,0.0,0.0,0.4874,0.4837,0.5805,0.6723,0.6474,0.7031,0.7661,0.7878,0.8045,0.8273,0.8659,0.8782,0.906,0.9724,0.9449,0.9515,1.0575,0.9987,0.9568,0.9877,0.9186,0.9038,0.0,1.0731,1.1196,1.1231,1.0982,1.0712,1.0447,1.1081,1.1748,1.2395,1.3262,1.4156,1.5046,1.4736,1.4743,1.5079,1.4453,1.4501,1.5227,1.7936,1.9134,1.9312,2.2732,2.3315,2.1892,2.265,2.1996,2.0536,2.0508,2.0543,2.0591,2.0535,2.0501,2.0498,2.0498,2.0453,2.0388,2.032,2.0245,2.0167,2.0036,1.9997,2.0001,1.9999,2.0,1.982,1.9039,1.8703,1.8117,1.635,1.5841,1.5511,1.4605,1.4399,1.4399,1.4401,1.4889,1.528,1.5202,1.5641,1.5731,1.4917,1.5302,1.539,1.4612,1.4506,1.4487,1.447,1.3836,1.3405,1.3405,1.3388,1.35,1.3753,1.3761,1.3844,1.4026,1.3975,1.3909,1.3833,1.3782,1.3428,1.2801,1.4084,1.4069,1.2913,1.4839,1.5402,0.2467,0.0,0.4044,0.4335,0.5004,0.5571,0.5429,0.5754,0.6111,0.6268,0.6271,0.6432,0.7066,0.737,0.774,0.8368,0.853,0.8731,0.918,0.8997,0.8724,0.8478,0.8418,0.0,0.0,0.0,0.0,0.9954,0.9582,0.9291,0.9203,0.9705,1.0126,1.0405,1.0956,1.1185,1.1053,1.0934,1.1677,1.3225,1.5321,1.6437,1.6644,1.7079,1.8485,2.0634,2.1342,2.2314,2.3369,2.3106,2.2332,2.1236,2.071,2.0507,2.0534,2.0508,2.0503,2.0498,2.0501,2.0461,2.0387,2.0324,2.0221,2.0116,2.0035,1.9998,2.0007,1.9998,2.0002,1.994,1.9675,1.9104,1.8298,1.7112,1.6301,1.556,1.4656,1.4435,1.4399,1.4404,1.5393,1.6182,1.6022,1.6923,1.7125,1.5571,1.5125,1.4869,1.4595,1.4568,1.4355,1.3828,1.3549,1.3405,1.3405,1.3405,1.3517,1.3775,1.3803,1.3894,1.4087,1.4036,1.3975,1.39,1.3402,1.3463,1.4129,1.3688,1.3927,1.4802,1.502,1.5245,0.1874,0.2493,0.3139,0.3692,0.4235,0.4615,0.4668,0.4917,0.5126,0.5108,0.5034,0.513,0.5594,0.5865,0.6205,0.6813,0.7021,0.7306,0.7827,0.7771,0.7554,0.7246,0.7487,0.75,0.0,0.0,0.0,0.8815,0.8702,0.8517,0.8434,0.8744,0.8928,0.8908,0.9179,0.9188,0.8929,0.8812,0.9614,1.1332,1.3742,1.4946,1.5052,1.5662,1.7015,1.8892,1.9638,2.1051,2.282,2.2469,2.2087,2.1677,2.1136,2.0748,2.0503,2.0468,2.0458,2.0474,2.0486,2.0473,2.0419,2.0301,2.0208,2.0111,2.0004,1.9959,1.9971,1.9991,1.9984,1.9956,1.9959,1.9533,1.8868,1.7945,1.6978,1.602,1.5125,1.4627,1.4358,1.4358,1.5631,1.6641,1.6422,1.7267,1.7519,1.619,1.5187,1.4467,1.4211,1.4169,1.3964,1.3455,1.3405,1.3405,1.3405,1.3405,1.3552,1.3893,1.4058,1.4279,1.4551,1.4653,1.4566,1.4255,1.3995,1.4062,1.4438,1.4054,1.442,1.5446,1.5245,1.5394,0.082,0.1465,0.2236,0.2925,0.3434,0.3847,0.4101,0.4385,0.4542,0.43,0.4269,0.4274,0.0,0.0,0.4537,0.5103,0.5072,0.5383,0.6532,0.6374,0.6179,0.0,0.0,0.0,0.0,0.0,0.0,0.7753,0.0,0.8322,0.8119,0.8242,0.8228,0.8027,0.8099,0.8343,0.8778,0.8468,0.8707,0.9493,0.9962,1.033,1.0639,1.3576,1.467,1.4456,1.7689,1.9604,2.0466,2.0912,2.1395,2.1837,2.1731,2.1198,2.0486,2.042,2.0392,2.0398,2.0466,2.0487,2.0463,2.0259,2.0196,2.0148,1.995,1.9894,1.9905,1.9966,1.9934,1.9884,1.9884,1.9943,1.9732,1.8688,1.7747,1.6826,1.5852,1.4937,1.43,1.43,1.5599,1.6661,1.6532,1.6825,1.699,1.6738,1.5477,1.4284,1.3549,1.3422,1.3405,1.3405,1.3405,1.3405,1.3405,1.343,1.3664,1.4127,1.4605,1.5037,1.5444,1.5806,1.565,1.4907,1.5467,1.5118,1.3849,1.5125,1.5446,1.4871,1.5506,1.5799,0.0729,0.1159,0.1632,0.1804,0.1941,0.2057,0.2122,0.2176,0.2214,0.2291,0.2387,0.2522,0.0,0.0,0.0,0.3865,0.4259,0.0,0.5315,0.5299,0.0,0.594,0.0,0.5885,0.579,0.5885,0.0,0.0,0.6733,0.7433,0.8074,0.8365,0.8489,0.8459,0.8551,0.8643,0.8649,0.8475,0.8737,0.943,0.9841,0.9978,0.992,1.1424,1.2789,1.4019,1.5462,1.7963,2.1001,2.1022,2.1601,2.2406,2.1856,2.1133,2.0416,2.0349,2.0328,2.0331,2.0353,2.035,2.0331,2.0164,2.0086,2.0017,1.9868,1.9828,1.9832,1.985,1.9844,1.9832,1.9832,1.9844,1.9477,1.7956,1.7307,1.663,1.5189,1.4569,1.4301,1.4303,1.5599,1.6975,1.7816,1.8045,1.779,1.6846,1.591,1.5054,1.4309,1.3743,1.3405,1.3405,1.3405,1.3405,1.3405,1.3895,1.4419,1.4891,1.5364,1.5807,1.6197,1.6085,1.565,1.4907,1.4995,1.4893,1.4543,1.4893,1.5215,1.5551,1.5724,1.5799,0.0387,0.0594,0.0829,0.103,0.1104,0.114,0.1358,0.1351,0.1325,0.1449,0.148,0.0,0.0,0.0,0.0,0.0,0.0,0.0,0.4043,0.4081,0.424,0.0,0.4768,0.0,0.4426,0.4781,0.5005,0.0,0.5915,0.6624,0.6996,0.7226,0.7391,0.7447,0.7575,0.7818,0.8126,0.8418,0.8883,0.9499,1.0101,1.0442,1.0541,1.1162,1.185,1.2589,0.0,1.5936,1.9428,1.9856,2.1258,2.3059,2.2285,2.1544,2.0845,2.0439,2.0283,2.0257,2.0265,2.0259,2.0246,2.0127,2.0045,1.9969,1.9843,1.9779,1.976,1.9795,1.9782,1.9763,1.9763,1.9492,1.8979,1.8012,1.7104,1.6233,1.5318,1.4672,1.4359,1.4706,1.5794,1.693,1.7776,1.7948,1.7683,1.6829,1.58,1.4968,1.4554,1.3862,1.3405,1.3405,1.3405,1.3523,1.3862,1.4258,1.4751,1.5347,1.5711,1.5988,1.6184,1.6063,1.5514,1.4488,1.4971,1.4953,1.4363,1.4953,1.5425,1.5799,1.5799,1.5799,0.0,0.0,0.009,0.0515,0.0607,0.0724,0.1119,0.1171,0.1132,0.1116,0.0,0.0977,0.0901,0.1279,0.1547,0.136,0.0,0.2365,0.2892,0.2926,0.2986,0.3307,0.3379,0.3203,0.2684,0.3264,0.3818,0.4252,0.5269,0.5802,0.5684,0.5788,0.5912,0.6028,0.6132,0.6591,0.744,0.8253,0.8925,0.9455,1.0358,1.104,1.1489,1.1698,1.1473,1.0922,1.1798,1.3917,1.6816,1.7773,2.0119,2.3038,2.2248,2.1671,2.1205,2.0513,2.0218,2.0177,2.0189,2.0203,2.019,2.0097,2.0031,1.9963,1.9811,1.9732,1.9696,1.9748,1.9722,1.9655,1.9543,1.9002,1.8396,1.8133,1.6916,1.5766,1.564,1.4869,1.4441,1.5242,1.5962,1.6579,1.701,1.7105,1.7001,1.6627,1.5375,1.4477,1.4477,1.3853,1.3405,1.3405,1.3405,1.3701,1.4444,1.4579,1.495,1.5687,1.5914,1.5992,1.5915,1.5962,1.5311,1.3915,1.5144,1.514,1.3797,1.5148,1.5799,1.5799,1.5799,1.5799,0.0,0.0,0.0022,0.0112,0.013,0.0144,0.0226,0.0229,0.0,0.0,0.0298,0.0415,0.0356,0.0771,0.1089,0.0998,0.0,0.0,0.0,0.0,0.2449,0.0,0.0,0.0,0.0,0.0,0.0,0.0,0.3927,0.4657,0.6017,0.6109,0.6127,0.6157,0.608,0.6408,0.7163,0.7643,0.812,0.8626,0.9784,1.0299,1.0324,1.1057,1.1146,1.0773,1.1247,0.0,1.4873,1.4845,1.6896,1.9989,1.9296,1.9497,2.0172,2.0079,2.0036,2.0045,2.0159,2.0196,2.0168,1.9995,1.9932,1.9873,1.9633,1.9583,1.9611,1.956,1.9537,1.9381,1.8713,1.8439,1.7999,1.6649,1.6062,1.5588,1.4809,1.441,1.4441,1.5242,1.5512,1.5787,1.6365,1.6335,1.6148,1.591,1.5037,1.4396,1.4342,1.3792,1.3405,1.3405,1.3405,1.3701,1.4444,1.5014,1.5641,1.6385,1.6555,1.661,1.6546,1.6143,1.5267,1.3837,1.5124,1.514,1.3797,1.5148,1.5799,1.5799,1.5799,1.5799,-0.0356,-0.0538,-0.0718,-0.0718,-0.0704,-0.0672,-0.0625,0.0,0.0,0.0,-0.0201,-0.0105,-0.0068,0.0,0.0,0.0,0.0,0.0,0.0,0.0,0.0,0.0,0.0,0.0,0.0,0.0,0.0,0.2653,0.2959,0.3735,0.5093,0.5256,0.5391,0.5527,0.5698,0.6028,0.6517,0.7369,0.7907,0.815,0.947,1.0222,1.0468,1.0888,1.1023,1.0922,1.1247,1.2502,1.4276,1.4033,1.6249,1.9663,1.8534,1.9017,2.033,2.001,1.987,1.987,2.0039,2.0064,2.002,1.9849,1.9816,1.9813,1.9614,1.9546,1.9543,1.951,1.917,1.8735,1.8356,1.7632,1.6796,1.6031,1.5401,1.483,1.435,1.4174,1.421,1.46,1.504,1.5413,1.5589,1.5494,1.5323,1.5153,1.436,1.3755,1.3729,1.3471,1.3312,1.3337,1.3354,1.3658,1.4427,1.5104,1.5805,1.6549,1.6858,1.6922,1.6709,1.632,1.5547,1.4341,1.529,1.5305,1.4318,1.5326,1.5799,1.5799,1.5799,1.5799,-0.0831,-0.1112,-0.1386,-0.1373,-0.1353,-0.1293,-0.1184,-0.1093,0.0,0.0,-0.0601,-0.058,-0.0493,0.0,0.0,0.0,0.0,0.0,0.0,0.0,0.0,0.0,0.0,0.0,0.0,0.0,0.0,0.179,0.2347,0.3099,0.4022,0.4272,0.4544,0.4846,0.5234,0.5591,0.5921,0.7098,0.7741,0.7824,0.9105,1.0024,1.0637,1.0769,1.0896,1.1074,1.1251,1.225,1.3702,1.3174,1.5464,1.917,1.7658,1.8462,2.042,1.9894,1.9692,1.9694,1.9894,1.992,1.9847,1.971,1.972,1.9771,1.9589,1.9523,1.9455,1.9265,1.8707,1.81,1.7748,1.6731,1.5737,1.5574,1.4864,1.4193,1.4134,1.4049,1.3979,1.3979,1.4527,1.4944,1.4787,1.4626,1.4494,1.4384,1.37,1.3192,1.3183,1.3192,1.3218,1.3269,1.3278,1.3598,1.4391,1.5066,1.5785,1.6533,1.689,1.6947,1.6691,1.6375,1.5753,1.4818,1.5455,1.5462,1.4803,1.5462,1.5799,1.5799,1.5799,1.5799,-0.1244,-0.1326,-0.1376,-0.1322,-0.1342,-0.132,-0.1081,0.0,0.0,-0.097,-0.0948,-0.0971,-0.1017,-0.0808,-0.0568,0.0,0.0,0.0045,0.0,0.0,0.0,0.0,0.0,0.0,0.0,0.0,0.0,0.1762,0.2347,0.2986,0.3626,0.3907,0.4244,0.4715,0.4875,0.5175,0.562,0.6532,0.7182,0.7545,0.8359,0.9066,0.9744,1.0279,1.0671,1.0922,1.082,1.1357,0.0,1.0564,1.2504,1.6338,1.4915,1.6435,1.9439,1.944,1.9475,1.955,1.9751,1.9816,1.9781,1.9582,1.9648,1.9735,1.9416,1.9409,1.9328,1.8465,1.8168,1.7773,1.6311,1.5815,1.5539,1.487,1.4447,1.4204,1.4191,1.4038,1.3911,1.3911,1.3963,1.4016,1.4001,1.3792,1.3623,1.3598,1.3371,1.318,1.3119,1.3154,1.3206,1.3206,1.3209,1.3511,1.4256,1.4926,1.5664,1.6459,1.6596,1.6641,1.6615,1.6116,1.5519,1.4818,1.5455,1.5462,1.4803,1.5462,1.5799,1.5799,1.5799,1.5799,-0.1696,-0.1956,-0.2186,-0.2191,-0.2347,-0.2368,-0.1892,0.0,-0.1852,-0.135,-0.1245,-0.1208,-0.1118,-0.1016,-0.0918,-0.0831,-0.0732,-0.0579,-0.0338,0.0,0.0,0.0,0.0,0.0,0.0,0.0,0.0617,0.1205,0.1818,0.2264,0.2514,0.3241,0.3801,0.4158,0.471,0.5067,0.5175,0.6399,0.7052,0.7157,0.8043,0.8755,0.9268,1.0075,1.06,1.0922,1.1347,1.159,0.0,1.061,1.2351,1.5512,1.4383,1.6063,1.9111,1.9059,1.9166,1.934,1.9499,1.9614,1.9653,1.9449,1.9458,1.942,1.8675,1.8525,1.8423,1.7561,1.697,1.6451,1.5812,1.5222,1.4735,1.4528,1.4206,1.3977,1.4058,1.3922,1.3777,1.3777,1.3841,1.4037,1.4486,1.4313,1.4092,1.4093,1.3896,1.3571,1.3106,1.3101,1.3145,1.3145,1.3181,1.3317,1.3602,1.4658,1.5435,1.5762,1.6641,1.6979,1.6623,1.6388,1.6007,1.5416,1.5664,1.5671,1.5395,1.5671,1.5799,1.5799,1.5799,1.5799,-0.2131,-0.2397,-0.2664,-0.2651,-0.2892,-0.2974,0.0,-0.2404,-0.2336,-0.1736,-0.1603,-0.1561,-0.142,-0.1348,-0.1307,-0.1312,-0.1219,-0.1095,-0.0878,-0.0813,0.0,0.0,0.0,0.0,0.0,-0.0056,0.0252,0.0841,0.1289,0.1595,0.1734,0.249,0.3131,0.3574,0.4405,0.4846,0.4899,0.6018,0.6672,0.6915,0.7747,0.8355,0.8801,0.9777,1.0324,1.0534,1.1171,1.1366,0.0,1.0647,1.2067,1.4573,1.4108,1.5692,1.8266,1.8606,1.8895,1.9134,1.9292,1.9431,1.9512,1.9309,1.913,1.8799,1.7795,1.7705,1.7748,1.6716,1.585,1.5252,1.5252,1.4732,1.4218,1.4319,1.4048,1.3799,1.3891,1.3766,1.3653,1.3669,1.375,1.3988,1.4493,1.4521,1.4403,1.4185,1.429,1.4055,1.3093,1.3212,1.3297,1.3073,1.3119,1.3172,1.3174,1.448,1.53,1.53,1.6592,1.7125,1.6615,1.6522,1.6274,1.5813,1.5799,1.5799,1.5799,1.5799,1.5799,1.5799,1.5799,1.5896,-0.2498,-0.254,-0.2555,-0.2363,-0.2603,-0.2789,0.0,-0.2304,-0.2267,-0.2124,-0.2091,-0.2091,-0.2093,-0.1927,-0.1792,-0.1793,-0.1516,-0.1387,-0.1645,-0.1576,0.0,0.0,0.0,0.0,0.0,-0.0165,0.0252,0.0841,0.0897,0.0,0.1566,0.1734,0.2209,0.3074,0.382,0.4427,0.4899,0.5169,0.5857,0.6906,0.7313,0.7744,0.8245,0.9328,0.9696,0.9522,0.9808,1.0296,0.0,1.0047,1.1019,1.3095,1.3743,1.4995,1.6597,1.8067,1.8734,1.893,1.9126,1.9289,1.9367,1.9171,1.8615,1.7833,1.6818,1.7165,1.7572,1.5957,1.4982,1.4413,1.4413,1.4308,1.4207,1.4198,1.3949,1.3697,1.3697,1.3607,1.352,1.3587,1.3595,1.361,1.3614,1.405,1.4153,1.3421,1.4329,1.4562,1.3087,1.3601,1.3775,1.299,1.3022,1.3093,1.3093,1.4445,1.5303,1.5303,1.6363,1.6879,1.6615,1.6348,1.608,1.5813,1.5799,1.5799,1.5799,1.5799,1.5799,1.5799,1.5799,1.6114,-0.2676,-0.2716,-0.2747,-0.2767,-0.3046,-0.3178,-0.2681,-0.2613,-0.2541,-0.2171,-0.206,-0.2049,-0.2091,-0.2047,-0.2124,-0.2496,-0.2114,0.0,0.0,0.0,0.0,0.0,0.0,0.0,0.0,0.0,0.0084,0.028,0.0673,0.0953,0.1121,0.1345,0.1932,0.2933,0.3599,0.4098,0.4427,0.5148,0.5616,0.5828,0.7042,0.761,0.7643,0.9134,0.9761,0.9744,1.0229,1.0575,1.074,1.0433,1.123,1.2746,1.365,1.4962,1.6492,1.7831,1.8518,1.8771,1.8843,1.8957,1.8925,1.8181,1.7806,1.7394,1.592,1.5807,1.5978,1.4977,1.4513,1.433,1.4331,1.4232,1.413,1.413,1.3911,1.3701,1.3701,1.3583,1.3512,1.3529,1.3537,1.3691,1.4204,1.4695,1.4941,1.4702,1.5292,1.5427,1.4463,1.4165,1.3953,1.3733,1.3726,1.3735,1.3781,1.4715,1.5527,1.6022,1.6648,1.6879,1.6615,1.634,1.6072,1.5813,1.5799,1.5799,1.5799,1.5799,1.5799,1.5799,1.5799,1.6114,0.0,-0.2806,-0.2814,-0.2874,-0.3123,-0.3228,-0.2736,-0.264,-0.2534,-0.2147,-0.2107,-0.2167,-0.2201,-0.2292,-0.2479,-0.2811,-0.2503,-0.2265,0.0,0.0,0.0,0.0,0.0,0.0,0.0,-0.0889,-0.0252,-0.0028,0.0561,0.0869,0.0813,0.1038,0.1485,0.221,0.2989,0.3653,0.4205,0.4954,0.5369,0.5422,0.6753,0.7378,0.7423,0.8683,0.9352,0.9493,0.9838,1.0136,0.0,1.0186,1.0701,1.175,1.3342,1.4529,1.5578,1.744,1.827,1.849,1.8593,1.866,1.8609,1.7982,1.7408,1.6668,1.5069,1.4723,1.4784,1.432,1.4219,1.4258,1.4262,1.413,1.3993,1.3993,1.3786,1.3592,1.3592,1.352,1.3454,1.3462,1.3462,1.3624,1.4102,1.4759,1.5151,1.4924,1.5515,1.5743,1.5056,1.4626,1.4382,1.44,1.4413,1.4529,1.4829,1.5365,1.5871,1.6334,1.6767,1.6879,1.6615,1.634,1.6072,1.5813,1.5799,1.5799,1.5799,1.5799,1.5799,1.5799,1.5799,1.6256,0.0,-0.279,-0.277,-0.2717,-0.2885,-0.2979,-0.2584,-0.246,0.0,-0.2088,-0.2243,-0.2435,-0.2454,-0.2648,-0.2821,-0.2904,-0.2753,0.0,0.0,0.0,0.0,0.0,0.0,0.0,-0.18,-0.1288,-0.0727,-0.0112,0.0505,0.0813,0.0729,0.0813,0.0954,0.1122,0.2124,0.3125,0.4095,0.4622,0.512,0.5565,0.6465,0.712,0.7509,0.8095,0.8567,0.0,0.8811,0.9169,0.9798,0.9443,0.9622,1.0373,1.291,1.3858,1.4131,1.6967,1.8035,1.813,1.8378,1.8429,1.8357,1.8246,1.7206,1.5731,1.4304,1.3927,1.3984,1.4007,1.4089,1.4194,1.4201,1.401,1.3809,1.3801,1.36,1.3396,1.3388,1.3388,1.3388,1.3387,1.3404,1.3421,1.3479,1.434,1.4833,1.4269,1.5056,1.5523,1.503,1.4981,1.4994,1.4991,1.509,1.5425,1.6049,1.6215,1.6321,1.637,1.6751,1.6853,1.6615,1.6326,1.6045,1.5799,1.5799,1.5799,1.5799,1.5799,1.5799,1.5799,1.5844,1.6518,-0.2715,0.0,-0.2706,-0.2641,-0.2791,-0.2859,0.0,-0.2567,-0.2625,0.0,0.0,-0.2767,-0.2977,-0.2898,-0.3072,-0.3894,-0.3433,-0.305,0.0,0.0,0.0,0.0,0.0,-0.235,-0.2385,-0.1892,-0.1342,-0.0727,-0.014,0.0393,0.0841,0.0785,0.0897,0.1235,0.1847,0.2459,0.3041,0.4288,0.4954,0.5091,0.6315,0.7106,0.7509,0.7759,0.8337,0.9101,0.8524,0.8988,1.0147,0.9543,0.9681,1.0494,1.2951,1.3833,1.4067,1.6943,1.8007,1.8042,1.8148,1.8148,1.7898,1.6727,1.5742,1.4865,1.3956,1.3793,1.3928,1.3995,1.4019,1.4069,1.4172,1.408,1.3911,1.376,1.3599,1.3429,1.3286,1.3295,1.332,1.332,1.3362,1.3413,1.3421,1.3887,1.4212,1.4069,1.4514,1.5049,1.5534,1.5148,1.51,1.5749,1.5801,1.5866,1.608,1.6177,1.6492,1.7103,1.6807,1.6612,1.6602,1.6143,1.5855,1.5799,1.5799,1.5799,1.5799,1.5799,1.5799,1.5814,1.6263,1.6913,-0.2519,-0.2853,-0.3192,-0.3154,-0.3367,-0.3509,-0.3204,0.0,0.0,0.0,0.0,0.0,-0.3167,-0.3181,-0.344,-0.4262,-0.3832,0.0,0.0,0.0,0.0,0.0,0.0,-0.2674,0.0,-0.2132,-0.1678,-0.1342,-0.0504,0.014,0.0477,0.0673,0.0813,0.0897,0.168,0.2293,0.2708,0.4177,0.4899,0.4926,0.6048,0.6731,0.6997,0.7349,0.7942,0.8678,0.8361,0.8898,0.9952,0.9498,0.9578,1.0229,1.2868,1.3803,1.3996,1.6816,1.7803,1.7755,1.792,1.7698,1.7171,1.6027,1.5183,1.4478,1.3766,1.3648,1.3783,1.3842,1.3929,1.4025,1.4087,1.3991,1.383,1.3731,1.3535,1.3337,1.3218,1.3227,1.3252,1.3252,1.3278,1.332,1.3354,1.3636,1.3889,1.3985,1.3999,1.4419,1.5555,1.5121,1.5147,1.6298,1.639,1.6423,1.6544,1.6584,1.6803,1.7281,1.6769,1.6482,1.6541,1.5982,1.5675,1.5704,1.577,1.5799,1.5799,1.5799,1.5799,1.5814,1.6428,1.7062,-0.2377,-0.3096,-0.3787,-0.3611,-0.394,-0.4223,-0.3883,0.0,0.0,0.0,0.0,0.0,0.0,0.0,0.0,0.0,0.0,0.0,0.0,0.0,0.0,0.0,-0.2895,0.0,-0.2661,-0.2226,-0.1903,-0.1818,-0.0756,-0.0084,0.0,0.0561,0.0757,0.0449,0.1596,0.2321,0.2598,0.4067,0.4814,0.4899,0.5647,0.6141,0.6422,0.69,0.7474,0.8114,0.0,0.0,0.9682,0.9414,0.945,0.9973,1.2633,1.364,1.3907,1.6458,1.7383,1.7396,1.7624,1.7266,1.6592,1.5816,1.5166,1.4526,1.3735,1.3537,1.361,1.3678,1.3813,1.3963,1.3979,1.3824,1.3646,1.3646,1.3404,1.3166,1.3166,1.3175,1.3192,1.3201,1.3201,1.3218,1.3278,1.3417,1.3587,1.3774,1.3407,1.3672,1.5224,1.4916,1.513,1.6607,1.6797,1.6869,1.7049,1.7083,1.7095,1.7111,1.6652,1.6369,1.6346,1.5797,1.5529,1.558,1.5704,1.577,1.577,1.5784,1.5851,1.5949,1.6577,1.7212,-0.2711,-0.3381,-0.374,-0.2774,-0.3221,-0.3713,-0.3049,0.0,0.0,0.0,0.0,0.0,0.0,0.0,0.0,0.0,0.0,0.0,0.0,0.0,-0.2636,-0.235,0.0,-0.2478,-0.2456,-0.2517,-0.2352,-0.1846,-0.1146,-0.0531,-0.0028,0.0561,0.0813,0.0673,0.1652,0.2183,0.2097,0.3569,0.451,0.4897,0.5081,0.5601,0.6391,0.6311,0.6941,0.8092,0.0,0.8716,1.0157,0.9538,0.9657,1.0357,1.1984,1.3028,1.3802,1.5405,1.6524,1.7228,1.7211,1.7242,1.7073,1.5831,1.5423,1.5174,1.3829,1.3495,1.3603,1.361,1.3678,1.3767,1.3894,1.3678,1.3445,1.3445,1.3192,1.2953,1.3015,1.3084,1.3128,1.3189,1.32,1.3201,1.321,1.2972,1.2798,1.2891,1.2552,1.2838,1.4394,1.4484,1.5002,1.6465,1.6725,1.681,1.6836,1.6995,1.6978,1.6709,1.6463,1.6114,1.5675,1.5551,1.55,1.5514,1.5595,1.5624,1.5624,1.5733,1.6069,1.6585,1.7234,1.7908,-0.2523,-0.3249,-0.3751,-0.2939,-0.3653,-0.4463,-0.4129,0.0,0.0,0.0,0.0,0.0,0.0,0.0,0.0,0.0,0.0,-0.4354,-0.3906,-0.3455,-0.3085,0.0,0.0,-0.2561,-0.2412,-0.2493,-0.241,-0.2144,-0.1561,-0.1112,-0.0822,0.0,0.0409,0.0273,0.1221,0.1793,0.1986,0.293,0.39,0.4897,0.5078,0.5383,0.5804,0.6076,0.6536,0.716,0.0,0.8394,0.9288,0.9487,0.9631,0.9887,1.173,1.2607,1.3069,1.4949,1.6259,1.7093,1.706,1.695,1.664,1.566,1.5171,1.4746,1.3675,1.3412,1.3495,1.3537,1.3615,1.3713,1.3777,1.3598,1.3396,1.3396,1.314,1.2916,1.2942,1.2996,1.3066,1.3084,1.3112,1.3165,1.3182,1.2843,1.2574,1.2638,1.264,1.303,1.4095,1.4587,1.5254,1.6375,1.6543,1.6641,1.6797,1.6882,1.6779,1.6407,1.6199,1.5877,1.5411,1.5463,1.5485,1.5448,1.5514,1.5558,1.5595,1.5661,1.5876,1.6248,1.7203,1.7814,-0.2416,-0.3095,-0.3708,-0.341,0.0,-0.5009,-0.4987,0.0,0.0,0.0,0.0,0.0,0.0,0.0,0.0,0.0,-0.4566,-0.4508,-0.4096,-0.3741,-0.3385,-0.3081,-0.2837,-0.2599,-0.2403,-0.238,-0.2392,-0.2392,-0.184,-0.1489,-0.1489,-0.0492,0.0053,-0.0053,0.0837,0.1479,0.1832,0.2375,0.3391,0.4841,0.4988,0.5142,0.5275,0.5928,0.6264,0.6413,0.7526,0.8251,0.8728,0.9496,0.9734,0.98,1.1501,1.2319,1.2772,1.4793,1.6085,1.6866,1.6909,1.6641,1.6165,1.5489,1.4858,1.4217,1.3496,1.3329,1.3404,1.3404,1.3494,1.3588,1.362,1.3493,1.3345,1.3312,1.3087,1.2879,1.2906,1.2941,1.2977,1.2978,1.3031,1.3075,1.3083,1.2758,1.2496,1.2504,1.282,1.3306,1.4009,1.4732,1.5473,1.6274,1.6384,1.6484,1.6667,1.6707,1.6528,1.6085,1.5933,1.5683,1.5313,1.5396,1.5426,1.5388,1.544,1.55,1.5544,1.558,1.572,1.6009,1.7073,1.7664,-0.2759,-0.3143,-0.3533,-0.393,0.0,0.0,-0.4385,-0.4194,0.0,0.0,0.0,0.0,0.0,0.0,0.0,-0.5185,-0.4981,-0.4427,-0.3413,0.0,-0.2997,-0.2365,-0.2303,-0.2331,-0.2314,-0.2368,-0.2392,-0.2392,-0.184,-0.1489,-0.1489,-0.048,0.0101,0.0076,0.0888,0.1322,0.1347,0.2133,0.3222,0.4626,0.4457,0.4636,0.5127,0.5743,0.6196,0.6534,0.7554,0.8578,0.9524,0.973,1.0215,1.089,1.111,1.2137,1.3653,1.4871,1.5802,1.6463,1.6651,1.6503,1.61,1.5432,1.4766,1.4091,1.341,1.3303,1.3362,1.3176,1.3184,1.3261,1.3387,1.332,1.3184,1.3068,1.2914,1.2821,1.2884,1.2893,1.2912,1.2907,1.2961,1.295,1.2767,1.2598,1.2439,1.2259,1.2622,1.3197,1.3997,1.4694,1.5394,1.6139,1.633,1.6382,1.6342,1.6396,1.6203,1.5674,1.5681,1.5595,1.5306,1.5313,1.5306,1.5313,1.5374,1.5404,1.5404,1.5485,1.5869,1.656,1.7207,1.7864,-0.2483,-0.2953,-0.3502,-0.3928,0.0,0.0,0.0,0.0,0.0,0.0,0.0,0.0,0.0,0.0,-0.4574,-0.483,-0.4663,-0.425,-0.361,-0.3323,-0.3038,-0.2576,-0.234,-0.2248,-0.2248,-0.2257,-0.2278,-0.2278,-0.2068,-0.1926,-0.1926,-0.1225,-0.0827,-0.0827,-0.01,0.0479,0.0857,0.1285,0.2027,0.3062,0.3604,0.4179,0.4802,0.5119,0.572,0.6555,0.7426,0.8354,0.9297,1.0142,1.0592,1.0783,1.1199,1.2268,1.3628,1.3895,1.4907,1.6177,1.6295,1.6402,1.635,1.5346,1.4837,1.4404,1.315,1.2855,1.2952,1.2875,1.2902,1.2973,1.307,1.3026,1.2937,1.289,1.2841,1.2811,1.2829,1.2865,1.2901,1.2904,1.285,1.2786,1.2712,1.2451,1.2231,1.2149,1.2571,1.3162,1.3876,1.4636,1.5367,1.6054,1.6303,1.6336,1.6185,1.6309,1.617,1.563,1.5667,1.5587,1.5306,1.5298,1.5298,1.5298,1.5313,1.5359,1.5404,1.5433,1.5602,1.5935,1.6924,1.7538,-0.2362,-0.2907,-0.3537,0.0,0.0,0.0,0.0,0.0,0.0,0.0,0.0,0.0,0.0,0.0,0.0,0.0,-0.4469,-0.4162,-0.3765,-0.3413,-0.3081,-0.273,-0.24,-0.22,-0.22,-0.22,-0.22,-0.22,-0.22,-0.22,-0.22,-0.1682,-0.1402,-0.1402,-0.0815,-0.0243,0.0267,0.0535,0.1005,0.1673,0.2648,0.3439,0.404,0.4575,0.5267,0.6128,0.7231,0.8108,0.8872,1.0171,1.0788,1.0961,1.1737,1.2702,1.3648,1.3552,1.4531,1.5918,1.5921,1.5906,1.5752,1.4973,1.4437,1.3905,1.2832,1.2564,1.263,1.261,1.2647,1.2666,1.2682,1.2722,1.2761,1.2722,1.272,1.2747,1.2747,1.2811,1.2865,1.2865,1.2739,1.2618,1.2586,1.2309,1.2084,1.2013,1.2682,1.3356,1.3837,1.4754,1.5537,1.605,1.6234,1.622,1.5933,1.6143,1.6045,1.5411,1.5565,1.5558,1.5306,1.5298,1.5298,1.5298,1.5298,1.5313,1.5374,1.5374,1.5506,1.5815,1.6797,1.7384,-0.2503,-0.3038,-0.3614,0.0,0.0,0.0,0.0,0.0,0.0,0.0,0.0,-0.5667,-0.4589,0.0,0.0,-0.481,-0.4517,-0.4162,-0.3743,-0.3413,-0.3083,-0.273,-0.2398,-0.22,-0.22,-0.22,-0.22,-0.22,-0.22,-0.22,-0.22,-0.1703,-0.1411,-0.1411,-0.1074,-0.0738,-0.0403,0.0,0.0358,0.0693,0.1653,0.2344,0.2851,0.4178,0.4901,0.5204,0.6928,0.7923,0.8403,0.9766,1.0788,1.1622,1.2763,1.3442,1.3833,1.4102,1.4831,1.5681,1.5623,1.4937,1.4128,1.4252,1.3437,1.2421,1.2485,1.249,1.2486,1.2415,1.2401,1.2369,1.2234,1.2445,1.2654,1.2528,1.2546,1.2601,1.2601,1.2711,1.2802,1.2802,1.2638,1.2449,1.2317,1.2197,1.203,1.1845,1.2938,1.382,1.3905,1.5069,1.5942,1.6081,1.6159,1.6019,1.5544,1.5862,1.5754,1.4956,1.5344,1.5492,1.5313,1.5298,1.5298,1.5298,1.5298,1.5298,1.5298,1.5305,1.5677,1.6413,1.695,1.7607,-0.2709,-0.3109,0.0,0.0,0.0,0.0,0.0,0.0,0.0,0.0,0.0,-0.5104,-0.4506,0.0,0.0,-0.4727,-0.4517,-0.4074,-0.3434,-0.3258,-0.2994,-0.2422,-0.2267,-0.22,-0.22,-0.22,-0.22,-0.22,-0.22,-0.22,-0.22,-0.2042,-0.1994,-0.2034,-0.1387,-0.103,-0.103,-0.0314,0.0112,0.0224,0.1164,0.1901,0.2478,0.3503,0.4371,0.5189,0.6587,0.77,0.8646,1.047,1.1486,1.2007,1.2869,1.3297,1.3483,1.3694,1.432,1.5073,1.5097,1.4847,1.4472,1.4129,1.3478,1.2722,1.2164,1.2037,1.2076,1.2109,1.2148,1.2195,1.2203,1.2277,1.2351,1.2353,1.2481,1.2601,1.2601,1.2711,1.2802,1.2802,1.252,1.2281,1.2246,1.2,1.1954,1.2373,1.281,1.3465,1.4475,1.5357,1.5927,1.6025,1.6095,1.5941,1.5477,1.5639,1.5507,1.4948,1.5074,1.5142,1.5088,1.5216,1.5283,1.523,1.5283,1.5298,1.5298,1.5726,1.6054,1.6288,1.7398,1.8013,-0.2951,0.0,0.0,0.0,0.0,0.0,0.0,0.0,0.0,0.0,0.0,-0.5053,-0.4342,-0.4186,0.0,-0.4559,-0.4427,-0.4142,-0.37,-0.3391,-0.3061,-0.2641,-0.2355,-0.22,-0.22,-0.22,-0.22,-0.22,-0.22,-0.22,-0.22,-0.22,-0.2242,-0.2302,-0.1656,-0.1298,-0.1298,-0.056,-0.0135,0.0,0.0762,0.132,0.1701,0.2819,0.3737,0.4578,0.6484,0.8054,0.9398,1.0958,1.1806,1.2239,1.3247,1.3596,1.3574,1.3851,1.4259,1.4652,1.4416,1.4132,1.3784,1.3295,1.2764,1.2208,1.1737,1.1714,1.1869,1.1941,1.2012,1.208,1.2143,1.2182,1.2213,1.2249,1.2378,1.25,1.2547,1.2644,1.2711,1.2687,1.2398,1.2138,1.2084,1.1844,1.1904,1.2603,1.3209,1.4,1.5113,1.5637,1.5921,1.5962,1.6039,1.5905,1.5448,1.55,1.5359,1.4886,1.4927,1.495,1.492,1.5095,1.5193,1.52,1.523,1.5399,1.5653,1.6031,1.6465,1.7018,1.7824,1.8332,-0.32,0.0,0.0,0.0,0.0,0.0,0.0,0.0,0.0,0.0,0.0,-0.5286,-0.4098,-0.425,-0.4489,-0.4318,-0.4296,-0.4296,-0.4252,-0.3634,-0.3192,-0.3149,-0.2598,-0.22,-0.22,-0.22,-0.22,-0.22,-0.22,-0.22,-0.22,-0.2199,-0.2241,-0.2324,-0.1836,-0.1479,-0.1321,-0.0739,-0.0291,0.0,0.047,0.0695,0.0719,0.2217,0.321,0.3909,0.6538,0.8674,1.037,1.1207,1.1839,1.2384,1.3723,1.4094,1.39,1.4315,1.4461,1.4339,1.3678,1.3071,1.2506,1.2079,1.1591,1.1178,1.1276,1.1512,1.1776,1.1869,1.1952,1.202,1.2083,1.2143,1.2192,1.2192,1.2249,1.2333,1.2439,1.2536,1.2594,1.2568,1.236,1.2162,1.2086,1.1848,1.1929,1.268,1.3986,1.511,1.5724,1.5849,1.5878,1.5849,1.5998,1.5876,1.5389,1.5433,1.5292,1.4832,1.4871,1.4871,1.4801,1.4935,1.505,1.517,1.5185,1.5533,1.6197,1.6255,1.6953,1.8208,1.8267,1.8579,0.0,-0.3436,0.0,0.0,0.0,0.0,0.0,0.0,0.0,0.0,-0.4937,-0.4855,-0.3919,-0.3922,-0.4078,-0.4128,-0.4232,-0.4184,-0.3875,-0.3458,-0.3105,-0.284,-0.2443,-0.22,-0.22,-0.22,-0.22,-0.22,-0.22,-0.22,-0.22,-0.224,-0.2326,-0.246,-0.1746,-0.1366,-0.1389,-0.0538,-0.0067,0.0,0.047,0.0627,0.0517,0.2146,0.3918,0.574,0.6527,0.8148,1.0268,1.0924,1.1797,1.2747,1.3526,1.3696,1.356,1.396,1.4039,1.3865,1.3237,1.2762,1.2332,1.173,1.1198,1.0873,1.12,1.1348,1.1479,1.1816,1.1952,1.202,1.2083,1.2143,1.2192,1.2192,1.2249,1.2284,1.2197,1.2396,1.2673,1.2929,1.2921,1.2978,1.3253,1.2745,1.257,1.3369,1.468,1.5641,1.5784,1.5813,1.5719,1.5463,1.5748,1.5661,1.4987,1.5231,1.5239,1.4832,1.4801,1.4817,1.4801,1.4935,1.4989,1.4956,1.5124,1.5503,1.6114,1.67,1.7403,1.8216,1.8687,1.8978,0.0,0.0,0.0,0.0,0.0,0.0,0.0,0.0,0.0,-0.4335,-0.4398,-0.4376,-0.3884,-0.3858,-0.397,-0.417,-0.4254,-0.4228,-0.4008,-0.3524,-0.3126,-0.2951,-0.251,-0.22,-0.22,-0.22,-0.22,-0.22,-0.22,-0.22,-0.22,-0.2242,-0.2328,-0.2505,-0.1881,-0.1501,-0.1411,-0.0694,-0.0336,-0.0336,0.0134,0.0538,0.092,0.2142,0.3778,0.5671,0.6493,0.7986,0.9939,1.0927,1.199,1.3045,1.3507,1.3661,1.362,1.3862,1.3697,1.3271,1.2606,1.2095,1.1612,1.0952,1.061,1.0514,1.0796,1.1003,1.1199,1.1411,1.1541,1.1638,1.1744,1.1855,1.198,1.2041,1.2156,1.2221,1.212,1.2484,1.2849,1.2902,1.3174,1.3419,1.3541,1.3497,1.362,1.4103,1.5057,1.5733,1.5784,1.5799,1.5675,1.5337,1.5661,1.5566,1.4733,1.5111,1.5194,1.4686,1.4754,1.4801,1.4801,1.4865,1.4896,1.4902,1.4994,1.5528,1.6484,1.6939,1.7655,1.8585,1.8945,1.9101,0.0,0.0,0.0,0.0,0.0,0.0,0.0,0.0,0.0,-0.3971,-0.3936,-0.3928,-0.3808,-0.3818,-0.3914,-0.418,-0.4254,-0.4274,-0.4296,-0.3656,-0.3192,-0.3192,-0.2598,-0.22,-0.22,-0.22,-0.22,-0.22,-0.22,-0.22,-0.22,-0.2221,-0.2308,-0.2505,-0.206,-0.1725,-0.1522,-0.1051,-0.0828,-0.0806,-0.0269,0.0448,0.1297,0.2079,0.3382,0.5081,0.6307,0.7906,0.9722,1.0954,1.2164,1.3261,1.3504,1.3642,1.3691,1.3598,1.3216,1.2596,1.1772,1.1269,1.0847,1.014,0.9995,1.0154,1.0341,1.0636,1.0932,1.0986,1.1104,1.1231,1.1376,1.1519,1.1681,1.1826,1.198,1.2103,1.2175,1.2643,1.3038,1.2974,1.3516,1.389,1.3602,1.4169,1.4655,1.4668,1.5202,1.5639,1.5755,1.5733,1.558,1.5254,1.5558,1.5418,1.4485,1.4975,1.5089,1.4508,1.4639,1.4747,1.4747,1.4786,1.4832,1.4886,1.4886,1.5551,1.6885,1.7013,1.7726,1.8967,1.9014,1.9064,0.0,0.0,0.0,0.0,0.0,0.0,0.0,0.0,0.0,0.0,-0.3854,-0.3733,-0.3434,-0.3465,-0.3637,-0.3902,-0.4062,-0.4172,-0.4274,-0.3656,-0.3192,-0.3192,-0.2598,-0.22,-0.22,-0.22,-0.22,-0.22,-0.22,-0.22,-0.22,-0.2261,-0.2348,-0.2505,-0.2168,-0.1988,-0.201,-0.1544,-0.1298,-0.1298,-0.0425,0.0268,0.0824,0.1737,0.337,0.5508,0.5714,0.7444,1.0142,1.0697,1.189,1.3353,1.3228,1.3222,1.32,1.2516,1.2115,1.1774,1.0648,1.0501,1.0693,0.9847,0.9658,0.9854,1.0266,1.0484,1.0627,1.092,1.1104,1.1231,1.1376,1.1422,1.1468,1.1608,1.1659,1.1837,1.2412,1.2687,1.3073,1.3853,1.4594,1.4892,1.4282,1.4797,1.5103,1.4597,1.5138,1.561,1.5624,1.547,1.5239,1.4903,1.5164,1.5021,1.4133,1.4674,1.4851,1.4358,1.4458,1.454,1.454,1.4709,1.4801,1.4801,1.4871,1.5526,1.6816,1.6885,1.758,1.8836,1.8848,1.8901,-0.2358,-0.2902,-0.34,0.0,0.0,0.0,0.0,0.0,-0.3723,-0.3784,-0.3467,-0.3202,-0.328,-0.3417,-0.3562,-0.3752,-0.3955,-0.413,-0.417,-0.3614,-0.3192,-0.3192,-0.2598,-0.22,-0.22,-0.22,-0.22,-0.22,-0.22,-0.22,-0.22,-0.2261,-0.2369,-0.2505,-0.2437,-0.2302,-0.2099,-0.19,-0.1655,-0.1388,-0.0937,-0.0559,-0.0215,0.0884,0.2444,0.4341,0.4979,0.664,0.9009,1.0288,1.1821,1.3362,1.3053,1.2929,1.2803,1.1816,1.1204,1.0808,1.017,1.0018,1.0049,0.9591,0.9566,0.9743,0.9983,1.0135,1.0255,1.0441,1.0571,1.0675,1.0856,1.1283,1.1717,1.1844,1.2202,1.2666,1.3304,1.3315,1.3511,1.4602,1.508,1.5211,1.4906,1.5124,1.5278,1.5038,1.5279,1.5514,1.5595,1.5359,1.5195,1.5244,1.5375,1.5298,1.4884,1.5083,1.5056,1.4661,1.4486,1.4427,1.4501,1.4571,1.4671,1.4801,1.4832,1.5468,1.6733,1.6806,1.7498,1.8728,1.8791,1.8829,-0.2381,-0.2812,-0.3122,-0.3439,0.0,0.0,0.0,0.0,-0.3618,0.0,-0.3167,-0.28,-0.31,-0.3255,-0.3393,-0.3567,-0.3765,-0.3929,-0.4036,-0.3494,-0.3134,-0.3189,-0.2598,-0.22,-0.22,-0.22,-0.22,-0.22,-0.22,-0.22,-0.22,-0.2261,-0.2369,-0.2505,-0.264,-0.2572,-0.2302,-0.2302,-0.2112,-0.1718,-0.1444,-0.1205,-0.0967,0.0157,0.1503,0.2984,0.411,0.5854,0.8055,0.9655,1.1365,1.2947,1.2644,1.2471,1.2252,1.1078,1.0374,0.9958,0.9675,0.9531,0.9479,0.9316,0.9421,0.9612,0.9678,0.9835,1.0008,1.0078,1.0148,1.0275,1.064,1.1274,1.1894,1.2183,1.2708,1.3314,1.3934,1.3967,1.4151,1.5087,1.5298,1.5298,1.5298,1.5298,1.5321,1.5374,1.5314,1.5337,1.5529,1.5271,1.5198,1.5531,1.5652,1.5643,1.551,1.5533,1.5406,1.5079,1.4805,1.464,1.4597,1.4678,1.4805,1.497,1.5008,1.5581,1.6701,1.675,1.7422,1.8653,1.869,1.8733,-0.2306,-0.2334,0.0,0.0,0.0,0.0,0.0,0.0,0.0,-0.3642,-0.3167,-0.2703,-0.2733,-0.2846,-0.3015,-0.3269,-0.3338,-0.3477,-0.3858,-0.3278,-0.2907,-0.3178,-0.2598,-0.22,-0.22,-0.22,-0.22,-0.22,-0.22,-0.22,-0.22,-0.2261,-0.2369,-0.2505,-0.264,-0.2754,-0.2866,-0.2866,-0.2787,-0.263,-0.1736,-0.1205,-0.098,-0.0074,0.0891,0.1934,0.3018,0.5201,0.8044,0.8725,1.0098,1.179,1.1773,1.1678,1.1408,1.0137,0.9568,0.9363,0.885,0.8914,0.9191,0.8988,0.9103,0.9334,0.9402,0.9686,1.0008,1.0078,1.0148,1.0385,1.115,1.1481,1.1796,1.2499,1.2837,1.3192,1.3856,1.4497,1.4987,1.5163,1.5268,1.5298,1.5298,1.5298,1.5298,1.5306,1.5088,1.5036,1.5374,1.5161,1.5124,1.5474,1.5783,1.5855,1.5531,1.5788,1.5823,1.5485,1.5564,1.5409,1.4903,1.5179,1.5382,1.5466,1.559,1.5993,1.6701,1.6701,1.7334,1.8517,1.851,1.8576,-0.2161,-0.2361,0.0,0.0,0.0,0.0,0.0,-0.3455,-0.3325,-0.3427,-0.3041,-0.2698,-0.2698,-0.2805,-0.2942,-0.3081,-0.3254,-0.3439,-0.3668,-0.3342,-0.3037,-0.3001,-0.2596,-0.2304,-0.2216,-0.22,-0.22,-0.22,-0.22,-0.2151,-0.207,-0.2172,-0.225,-0.231,-0.2447,-0.255,-0.2633,-0.2653,-0.2609,-0.2566,-0.2139,-0.1861,-0.1678,-0.0847,0.0,0.0911,0.2193,0.4231,0.6807,0.8694,0.9895,1.0606,1.1258,1.1031,1.0233,0.925,0.8782,0.8609,0.8455,0.8497,0.8645,0.8789,0.8956,0.9137,0.9295,0.9593,0.9905,1.0053,1.0122,1.0315,1.1077,1.1743,1.2553,1.3755,1.4103,1.4226,1.4459,1.4779,1.5035,1.5178,1.5253,1.5298,1.5298,1.5298,1.5298,1.5298,1.5048,1.5122,1.595,1.5315,1.5282,1.6518,1.6343,1.6238,1.6552,1.6382,1.6197,1.6088,1.5759,1.5379,1.4915,1.5506,1.5744,1.5505,1.6061,1.6649,1.7274,1.7274,1.7702,1.8498,1.8498,1.8537,-0.2078,0.0,0.0,0.0,0.0,0.0,0.0,0.0,-0.3004,-0.3162,-0.2889,-0.2652,-0.2689,-0.2781,-0.2848,-0.2928,-0.3074,-0.3274,-0.3474,-0.3177,-0.291,-0.2867,-0.2498,-0.2214,-0.2143,-0.2131,-0.2143,-0.2198,-0.2148,0.0,-0.2,-0.2135,-0.2229,-0.2296,-0.2386,-0.2501,-0.2675,-0.2559,-0.2596,-0.2797,-0.2458,-0.22,-0.2013,-0.1241,-0.0401,0.0534,0.1853,0.3607,0.5684,0.8172,0.9281,0.9535,1.0661,1.0435,0.9395,0.882,0.841,0.8143,0.8233,0.82,0.8147,0.8414,0.8593,0.8747,0.9041,0.9348,0.9652,0.9919,1.0021,1.0193,1.0909,1.1982,1.3176,1.4403,1.4747,1.4801,1.4801,1.4887,1.4996,1.5118,1.5215,1.523,1.5154,1.523,1.5215,1.4994,1.477,1.494,1.5848,1.5272,1.5362,1.6844,1.6685,1.6651,1.7089,1.6852,1.6663,1.6663,1.6284,1.5871,1.5429,1.5964,1.6172,1.6009,1.6591,1.7222,1.7906,1.7702,1.792,1.8498,1.8498,1.8498,0.0,0.0,0.0,0.0,0.0,0.0,-0.3348,0.0,-0.2428,-0.289,-0.2721,-0.2532,-0.2657,-0.2689,-0.2724,-0.2775,-0.2797,-0.2919,-0.3251,-0.2784,-0.2509,-0.2757,-0.2266,-0.1933,-0.1984,-0.1993,-0.2051,-0.2185,-0.2085,-0.2013,-0.201,-0.2145,-0.2303,-0.2511,-0.249,-0.2644,-0.299,-0.2664,-0.2786,-0.3347,-0.2662,-0.2171,-0.1867,-0.1219,-0.03,0.0851,0.2004,0.3327,0.4841,0.7078,0.8169,0.8558,0.995,0.9855,0.8935,0.8818,0.8431,0.7998,0.8134,0.7971,0.77,0.785,0.7993,0.8176,0.864,0.8984,0.9272,0.9678,0.9841,1.0063,1.0726,1.2126,1.3562,1.4304,1.4627,1.4765,1.4786,1.4832,1.4887,1.4967,1.5095,1.5109,1.4832,1.5056,1.5056,1.4406,1.4314,1.4505,1.5066,1.506,1.5376,1.633,1.677,1.6981,1.7002,1.7102,1.7179,1.7199,1.7186,1.6937,1.6415,1.6547,1.6735,1.6984,1.7203,1.7692,1.8478,1.7901,1.7934,1.8498,1.8498,1.8498,-0.2335,0.0,0.0,0.0,0.0,0.0,0.0,0.0,-0.2392,-0.2475,-0.2376,-0.229,-0.2333,-0.246,-0.2579,-0.2643,-0.2741,-0.288,-0.3124,-0.2842,-0.2604,-0.258,-0.2265,-0.2009,-0.1931,-0.1919,-0.195,0.0,-0.2132,-0.2238,-0.2294,-0.2363,-0.2574,-0.2919,-0.2472,-0.2403,-0.2784,-0.2697,-0.2573,-0.2467,-0.2791,-0.2432,-0.146,-0.1369,-0.0684,0.052,0.1905,0.3056,0.4196,0.6941,0.7495,0.6855,0.9213,0.9198,0.7879,0.8126,0.7878,0.7467,0.7797,0.7622,0.7338,0.7763,0.7931,0.8026,0.8405,0.8803,0.919,0.9434,0.9705,1.009,1.091,1.1922,1.2919,1.3614,1.3751,1.3907,1.4641,1.4392,1.4146,1.4564,1.4935,1.504,1.4534,1.4723,1.4786,1.4358,1.4416,1.482,1.564,1.5607,1.5911,1.6947,1.6893,1.684,1.6981,1.6683,1.668,1.7173,1.6833,1.6545,1.6402,1.6956,1.7097,1.6786,1.74,1.7832,1.8063,1.8186,1.8336,1.8498,1.8498,1.8498,0.0,0.0,0.0,0.0,0.0,0.0,-0.2294,-0.2167,0.0,0.0,-0.2061,-0.207,-0.2184,-0.2292,-0.2393,-0.2422,-0.2599,-0.2801,-0.3064,-0.2794,-0.254,-0.2466,-0.2127,-0.1868,-0.1815,-0.1824,-0.184,-0.1898,-0.2036,-0.2226,-0.2428,-0.2637,-0.2874,-0.314,-0.2762,-0.2744,-0.312,-0.2975,-0.2942,-0.3019,-0.3169,-0.2885,-0.2203,-0.1631,-0.0932,-0.0067,0.1609,0.2565,0.3204,0.6437,0.7172,0.6528,0.9028,0.893,0.7455,0.785,0.7637,0.72,0.7456,0.7338,0.7131,0.7549,0.771,0.7816,0.826,0.8553,0.88,0.9164,0.9527,0.9992,1.0756,1.1533,1.2326,1.3143,1.3317,1.3534,1.4396,1.4111,1.3852,1.4358,1.4594,1.4545,1.4085,1.4335,1.4415,1.3918,1.4265,1.4833,1.5462,1.5632,1.6024,1.6878,1.6799,1.6672,1.6549,1.6324,1.6373,1.6765,1.6538,1.6493,1.6722,1.7152,1.7282,1.7037,1.7498,1.7788,1.7902,1.8143,1.8301,1.838,1.8459,1.8498,-0.3161,-0.2965,0.0,0.0,-0.2785,0.0,-0.2326,-0.201,-0.1711,0.0,-0.1782,-0.1851,-0.2097,-0.2177,-0.2201,-0.2174,-0.2426,-0.2697,-0.2971,-0.2646,-0.2373,-0.2358,-0.1908,-0.1622,-0.1685,-0.1712,-0.1799,-0.194,-0.2034,-0.2239,-0.2598,-0.2972,-0.322,-0.3323,-0.3241,-0.3368,-0.3698,-0.3399,-0.3567,-0.4167,-0.3653,-0.3419,-0.3379,-0.1923,-0.1079,-0.0697,0.1263,0.2056,0.2278,0.5833,0.7005,0.6776,0.9052,0.885,0.7332,0.7777,0.7554,0.705,0.7171,0.7121,0.7051,0.7317,0.745,0.7598,0.8161,0.8276,0.8329,0.8944,0.9386,0.9788,1.0349,1.0955,1.1683,1.2688,1.3021,1.3315,1.4064,1.3904,1.3729,1.4198,1.414,1.3917,1.3615,1.3921,1.3993,1.3295,1.4026,1.47,1.4885,1.5424,1.5975,1.6444,1.6542,1.6405,1.5932,1.6025,1.6132,1.6197,1.6322,1.6637,1.7179,1.7199,1.7275,1.7455,1.7475,1.757,1.7815,1.7875,1.7983,1.8163,1.8361,1.8474,-0.3251,-0.3377,-0.3495,-0.3031,0.0,0.0,-0.2176,-0.2169,-0.2194,0.0,-0.1638,-0.1673,-0.178,-0.2066,-0.2228,-0.2061,-0.2401,-0.263,-0.2471,-0.237,-0.2258,-0.2095,-0.1792,-0.1598,-0.1616,-0.1823,-0.2019,-0.221,-0.2867,-0.3272,-0.3303,-0.3476,-0.3735,-0.407,-0.3501,-0.3368,-0.3698,-0.3635,-0.3542,-0.342,-0.3888,-0.3721,-0.2979,-0.1971,-0.1259,-0.0697,0.1263,0.2298,0.2871,0.6012,0.6371,0.5259,0.838,0.8338,0.6601,0.7328,0.718,0.6688,0.7193,0.7199,0.7047,0.7382,0.749,0.7544,0.7826,0.8048,0.8338,0.8993,0.932,0.9511,0.9739,1.0056,1.0585,1.1644,1.1867,1.2209,1.3536,1.3372,1.3087,1.3431,1.3772,1.3852,1.3357,1.3588,1.3688,1.326,1.4135,1.4866,1.4897,1.5743,1.6375,1.6488,1.6147,1.5907,1.59,1.5593,1.564,1.6164,1.6322,1.6637,1.7179,1.7199,1.722,1.7261,1.7261,1.7275,1.7351,1.7713,1.7922,1.7963,1.8003,1.8242,-0.3621,-0.3647,-0.3731,-0.3422,0.0,0.0,0.0,-0.2351,-0.2315,-0.2007,-0.1738,-0.162,-0.1851,-0.2068,-0.2172,-0.2061,-0.2366,-0.2488,-0.2143,-0.2183,-0.2182,-0.1968,-0.1767,-0.1669,-0.175,-0.1896,-0.2145,-0.252,-0.2984,-0.3348,-0.3588,-0.3851,-0.4094,-0.4296,-0.394,-0.3823,-0.3997,-0.3997,-0.3935,-0.3798,-0.4204,-0.4167,-0.3716,-0.2842,-0.2295,-0.1915,0.0396,0.1472,0.1899,0.5718,0.639,0.5296,0.8317,0.8191,0.6387,0.705,0.696,0.6555,0.6962,0.7054,0.7042,0.7279,0.7421,0.7544,0.7778,0.8109,0.8474,0.8809,0.9139,0.9394,0.9393,0.9698,1.0268,1.1303,1.1514,1.186,1.3217,1.3132,1.289,1.3145,1.3395,1.3469,1.3198,1.3329,1.3391,1.3232,1.4168,1.489,1.489,1.5837,1.6494,1.6494,1.6249,1.5908,1.5447,1.5456,1.5568,1.5692,1.6081,1.6563,1.7179,1.7199,1.7199,1.7199,1.7199,1.7199,1.7199,1.7738,1.7898,1.77,1.7835,1.818,0.0,0.0,0.0,0.0,0.0,-0.3488,0.0,0.0,0.0,-0.2339,-0.1979,0.0,0.0,0.0,0.0,0.0,0.0,0.0,0.0,-0.2007,0.0,-0.1897,-0.1799,-0.1794,-0.193,-0.203,-0.2251,-0.2685,-0.2921,-0.3203,-0.3581,-0.4048,-0.4296,-0.4296,-0.4296,-0.4296,-0.4296,-0.4296,-0.4331,-0.4401,-0.4455,-0.453,-0.4564,-0.3684,-0.3285,-0.3169,-0.0738,0.0346,0.0736,0.5109,0.6362,0.5767,0.844,0.8239,0.6507,0.6928,0.6824,0.6494,0.6731,0.69,0.7032,0.7185,0.7377,0.7588,0.7831,0.8213,0.8567,0.8595,0.8962,0.932,0.9245,0.954,1.0136,1.1169,1.1421,1.1743,1.295,1.2994,1.2873,1.3066,1.31,1.3118,1.3118,1.317,1.3198,1.3198,1.4074,1.4752,1.4752,1.5674,1.63,1.6193,1.6274,1.5906,1.4846,1.5295,1.5514,1.5222,1.5827,1.6458,1.7022,1.7048,1.7088,1.7199,1.7199,1.7199,1.7199,1.7806,1.7866,1.7441,1.7894,1.8326,0.0,0.0,0.0,0.0,-0.4181,0.0,0.0,0.0,-0.2892,-0.2473,0.0,0.0,0.0,0.0,0.0,0.0,0.0,0.0,-0.1763,-0.1796,-0.1842,-0.1812,-0.1855,-0.1931,-0.2064,-0.2238,-0.238,-0.2439,-0.3114,-0.345,-0.3272,-0.3923,-0.4296,-0.4296,-0.4296,-0.4296,-0.4296,-0.4296,-0.4331,-0.4401,-0.4401,-0.4476,-0.4564,-0.3633,-0.3253,-0.3218,-0.1723,-0.0509,0.067,0.4112,0.5516,0.5761,0.839,0.8428,0.7008,0.7005,0.6721,0.6372,0.6753,0.6936,0.7047,0.7298,0.7509,0.7705,0.7855,0.8151,0.8444,0.8567,0.8856,0.9162,0.9259,0.9334,0.9682,1.0864,1.1155,1.1461,1.2606,1.2867,1.2925,1.306,1.3152,1.3181,1.3181,1.3181,1.3198,1.3198,1.3771,1.4198,1.4198,1.5123,1.5605,1.5129,1.5519,1.5361,1.4274,1.474,1.512,1.5203,1.5827,1.6295,1.648,1.648,1.6709,1.7192,1.7199,1.7199,1.7199,1.7806,1.7808,1.726,1.8304,1.8815,0.0,0.0,0.0,0.0,0.0,0.0,-0.3592,0.0,-0.3199,0.0,0.0,0.0,0.0,0.0,0.0,0.0,-0.2121,0.0,0.0,0.0,-0.1833,0.0,0.0,0.0,-0.2364,-0.2332,-0.2388,-0.2616,-0.3014,-0.3291,-0.3364,-0.3965,-0.4296,-0.4296,-0.4296,-0.4296,-0.4296,-0.4331,-0.4385,-0.4455,-0.4495,-0.4592,-0.4704,-0.4301,-0.4151,-0.4103,-0.2753,-0.1503,-0.0113,0.3723,0.5745,0.6613,0.8406,0.8407,0.7328,0.6798,0.6597,0.6564,0.6425,0.6645,0.7047,0.7357,0.7549,0.7681,0.7855,0.8104,0.8384,0.8553,0.8842,0.9127,0.9218,0.9272,0.96,1.0755,1.1068,1.1413,1.2606,1.2884,1.2954,1.3129,1.3187,1.3198,1.3198,1.3198,1.3198,1.3198,1.3715,1.4103,1.4103,1.4771,1.5148,1.4915,1.5097,1.4941,1.4166,1.4614,1.498,1.5089,1.6077,1.6674,1.6687,1.6798,1.6929,1.7073,1.7157,1.7199,1.7199,1.812,1.8277,1.7741,1.8538,1.9094,-0.3882,0.0,0.0,0.0,0.0,0.0,0.0,0.0,0.0,0.0,0.0,0.0,0.0,0.0,0.0,0.0,0.0,-0.1942,0.0,-0.176,0.0,0.0,0.0,0.0,0.0,-0.2237,-0.2261,-0.2613,-0.2807,-0.3075,-0.3459,-0.3935,-0.4228,-0.4293,-0.4315,-0.4331,-0.4331,-0.4401,-0.4469,-0.4533,-0.4573,-0.4669,-0.4793,-0.4793,-0.4793,-0.4742,-0.3764,-0.2447,-0.0727,0.2752,0.5329,0.7166,0.7886,0.8139,0.7975,0.6755,0.6518,0.6736,0.6291,0.6524,0.7081,0.7392,0.7515,0.7578,0.7758,0.7989,0.8237,0.8455,0.8753,0.9048,0.917,0.9245,0.955,1.0546,1.0935,1.1393,1.2434,1.2774,1.2954,1.3146,1.3181,1.3198,1.3198,1.3198,1.3198,1.3198,1.3571,1.3858,1.3858,1.4343,1.4689,1.4689,1.4821,1.4746,1.4349,1.4538,1.4702,1.4771,1.5991,1.6701,1.6659,1.6778,1.6897,1.6975,1.6918,1.6902,1.6929,1.807,1.8428,1.812,1.8983,1.9532,0.0,0.0,0.0,-0.3991,0.0,0.0,0.0,0.0,-0.3503,0.0,0.0,0.0,0.0,0.0,0.0,0.0,0.0,0.0,0.0,0.0,0.0,0.0,0.0,0.0,0.0,-0.1911,-0.1998,0.0,-0.253,-0.2907,-0.3371,-0.3725,-0.4031,-0.4291,-0.4366,-0.4401,-0.4401,-0.4455,-0.4533,-0.4599,-0.4599,-0.4669,-0.4793,-0.4793,-0.4793,-0.4793,-0.4758,-0.3311,-0.0875,0.0688,0.3615,0.7039,0.6496,0.7576,0.918,0.7076,0.6518,0.6766,0.6555,0.6749,0.714,0.7411,0.7465,0.7425,0.7564,0.7753,0.797,0.8237,0.8551,0.8863,0.9131,0.9245,0.9462,1.008,1.0672,1.1274,1.1893,1.2489,1.2943,1.3083,1.317,1.3198,1.3198,1.3198,1.3198,1.3198,1.3217,1.3229,1.3229,1.3752,1.4128,1.4128,1.4588,1.4884,1.489,1.4406,1.414,1.4213,1.5356,1.6042,1.6023,1.6042,1.631,1.689,1.6339,1.6097,1.6223,1.7376,1.7978,1.814,1.9843,2.034,-0.3857,-0.4018,-0.4181,-0.3797,0.0,0.0,0.0,0.0,0.0,0.0,0.0,0.0,0.0,0.0,0.0,0.0,0.0,0.0,0.0,0.0,0.0,0.0,0.0,0.0,0.0,0.0,0.0,-0.1862,-0.2098,0.0,-0.2781,-0.3327,-0.3785,-0.4098,-0.4302,-0.442,-0.4471,-0.453,-0.4573,-0.4599,-0.4688,-0.4758,-0.4793,-0.4793,-0.4793,-0.4793,-0.4793,-0.3327,-0.0826,0.0658,0.36,0.7182,0.7281,0.8078,0.8891,0.6609,0.6299,0.6984,0.6824,0.6619,0.6531,0.7107,0.7195,0.7129,0.7436,0.7705,0.7956,0.8228,0.8542,0.885,0.9075,0.919,0.9388,0.9996,1.0582,1.1212,1.1864,1.2471,1.2943,1.306,1.3152,1.3198,1.3198,1.3198,1.3198,1.3198,1.3198,1.3198,1.3198,1.3378,1.3509,1.3509,1.366,1.3935,1.433,1.4865,1.5016,1.467,1.5791,1.6426,1.6338,1.6497,1.6648,1.6761,1.6308,1.6061,1.6071,1.6996,1.7431,1.7475,1.8849,1.983,-0.3892,-0.3954,-0.4034,-0.3801,-0.38,0.0,-0.3482,0.0,-0.3636,0.0,0.0,0.0,0.0,0.0,0.0,0.0,0.0,0.0,0.0,-0.1878,0.0,0.0,0.0,0.0,0.0,0.0,-0.1697,-0.1768,-0.1917,0.0,0.0,-0.3103,-0.3567,-0.3957,-0.4205,-0.4378,-0.4506,-0.4611,-0.4669,-0.4669,-0.4758,-0.4793,-0.4793,-0.4793,-0.4793,-0.4793,-0.4793,-0.3311,-0.0828,0.0125,0.3162,0.7193,0.7136,0.7875,0.8741,0.6914,0.6567,0.6964,0.679,0.6595,0.6496,0.6884,0.7017,0.7045,0.7288,0.7578,0.7874,0.8095,0.843,0.8786,0.904,0.9149,0.9306,0.9717,1.0279,1.089,1.1532,1.2157,1.2675,1.2964,1.3094,1.3129,1.3012,1.3105,1.3198,1.3198,1.3198,1.3198,1.3198,1.3198,1.3273,1.3509,1.3521,1.3693,1.4107,1.4968,1.5246,1.4694,1.5422,1.5978,1.6205,1.6409,1.6479,1.6371,1.5933,1.5629,1.5437,1.6377,1.6835,1.6854,1.8129,1.9182]}]]